GEFSSGP_con_prob3kmehi_054.txt.gz
EHI
0 0 0 0 0 0 0 0 0 0 0 0 0 0 0 0 1 3 3 2 3 4 2 2 4 5 8 16 26 36 42 42 42 40 35 27 15 6 3 2 1 0 0 0 0 0 0 0 0
0 0 0 0 0 0 0 0 0 0 0 0 0 0 1 1 2 2 1 1 2 2 2 2 4 6 10 16 24 33 37 38 39 35 28 20 10 4 2 1 0 0 0 0 0 0 0 0 0
0 0 0 0 0 0 0 0 0 0 0 0 0 1 3 4 3 1 0 0 1 1 1 4 5 6 8 13 18 23 25 27 29 25 18 11 5 1 1 0 0 0 0 0 0 0 0 0 0
0 0 0 0 0 0 0 0 0 0 0 0 0 3 8 9 4 1 0 0 0 0 2 5 5 5 5 7 11 13 14 16 17 15 10 5 2 0 0 0 0 0 0 0 0 0 0 0 0
0 0 0 0 0 0 0 1 0 0 1 1 2 5 10 11 6 1 0 0 0 0 1 4 4 3 2 4 7 9 10 10 11 10 7 3 1 0 0 0 0 0 0 0 0 0 0 0 0
0 0 0 0 0 0 0 1 2 2 3 4 5 7 12 13 8 2 0 0 0 0 0 1 2 1 1 2 6 9 9 9 9 9 8 5 2 0 0 0 0 0 0 0 0 0 0 0 0
0 0 0 0 0 0 1 3 6 5 5 6 6 7 12 16 11 4 2 1 0 0 0 0 0 0 0 2 5 7 8 7 7 8 7 4 2 0 0 0 0 0 0 0 0 0 0 0 0
0 0 0 0 0 0 1 5 9 9 7 8 8 10 21 26 18 9 6 5 2 0 0 1 0 0 0 1 3 4 4 4 4 4 4 3 2 1 0 2 3 2 1 1 0 1 1 0 0
0 0 0 0 0 0 1 4 7 8 10 14 20 30 42 41 26 14 10 8 6 3 2 2 1 0 0 1 1 1 1 2 3 3 2 2 2 1 0 4 8 6 3 2 1 1 1 0 0
0 0 0 0 0 0 0 2 3 6 11 21 36 52 57 48 30 16 12 11 10 8 5 3 2 2 2 2 3 3 4 6 6 5 4 3 3 2 3 8 11 8 4 3 3 2 2 3 4
0 0 0 0 0 0 0 2 3 7 14 26 44 56 56 46 30 20 15 13 13 12 8 5 6 7 7 6 6 7 8 9 7 6 6 6 8 8 9 13 15 12 9 8 9 8 6 7 10
0 0 0 0 0 0 1 4 10 17 26 37 47 52 53 47 38 29 22 17 16 14 11 10 11 14 14 12 8 7 7 6 5 4 5 8 11 13 16 18 18 17 17 18 19 17 13 13 14
0 0 0 0 0 0 2 6 15 27 40 51 56 57 57 55 50 40 30 22 18 16 16 17 18 19 18 14 10 6 4 3 2 2 2 5 9 11 14 17 16 15 17 20 21 18 16 17 17
0 0 0 0 0 0 2 8 18 32 45 55 63 66 63 58 53 45 35 26 19 19 23 23 22 20 15 12 10 6 3 1 1 0 0 1 3 5 7 9 9 9 10 12 13 12 13 16 17
0 0 0 0 0 0 2 9 22 35 45 53 61 64 60 52 46 40 33 25 19 19 22 21 18 15 11 7 6 4 1 0 0 0 0 0 0 1 1 2 3 4 5 4 5 6 8 11 12
0 0 0 0 0 1 3 9 21 32 40 47 51 51 45 38 33 28 23 20 19 17 15 12 9 7 5 3 1 1 0 0 0 0 0 0 0 0 0 0 1 1 1 1 1 3 5 7 7
0 0 0 0 0 1 3 8 15 23 30 37 38 34 28 23 20 16 14 15 15 12 9 6 4 3 2 1 1 0 0 0 0 0 0 0 0 0 0 0 1 0 0 0 0 1 2 4 4
0 0 0 0 0 1 2 6 10 14 20 25 26 24 19 15 13 10 9 9 9 6 4 4 3 2 1 2 2 1 0 0 0 0 0 0 0 0 0 0 0 0 0 0 0 0 1 1 2
0 0 0 0 0 0 2 5 7 9 11 13 17 17 13 11 9 7 5 4 3 3 3 4 4 3 2 2 2 1 0 0 0 0 0 0 0 0 0 0 0 0 0 0 0 0 0 0 1
0 0 0 0 0 0 2 4 5 6 6 7 9 9 8 6 5 3 2 2 2 3 5 6 7 6 3 2 1 0 0 0 0 0 0 0 0 0 0 0 0 0 0 0 0 0 0 0 0
0 0 0 0 0 0 1 1 2 3 4 4 4 4 3 2 1 1 1 2 3 5 6 8 10 9 6 3 1 0 0 0 0 0 0 0 0 0 0 0 0 0 0 0 0 0 0 0 0
0 0 0 0 0 0 0 0 0 1 1 2 1 1 1 1 0 0 1 1 3 4 6 9 12 15 13 9 3 1 0 0 0 0 0 0 0 0 0 0 0 0 0 0 0 0 0 0 0
0 0 0 0 0 0 0 0 0 1 1 0 0 0 0 0 0 0 0 1 3 4 6 10 16 21 20 13 6 2 1 0 0 0 0 0 0 0 0 0 0 0 0 0 0 0 0 0 0
0 0 0 0 0 0 0 0 0 0 0 0 0 0 0 0 0 0 0 1 4 5 6 9 15 20 17 10 5 2 1 0 0 0 0 0 0 0 0 0 0 0 0 0 0 0 0 0 0
0 0 0 0 0 0 0 0 0 0 0 0 0 0 0 0 0 0 0 2 5 5 5 6 8 10 7 4 2 1 0 0 0 0 0 0 0 0 0 0 0 0 0 0 0 0 0 0 0
0 0 0 0 0 0 0 0 0 0 0 0 0 0 0 0 0 0 1 2 4 5 4 3 3 3 1 0 0 0 0 0 0 0 0 0 0 0 0 0 0 0 0 0 0 0 0 0 0
0 0 0 0 0 0 0 0 0 0 0 0 0 0 0 0 0 0 1 2 4 4 3 3 2 2 1 0 0 0 0 0 0 0 0 0 0 0 0 0 0 0 0 0 0 0 0 0 0
0 0 0 0 0 0 0 0 0 0 0 0 0 0 0 0 0 0 1 1 2 3 2 1 1 1 0 0 0 0 0 0 0 0 0 0 0 0 0 0 0 0 0 0 0 0 0 0 0
0 0 0 0 0 0 0 0 0 0 0 0 0 0 0 0 0 0 0 0 0 1 1 0 0 0 0 0 0 0 0 0 0 0 0 0 0 0 0 0 0 0 0 0 0 0 0 0 0
0 0 0 0 0 0 0 0 0 0 0 0 0 0 0 0 0 0 0 0 0 0 0 0 0 0 0 0 0 0 0 0 0 0 0 0 0 0 0 0 0 0 0 0 0 0 0 0 0

GEFSSGP_con_prob3kmehi_060.txt.gz
EHI
2 4 5 4 1 0 0 0 0 1 0 0 1 6 15 20 13 8 24 50 53 29 11 11 12 10 7 6 4 3 2 3 3 2 1 1 0 0 0 0 0 0 0 0 0 0 0 0 0
2 4 5 2 1 1 1 0 0 1 0 0 2 6 10 11 8 10 25 41 38 22 10 10 12 10 7 6 5 4 4 5 6 5 3 3 1 1 0 0 0 0 0 0 0 0 0 0 0
1 2 2 1 1 2 1 0 0 0 0 2 6 8 6 5 5 9 20 28 28 20 13 12 13 11 7 5 3 2 3 6 7 5 5 4 3 2 1 0 0 0 0 0 0 0 0 0 0
0 0 0 0 1 1 1 1 1 2 2 7 15 15 9 6 5 7 12 20 27 25 17 13 14 12 7 4 1 1 2 4 5 5 4 3 3 2 1 0 0 0 0 0 0 0 0 0 0
0 0 0 0 0 0 1 2 3 5 5 14 27 27 15 8 5 5 8 15 26 30 20 12 14 12 7 4 2 1 1 3 4 4 2 1 1 1 0 0 0 0 0 0 0 0 0 0 0
0 0 0 0 0 0 1 3 6 8 10 19 33 34 21 9 4 5 8 16 30 36 23 12 11 10 6 4 2 1 1 1 2 2 1 0 0 0 0 0 0 0 0 0 0 0 0 0 0
0 0 0 0 0 0 1 4 9 13 15 21 30 32 21 10 6 7 11 22 38 40 23 9 7 6 4 2 1 1 0 0 1 1 0 0 0 0 0 0 0 0 0 0 0 0 0 0 0
0 0 0 0 0 0 1 5 11 16 21 29 35 37 30 17 11 12 16 28 42 40 23 9 6 5 4 2 2 1 1 0 0 0 0 0 0 1 2 1 1 0 0 0 1 1 1 2 2
0 0 0 0 0 0 1 4 9 17 29 45 55 54 44 26 16 18 25 38 48 43 27 17 14 11 9 7 5 2 1 1 2 3 2 1 2 3 4 4 4 2 1 1 2 3 3 4 4
0 0 0 0 0 0 2 3 6 17 34 53 63 58 43 28 20 23 36 49 55 46 33 27 25 22 21 19 13 7 6 6 7 9 8 5 6 7 9 10 8 4 2 3 4 5 5 4 4
0 0 0 0 0 1 1 4 11 23 37 46 48 40 30 25 26 32 44 55 58 50 40 35 34 37 40 36 26 19 15 12 13 15 15 11 11 12 15 16 11 6 6 6 8 9 7 6 7
0 0 0 0 0 1 1 6 19 32 37 34 30 27 26 30 38 48 58 64 65 59 50 44 44 51 54 47 35 26 19 14 14 17 16 13 12 14 18 18 13 10 11 10 11 13 9 8 9
0 0 0 0 1 1 1 7 22 32 31 27 25 28 34 42 54 67 76 78 75 69 61 53 50 50 47 39 29 21 15 10 10 12 11 8 10 12 15 16 13 11 12 12 12 12 10 9 10
0 0 0 0 1 1 1 7 19 26 25 25 29 36 45 57 70 80 85 84 80 74 65 54 46 39 32 24 17 12 8 6 5 6 5 4 5 7 8 9 11 11 10 11 10 7 6 7 7
0 0 0 0 0 0 1 9 21 24 22 25 34 46 60 71 79 83 83 81 79 73 62 48 37 30 24 17 11 7 4 3 2 3 3 2 1 2 2 3 7 8 7 8 7 5 4 4 5
0 0 0 0 0 0 3 11 20 23 23 26 38 53 67 75 78 78 76 75 75 69 60 45 32 26 21 14 9 5 2 1 2 2 2 2 1 0 0 1 2 3 3 4 4 3 4 4 5
0 0 0 0 0 0 3 8 14 17 21 28 40 51 62 69 71 71 70 69 68 65 60 51 36 24 16 9 6 3 1 1 1 2 2 2 1 0 0 0 0 0 1 2 2 3 3 3 3
0 0 0 0 0 0 2 5 7 10 16 28 40 46 53 60 61 61 60 60 59 58 57 51 37 24 14 7 3 1 0 1 1 2 3 2 1 0 0 0 0 0 0 1 1 1 2 1 1
0 0 0 0 0 0 2 5 7 9 13 25 35 40 43 47 50 50 46 44 45 47 48 44 34 24 16 10 5 2 1 2 2 2 2 1 0 0 1 0 0 0 0 0 0 0 0 0 0
0 0 0 0 0 0 1 5 10 11 12 17 26 32 33 35 40 40 33 29 29 32 36 37 34 27 20 14 7 3 2 2 2 2 2 2 1 0 0 0 0 0 0 0 0 0 0 0 0
0 0 0 0 0 0 1 5 10 11 10 11 17 24 28 29 32 30 24 18 18 23 29 35 41 40 32 21 11 4 3 3 2 3 4 3 2 1 1 1 0 0 0 0 0 0 0 0 0
0 0 0 0 0 0 0 2 6 9 9 9 13 19 22 22 23 22 17 12 12 18 26 41 56 60 51 36 19 7 3 3 3 4 5 4 3 2 2 1 0 0 0 0 0 0 0 0 0
0 0 0 0 0 0 0 1 4 6 7 8 11 14 13 12 14 15 13 9 9 12 25 49 71 74 63 47 28 14 6 3 3 4 4 3 2 1 1 1 0 0 0 0 0 0 0 0 0
0 0 0 0 0 0 0 0 1 3 4 6 9 11 8 6 9 11 11 11 10 12 25 52 75 78 65 48 33 20 10 4 3 2 2 1 1 0 0 0 0 0 0 0 0 0 0 0 0
0 0 0 0 0 0 0 0 1 2 2 3 6 8 6 5 8 10 11 13 15 17 27 50 72 75 60 43 29 19 9 3 1 1 1 0 0 0 0 0 0 0 0 0 0 0 0 0 0
0 0 0 0 0 0 0 0 1 2 1 1 2 4 4 4 6 7 9 13 18 23 29 45 64 65 48 31 20 11 5 1 0 0 0 0 0 0 0 0 0 0 0 0 0 0 0 0 0
0 0 0 0 0 0 0 0 1 2 1 0 0 1 2 3 3 3 5 9 17 25 32 42 52 48 31 19 12 6 2 0 0 0 0 0 0 0 0 0 0 0 0 0 0 0 0 0 0
0 0 0 0 0 0 0 0 1 2 2 1 0 0 1 2 1 1 3 5 11 22 30 37 38 30 18 11 7 3 0 0 0 0 0 0 0 0 0 0 0 0 0 0 0 0 0 0 0
0 0 0 0 0 0 0 0 0 1 1 1 0 0 0 1 0 0 1 3 7 14 22 25 23 17 10 5 3 1 0 0 0 0 0 0 0 0 0 0 0 0 0 0 0 0 0 0 0
0 0 0 0 0 0 0 0 0 0 1 0 0 0 0 0 0 0 1 3 6 10 13 14 13 9 6 3 1 0 0 0 0 0 0 0 0 0 0 0 0 0 0 0 0 0 0 0 0

GEFSSGP_con_prob3kmehi_066.txt.gz
EHI
5 2 0 0 0 0 0 0 0 1 2 6 12 15 17 14 9 5 4 14 38 47 39 38 42 37 27 18 9 5 3 2 1 0 0 0 0 0 0 0 0 0 0 0 0 0 0 0 0
3 1 0 0 0 0 0 0 0 0 2 5 11 15 18 18 13 9 6 17 40 47 39 40 45 39 29 20 13 7 4 3 1 1 0 0 0 0 0 0 0 0 0 0 0 0 0 0 0
1 0 0 0 0 0 0 0 1 1 2 6 11 14 15 16 14 9 7 21 41 43 36 42 49 45 34 26 19 12 6 3 2 1 0 0 0 0 0 0 0 0 0 0 0 0 0 0 0
0 0 0 0 0 0 1 1 2 3 5 9 12 12 13 17 16 10 8 22 38 36 30 39 51 49 39 31 24 14 7 3 2 1 0 0 0 0 0 0 0 0 0 0 0 0 0 0 0
0 0 0 0 0 0 1 3 5 7 8 11 14 14 15 22 25 17 9 18 30 29 24 31 42 42 34 27 21 12 6 3 1 0 0 0 0 0 0 0 0 0 0 0 0 0 0 0 0
0 0 0 0 0 0 2 6 9 10 11 12 15 15 15 22 26 18 10 12 18 21 19 20 24 25 22 18 13 8 4 1 0 0 0 0 0 0 0 0 0 0 0 0 0 0 0 0 0
0 0 0 0 0 0 3 7 10 11 12 13 14 14 15 18 21 18 13 10 10 13 14 12 12 11 11 9 7 5 3 1 0 0 0 0 0 0 0 0 0 0 0 0 0 0 0 0 0
0 0 0 0 0 1 3 6 7 10 13 14 13 14 16 22 28 27 21 15 9 8 8 8 7 6 5 5 5 5 3 1 0 0 0 0 0 0 0 0 0 0 0 0 0 0 0 0 0
0 0 0 0 0 1 2 3 4 8 13 16 17 18 20 32 43 41 31 22 13 7 5 5 4 4 3 3 4 4 3 1 1 1 0 0 0 0 1 1 1 1 0 0 0 0 0 0 0
0 0 0 0 1 2 2 1 2 6 9 13 19 22 27 39 51 50 41 30 19 9 4 2 1 1 2 2 2 1 1 1 2 1 0 0 0 0 1 2 2 1 0 0 0 0 0 0 0
0 0 0 0 1 4 5 2 1 3 4 7 15 23 30 40 48 49 45 36 25 16 8 3 1 1 1 1 1 0 0 1 1 1 0 0 0 0 1 1 2 1 0 0 0 0 0 0 0
0 0 0 0 1 5 6 5 3 2 1 3 10 18 27 36 42 46 46 41 33 27 20 12 7 4 2 2 1 0 0 0 0 0 0 0 0 0 0 0 0 0 0 0 0 0 0 0 0
0 0 0 0 1 4 7 8 6 3 2 3 7 12 20 31 40 46 47 44 40 37 32 22 14 9 6 3 1 1 1 0 0 0 0 0 0 0 0 0 0 0 0 0 0 0 0 0 0
0 0 0 0 0 2 5 8 7 6 5 4 5 8 16 29 41 45 45 43 41 39 34 25 16 12 8 3 1 2 1 1 1 0 0 0 0 0 0 0 0 0 0 0 0 0 0 0 0
0 0 0 0 0 1 3 4 7 8 7 5 4 8 17 28 35 39 39 40 41 40 32 21 13 9 5 2 1 1 1 0 0 0 0 0 0 0 0 0 0 0 0 0 0 0 0 0 0
0 0 0 0 0 0 1 1 5 8 9 6 5 10 18 25 29 31 34 37 39 39 31 18 10 5 3 2 1 0 0 0 0 0 0 0 0 0 0 0 0 0 0 0 0 0 0 0 0
0 0 0 0 0 0 0 1 3 8 10 7 7 12 19 23 24 26 29 32 34 33 26 16 8 3 1 1 0 0 0 0 0 0 0 0 0 0 0 0 0 0 0 0 0 0 0 0 0
0 0 0 0 0 0 0 1 4 7 9 7 8 12 17 18 18 20 25 28 27 24 19 12 6 2 0 0 0 0 0 0 0 0 0 0 0 0 0 0 0 0 0 0 0 0 0 0 0
0 0 0 0 0 0 0 1 3 5 6 6 6 8 11 12 11 16 22 22 19 16 13 8 4 1 0 0 0 0 0 0 0 0 0 0 0 0 0 0 0 0 0 0 0 0 0 0 0
0 0 0 0 0 0 0 1 2 4 5 5 5 5 7 8 10 14 17 16 13 11 8 5 2 0 0 0 0 0 0 0 0 0 0 0 0 0 0 0 0 0 0 0 0 0 0 0 0
0 0 0 0 0 0 0 1 2 3 6 7 5 4 5 7 10 13 13 9 7 7 6 4 1 0 0 0 0 0 0 0 0 0 0 0 0 0 0 0 0 0 0 0 0 0 0 0 0
0 0 0 0 0 0 0 0 1 2 5 7 7 6 4 5 8 10 8 5 3 5 5 4 2 0 0 0 0 0 0 0 0 0 0 0 0 0 0 0 0 0 0 0 0 0 0 0 0
0 0 0 0 0 0 0 0 0 1 2 5 8 8 6 4 4 6 5 3 2 3 5 5 3 2 1 0 0 0 0 0 0 0 0 0 0 0 0 0 0 0 0 0 0 0 0 0 0
0 0 0 0 0 0 0 0 0 0 1 3 6 9 8 7 5 6 5 3 2 4 7 8 7 6 4 2 1 0 0 0 0 0 0 0 0 0 0 0 0 0 0 0 0 0 0 0 0
0 0 0 0 0 0 0 0 0 0 1 3 4 6 7 8 8 7 6 4 5 8 11 13 11 9 6 4 2 1 0 0 0 0 0 0 0 0 0 0 0 0 0 0 0 0 0 0 0
0 0 0 0 0 0 0 0 0 0 1 2 2 3 4 7 8 7 5 5 7 11 15 16 13 10 9 7 4 2 0 0 0 0 0 0 0 0 0 0 0 0 0 0 0 0 0 0 0
0 0 0 0 0 0 0 0 0 0 1 1 1 1 2 4 5 5 3 4 7 13 15 14 12 12 11 8 3 1 0 0 0 0 0 0 0 0 0 0 0 0 0 0 0 0 0 0 0
0 0 0 0 0 0 0 0 0 0 0 1 0 0 1 2 3 4 3 3 6 11 12 13 14 13 9 5 1 0 0 0 0 0 0 0 0 0 0 0 0 0 0 0 0 0 0 0 0
0 0 0 0 0 0 0 0 0 0 0 0 0 0 0 1 3 4 4 3 5 9 12 13 13 9 5 1 0 0 0 0 0 0 0 0 0 0 0 0 0 0 0 0 0 0 0 0 0
0 0 0 0 0 0 0 0 0 0 0 0 0 0 0 1 2 3 3 2 4 10 13 12 11 7 2 0 0 0 0 0 0 0 0 0 0 0 0 0 0 0 0 0 0 0 0 0 0

GEFSSGP_con_prob3kmehi_072.txt.gz
EHI
3 3 2 1 0 0 0 0 0 1 1 1 0 1 2 3 3 3 4 7 15 21 18 18 27 39 48 53 52 44 33 23 14 8 7 6 5 4 3 3 3 3 3 3 3 3 1 0 0
3 3 2 1 0 0 0 0 0 0 0 0 0 1 2 4 5 4 5 9 17 23 20 19 26 37 45 50 48 38 27 20 14 9 7 6 5 4 3 3 3 3 3 3 3 3 2 1 0
3 2 1 0 0 0 0 0 0 1 1 1 1 1 2 4 5 5 8 15 22 25 22 21 27 35 42 47 44 32 22 16 12 9 7 6 4 3 3 3 3 3 3 3 3 3 3 2 1
2 1 0 0 0 0 0 0 1 2 2 2 2 1 2 3 4 7 14 22 26 26 23 24 30 37 43 44 38 28 19 13 9 6 6 5 4 3 3 3 3 3 3 3 3 3 3 3 3
1 0 0 0 0 0 0 0 1 2 3 3 4 4 5 6 7 11 19 27 30 29 26 29 36 42 43 41 34 25 17 10 5 4 4 4 3 3 3 3 3 3 3 3 3 3 3 3 3
0 0 0 0 0 0 0 0 1 3 3 4 5 8 11 11 13 16 23 29 33 33 31 33 38 40 40 38 33 26 16 8 5 4 3 3 3 3 3 3 3 3 3 3 3 3 3 3 3
0 0 0 0 0 0 0 0 2 3 3 4 6 10 14 16 19 22 26 29 30 32 33 33 32 31 31 33 32 28 19 10 6 5 4 3 3 3 4 3 3 3 3 3 3 3 3 3 3
0 0 0 0 0 0 0 0 1 3 3 4 7 11 16 20 23 25 27 26 23 23 25 25 23 20 20 23 26 25 20 14 8 4 3 2 2 3 4 4 4 3 3 3 3 3 3 3 3
0 0 0 0 0 0 1 0 0 1 2 5 9 16 22 25 25 24 23 20 15 12 11 13 13 12 12 14 16 16 15 11 7 3 1 1 1 1 2 5 5 4 3 3 3 3 3 3 3
0 0 0 0 0 1 2 1 1 2 2 6 14 23 29 28 22 18 17 15 10 6 4 5 8 8 8 8 8 7 5 4 3 1 0 0 0 0 1 2 4 4 3 3 3 3 3 3 3
0 0 0 0 0 1 2 3 5 6 4 6 16 29 32 26 18 13 12 10 7 6 4 4 5 6 5 4 3 1 0 0 0 0 0 0 0 0 0 0 1 1 1 1 2 3 3 3 3
0 0 0 0 0 1 3 5 7 7 5 6 16 28 29 21 15 12 10 6 4 5 5 4 4 3 2 2 2 1 0 0 0 0 0 0 0 0 0 0 0 0 0 0 1 1 2 3 3
0 0 0 0 0 2 5 7 6 5 4 7 18 25 23 15 11 11 8 4 3 4 5 4 3 1 1 1 1 1 0 0 0 0 0 0 0 0 0 0 0 0 0 0 0 0 1 2 2
0 0 0 0 0 3 5 5 4 4 4 8 15 18 15 10 7 6 5 2 1 2 3 3 2 1 0 0 0 0 0 0 0 0 0 0 0 0 0 0 0 0 0 0 0 0 0 1 1
0 0 0 0 0 2 3 3 3 3 5 7 9 9 8 7 5 3 2 1 0 0 1 2 1 1 0 0 0 0 0 0 0 0 0 0 0 0 0 0 0 0 0 0 0 0 0 0 0
0 0 0 0 0 0 1 1 2 4 5 6 6 5 6 5 3 1 2 2 1 0 0 1 2 1 0 0 0 0 0 0 0 0 0 0 0 0 0 0 0 0 0 0 0 0 0 0 0
0 0 0 0 0 0 0 0 2 5 6 5 4 4 4 3 1 1 2 2 1 0 0 1 1 1 0 0 0 0 0 0 0 0 0 0 0 0 0 0 0 0 0 0 0 0 0 0 0
0 0 0 0 0 0 0 0 2 5 5 4 3 3 4 3 1 1 2 2 1 1 0 0 0 0 0 0 0 0 0 0 0 0 0 0 0 0 0 0 0 0 0 0 0 0 0 0 0
0 0 0 0 0 0 0 0 2 4 4 3 3 4 4 2 1 2 2 2 1 0 0 0 0 0 0 0 0 0 0 0 0 0 0 0 0 0 0 0 0 0 0 0 0 0 0 0 0
0 0 0 0 0 0 0 0 1 3 3 2 2 3 3 1 1 1 2 1 1 0 0 0 0 0 0 0 0 0 0 0 0 0 0 0 0 0 0 0 0 0 0 0 0 0 0 0 0
0 0 0 0 0 0 0 0 0 1 1 1 1 2 2 1 0 0 0 0 0 0 0 0 0 0 0 0 0 0 0 0 0 0 0 0 0 0 0 0 0 0 0 0 0 0 0 0 0
0 0 0 0 0 0 0 0 0 0 0 0 0 0 1 1 1 0 0 0 0 0 0 0 0 0 0 0 0 0 0 0 0 0 0 0 0 0 0 0 0 0 0 0 0 0 0 0 0
0 0 0 0 0 0 0 0 0 0 0 0 0 0 1 2 1 0 0 0 0 1 1 1 0 0 0 0 0 0 0 0 0 0 0 0 0 0 0 0 0 0 0 0 0 0 0 0 0
0 0 0 0 0 0 0 0 0 0 0 0 0 0 1 2 1 0 0 0 0 1 2 2 1 0 0 0 0 0 0 0 0 0 0 0 0 0 0 0 0 0 0 0 0 0 0 0 0
0 0 0 0 0 0 0 0 0 0 0 0 1 1 2 2 1 0 0 0 0 1 2 2 1 0 0 0 0 0 0 0 0 0 0 0 0 0 0 0 0 0 0 0 0 0 0 0 0
0 0 0 0 0 0 0 0 0 0 0 0 1 2 3 2 1 0 0 0 0 0 1 1 1 0 0 0 0 0 0 0 0 0 0 0 0 0 0 0 0 0 0 0 0 0 0 0 0
0 0 0 0 0 0 0 0 0 0 0 1 2 3 3 2 2 1 0 0 0 0 0 0 0 0 0 0 0 0 0 0 0 0 0 0 0 0 0 0 0 0 0 0 0 0 0 0 0
0 0 0 0 0 0 0 0 0 0 0 1 2 2 1 1 1 1 0 0 0 0 0 0 0 0 0 0 0 0 0 0 0 0 0 0 0 0 0 0 0 0 0 0 0 0 0 0 0
0 0 0 0 0 0 0 0 0 0 0 0 1 1 0 0 0 0 0 0 0 0 0 0 0 0 0 0 1 1 1 0 0 0 0 0 0 0 0 0 0 0 0 0 0 0 0 0 0
0 0 0 0 0 0 0 0 0 0 0 0 0 0 0 0 0 0 0 0 0 0 0 0 0 0 0 0 1 2 1 0 0 0 0 0 0 0 0 0 0 0 0 0 0 0 0 0 0

GEFSSGP_con_prob3kmehi_078.txt.gz
EHI
0 0 0 0 0 0 0 0 0 0 0 0 0 0 0 0 1 2 3 2 2 2 2 2 3 3 3 5 11 19 24 20 14 10 5 1 0 0 0 0 0 0 0 0 0 0 0 0 0
0 0 0 0 0 0 0 0 0 0 0 0 0 0 0 1 3 4 4 2 2 2 3 4 6 7 7 8 12 19 23 19 14 9 4 2 0 0 0 0 0 0 0 0 0 0 0 0 0
0 0 0 0 0 0 0 0 0 0 0 0 0 0 1 3 4 5 5 3 2 2 4 8 12 12 10 10 13 17 18 17 13 7 3 1 0 0 0 0 0 0 0 0 0 0 0 0 0
0 0 0 0 0 0 0 0 0 0 0 0 0 1 3 4 5 6 6 3 1 2 4 10 13 11 9 9 11 12 12 13 10 5 1 0 0 0 0 0 0 0 0 0 0 0 0 0 0
0 0 0 0 0 0 0 0 0 0 0 0 0 2 4 5 7 7 5 2 1 1 3 6 8 7 6 7 8 8 8 8 6 2 0 0 0 0 0 0 0 0 0 0 0 0 0 0 0
0 0 0 0 0 0 0 0 0 0 0 0 1 4 7 10 12 9 4 2 1 1 2 3 3 3 4 7 8 6 6 5 3 1 0 0 0 0 0 0 0 0 0 0 0 0 0 0 0
0 0 0 0 0 0 0 0 0 0 0 0 1 4 12 18 20 13 5 2 2 2 2 2 2 2 3 5 7 6 4 3 2 1 0 0 0 0 0 0 0 0 0 0 0 0 0 0 0
0 0 0 0 0 0 0 0 0 0 1 1 1 5 16 28 30 22 12 7 5 4 3 2 2 1 1 2 3 3 2 1 2 1 0 0 0 0 0 1 1 1 0 0 0 0 1 1 0
0 0 0 0 0 0 0 0 0 1 2 2 3 8 24 39 39 31 23 16 11 8 4 3 2 1 0 0 1 1 1 1 1 0 0 0 0 0 1 2 2 1 0 0 0 0 1 1 1
0 0 0 0 0 0 0 0 0 1 2 3 5 16 35 48 44 34 28 22 16 11 6 2 1 1 1 2 3 3 2 2 1 0 0 0 0 0 1 2 1 1 0 0 0 0 1 1 0
0 0 0 0 0 0 0 0 0 0 2 3 8 22 40 48 39 27 23 20 15 11 7 3 2 2 3 5 5 5 4 2 1 0 0 0 0 0 0 0 0 0 0 0 0 0 0 0 0
0 0 0 0 0 0 0 0 0 0 2 3 8 20 34 39 29 19 16 15 13 11 9 7 6 7 8 8 6 5 3 2 1 0 0 0 0 0 0 0 0 0 0 0 0 0 0 0 0
0 0 0 0 0 0 0 0 0 0 1 2 5 13 24 27 19 13 12 12 11 11 12 11 10 11 12 11 7 4 1 1 1 0 0 0 0 0 0 0 0 0 0 0 1 1 1 0 0
0 0 0 0 0 0 0 0 0 0 0 0 2 9 18 20 15 11 11 10 10 11 12 12 11 11 12 10 7 3 1 0 1 0 0 0 0 0 0 0 0 0 0 1 1 1 1 0 0
0 0 0 0 0 0 0 1 2 1 0 1 2 8 14 15 12 10 9 9 9 10 11 11 10 10 11 8 5 3 1 0 0 0 0 0 0 0 0 0 0 0 0 0 1 1 0 0 0
0 0 0 0 0 0 0 1 2 1 1 2 4 8 10 10 8 7 6 8 9 10 10 8 8 8 9 7 5 3 1 0 0 0 0 0 0 0 0 0 0 0 0 0 0 1 0 0 0
0 0 0 0 0 0 0 0 1 2 2 4 6 8 8 7 5 4 5 8 10 10 9 7 6 7 7 7 5 2 0 0 0 0 0 0 0 0 0 0 0 0 0 0 0 1 1 1 0
0 0 0 0 0 0 0 0 1 2 3 5 7 8 6 4 3 3 4 7 8 7 7 7 8 8 8 6 4 2 0 0 0 0 0 0 0 0 0 0 0 0 0 0 0 0 1 1 1
0 0 0 0 0 0 0 0 1 4 5 5 7 7 6 4 3 3 4 6 5 3 4 8 11 11 8 5 3 2 1 0 0 0 0 0 0 0 0 0 0 0 0 0 0 0 1 1 0
0 0 0 0 0 0 0 0 1 3 5 6 6 6 6 6 5 4 5 6 4 2 3 8 11 10 6 4 3 2 1 0 0 0 0 0 0 0 0 0 0 0 0 0 0 0 0 0 0
0 0 0 0 0 0 0 0 1 2 5 6 5 5 6 6 7 6 6 5 4 3 4 6 8 7 4 2 3 2 1 0 0 0 0 0 0 0 0 0 0 0 0 0 0 0 0 0 0
0 0 0 0 0 0 0 0 1 1 3 5 5 4 4 5 6 6 5 4 3 4 4 5 7 6 3 1 1 1 0 0 0 0 0 0 0 0 0 0 0 0 0 0 0 0 0 0 0
0 0 0 0 0 0 0 0 0 1 2 2 3 4 3 3 5 5 4 3 2 4 4 5 7 7 3 1 0 0 0 0 0 0 0 0 0 0 0 0 0 0 0 0 0 0 0 0 0
0 0 0 0 0 0 0 0 0 0 0 0 2 3 3 3 4 4 3 3 2 3 3 4 5 5 3 2 1 0 0 0 0 0 0 0 0 0 0 0 0 0 0 0 0 0 0 0 0
0 0 0 0 0 0 0 0 0 0 0 0 0 1 3 4 4 3 3 4 4 3 3 3 4 4 4 3 2 1 0 1 1 0 0 0 0 0 0 0 0 0 0 0 0 0 0 0 0
0 0 0 0 0 0 0 0 0 0 0 0 0 0 1 3 4 4 4 5 5 4 3 2 3 5 6 6 5 3 2 1 1 0 0 0 0 0 0 0 0 0 0 0 0 0 0 0 0
0 0 0 0 0 0 0 0 0 0 0 0 0 0 1 2 3 3 4 5 4 3 1 1 3 6 8 7 7 6 5 5 3 1 0 0 0 0 0 0 0 0 0 0 0 0 0 0 0
0 0 0 0 0 0 0 0 0 0 0 0 0 0 0 1 1 1 2 3 2 1 1 1 3 6 7 7 7 6 7 9 8 4 2 1 1 1 0 0 0 0 0 0 0 0 0 0 0
0 0 0 0 0 0 0 0 0 0 0 0 0 0 0 0 0 0 1 1 1 1 2 3 4 6 7 7 8 9 10 12 11 8 5 5 4 2 1 0 0 0 0 0 0 0 0 0 0
0 0 0 0 0 0 0 0 0 0 0 0 0 0 0 0 0 0 0 0 0 0 2 4 5 6 7 8 11 12 13 13 12 9 7 7 6 3 1 0 0 0 0 0 0 0 0 0 0

GEFSSGP_con_prob3kmehi_084.txt.gz
EHI
2 9 16 16 11 8 3 0 0 1 2 2 1 2 8 14 14 9 8 27 54 52 39 43 43 24 6 1 0 0 0 0 0 0 0 0 0 0 0 0 0 0 0 0 0 0 0 0 0
3 9 15 12 7 4 2 0 0 1 2 1 1 4 11 16 15 10 12 31 48 43 32 39 44 29 9 1 0 0 0 1 1 1 0 0 0 0 0 0 0 0 0 0 0 0 0 0 0
6 8 9 6 3 2 0 0 0 1 1 0 2 7 15 19 16 14 18 32 44 40 33 42 47 33 13 3 1 1 1 2 2 2 1 0 0 0 0 0 0 0 0 0 0 0 0 0 0
6 5 4 2 1 1 0 0 0 0 0 1 5 15 24 25 18 16 20 32 46 46 40 46 49 35 15 5 3 3 3 3 3 2 1 0 0 0 0 0 0 0 0 0 0 0 0 0 0
3 2 2 1 0 0 0 0 0 1 1 2 10 24 34 31 21 16 19 31 45 48 41 43 46 35 16 6 4 4 3 3 2 2 1 1 0 0 0 0 0 0 0 0 0 0 0 0 0
1 0 1 1 0 0 0 0 0 1 2 2 11 28 39 33 21 16 19 28 41 49 42 36 36 27 13 5 2 2 2 1 1 1 2 2 1 0 0 0 0 0 0 0 0 0 0 0 0
0 0 0 0 0 0 0 0 0 1 2 2 8 26 41 37 23 18 20 26 38 47 40 27 20 15 8 3 1 0 0 0 0 1 2 2 1 0 0 0 0 0 0 0 0 0 0 0 0
0 0 0 0 0 0 0 0 0 1 3 3 8 28 49 47 29 21 23 28 37 42 32 17 10 7 3 1 0 0 0 0 0 0 1 1 0 0 0 0 0 0 0 0 0 0 0 0 0
0 0 0 0 0 0 0 0 0 1 3 7 20 42 58 53 36 28 28 33 40 41 30 19 13 7 2 0 0 0 0 0 0 0 0 0 0 0 0 0 0 0 0 0 0 0 0 0 0
0 0 0 0 0 0 0 0 0 1 5 17 39 58 61 51 40 33 34 40 45 44 36 28 21 13 9 7 4 2 1 0 0 0 0 0 0 0 0 0 0 0 0 0 0 0 0 0 0
0 0 0 0 0 0 0 0 0 2 10 26 48 64 61 48 38 34 37 43 46 44 40 37 32 28 25 19 11 6 5 3 2 2 1 1 1 1 1 1 1 0 0 0 0 0 0 0 0
0 0 0 0 0 0 0 0 1 5 13 26 44 58 57 44 34 34 40 46 48 47 45 46 49 51 49 34 18 11 9 6 5 4 2 1 1 1 1 1 1 0 0 0 0 1 1 1 1
0 0 0 0 0 0 0 0 3 9 17 23 35 48 48 39 33 35 42 51 55 55 56 60 65 68 66 51 30 20 15 10 7 5 2 1 1 1 1 1 1 1 0 1 2 3 4 4 2
0 0 0 0 0 0 0 0 5 14 19 19 28 42 42 36 33 35 42 51 59 64 67 70 70 68 66 55 39 27 18 12 8 6 3 1 1 1 1 2 2 1 1 3 3 3 5 4 2
0 0 0 0 0 0 0 3 10 19 19 19 27 38 41 38 36 36 40 49 60 67 70 66 59 55 53 44 34 24 16 11 8 6 4 2 1 2 1 1 1 1 1 2 2 2 3 2 1
0 0 0 0 0 0 1 7 17 21 19 23 30 37 42 41 39 40 43 49 59 66 66 57 48 47 43 36 27 21 15 11 7 4 4 2 1 1 1 1 0 0 0 0 1 1 1 0 0
0 0 0 0 0 0 1 9 19 20 19 25 32 39 44 42 40 42 43 47 55 61 60 52 47 46 42 35 28 24 19 12 6 4 4 3 1 1 1 1 1 1 0 0 1 2 1 0 0
0 0 0 0 0 0 1 8 18 20 20 26 35 43 44 39 36 37 37 39 45 50 52 49 46 44 40 34 30 25 18 10 4 4 5 4 2 2 2 1 1 1 0 1 3 3 2 0 0
0 0 0 0 0 0 1 7 17 22 22 27 37 44 42 36 32 32 31 32 34 38 43 45 40 36 34 31 27 21 12 5 2 3 5 3 1 1 1 1 0 0 1 3 4 3 1 0 0
0 0 0 0 0 0 1 6 16 22 22 25 34 39 38 35 31 29 29 29 29 31 34 35 32 29 27 25 20 15 8 3 2 4 5 2 0 0 0 0 0 0 2 3 4 2 1 0 0
0 0 0 0 0 0 0 5 14 19 19 22 26 30 31 31 29 26 25 26 25 24 24 24 24 26 25 20 14 10 6 3 3 5 4 2 0 0 0 0 0 0 1 2 3 2 1 0 0
0 0 0 0 0 0 0 3 9 14 17 18 20 24 27 29 26 22 21 22 21 19 18 18 22 27 26 19 12 7 4 2 3 4 5 3 0 0 0 0 0 0 1 2 3 2 1 0 0
0 0 0 0 0 0 0 1 5 9 11 13 16 22 27 28 25 21 20 20 19 17 19 23 28 32 28 19 12 6 2 2 2 5 7 5 1 0 0 0 1 1 1 2 3 2 1 0 0
0 0 0 0 0 0 0 0 2 3 5 8 13 20 25 25 23 22 21 21 20 19 24 32 36 37 30 21 14 8 3 3 4 5 7 5 1 1 2 3 3 3 2 3 3 1 0 0 0
0 0 0 0 0 0 0 0 1 1 2 4 9 15 18 18 18 20 23 25 24 24 30 38 41 40 33 23 16 10 5 4 5 4 3 2 1 4 7 8 7 5 3 3 2 1 0 0 0
0 0 0 0 0 0 0 1 1 0 0 2 6 8 10 11 13 17 23 27 27 27 34 42 44 43 37 27 20 13 6 3 3 3 2 2 1 6 13 13 9 6 4 3 2 1 0 0 0
0 0 0 1 0 0 0 1 1 0 0 2 5 5 6 9 12 16 22 27 30 33 38 43 46 46 39 30 23 15 7 3 2 3 3 3 3 8 16 15 10 7 4 3 2 1 0 0 0
0 0 0 0 0 0 0 1 1 0 0 2 5 5 5 6 11 18 23 28 33 38 42 44 47 47 39 29 22 15 11 10 8 7 7 7 9 13 18 16 11 8 5 3 2 1 0 0 0
0 0 0 0 0 0 0 0 0 0 0 1 3 6 7 7 10 17 25 30 32 38 45 48 49 46 38 29 24 21 20 20 17 15 16 20 22 25 26 21 14 9 6 4 3 1 0 0 0
0 0 0 0 0 0 0 0 0 0 0 0 1 5 9 11 12 16 23 29 29 33 46 52 50 45 38 32 29 28 27 26 23 22 26 32 36 37 34 26 17 10 7 6 4 2 1 0 0

GEFSSGP_con_prob3kmehi_090.txt.gz
EHI
3 1 1 0 0 0 0 0 0 0 1 5 9 9 5 2 2 2 6 18 36 45 43 47 55 51 33 16 6 1 0 0 0 0 0 0 0 0 0 0 0 0 0 0 0 0 0 0 0
1 1 1 0 0 0 0 0 0 1 3 8 15 15 7 2 4 6 12 25 41 48 45 48 57 52 34 17 6 1 0 0 0 0 0 0 0 0 0 0 0 0 0 0 0 0 0 0 0
0 0 0 0 0 0 0 0 1 4 7 14 25 24 12 5 8 14 24 38 49 52 51 54 59 53 35 18 7 1 0 0 0 0 0 0 0 0 0 0 0 0 0 0 0 0 0 0 0
0 0 0 0 0 0 0 0 2 6 12 23 36 34 20 13 18 28 40 50 56 59 59 59 60 52 35 20 9 2 0 0 0 0 0 0 0 0 0 0 0 0 0 0 0 0 0 0 0
1 0 0 0 0 0 1 1 4 9 18 32 43 38 24 23 38 51 55 56 60 65 63 61 59 52 38 24 11 4 1 1 0 0 0 0 0 0 0 0 0 0 0 0 0 0 0 0 0
1 0 0 0 0 0 1 3 7 13 23 35 43 39 28 34 54 67 64 60 62 67 66 62 58 50 38 25 12 5 2 1 0 0 0 0 0 0 0 0 0 0 0 0 0 0 0 0 0
1 0 0 0 0 0 1 4 8 14 23 35 44 43 35 41 58 67 63 58 59 65 68 63 54 43 32 20 9 4 2 1 0 0 0 0 0 0 0 0 0 0 0 0 0 0 0 0 0
0 0 0 0 0 0 1 4 8 15 26 40 50 51 45 48 59 62 55 50 50 56 60 56 47 36 24 14 7 2 1 1 0 0 0 0 0 0 0 0 0 0 0 0 0 0 0 0 0
0 0 0 0 0 0 1 3 9 21 37 51 59 59 55 56 62 61 53 45 40 40 42 41 37 29 19 11 6 2 0 0 0 0 0 0 0 0 0 0 0 0 0 0 0 0 0 0 0
0 0 0 0 0 0 0 2 11 28 46 57 63 63 60 60 62 61 55 45 34 28 27 26 25 21 15 10 5 2 0 0 0 0 0 0 0 0 0 0 0 0 0 0 0 0 0 0 0
0 0 0 0 0 0 0 3 13 29 44 55 61 61 60 59 58 57 53 43 30 23 20 18 18 16 12 9 5 2 1 0 0 0 0 0 0 0 0 0 0 0 0 0 0 0 0 0 0
0 0 0 0 0 0 1 5 14 27 41 54 60 59 57 55 52 51 49 41 30 22 16 14 14 13 10 8 6 3 2 1 0 0 0 0 0 0 0 0 0 0 0 0 0 0 0 0 0
0 0 0 0 0 0 2 6 16 30 46 57 60 57 52 47 45 47 48 42 31 20 12 11 12 11 9 8 6 4 2 1 0 0 0 0 0 0 0 0 0 0 0 0 0 0 0 0 0
0 0 0 0 0 0 1 6 17 34 49 56 56 53 48 43 40 44 47 41 30 20 14 12 13 12 11 9 6 4 3 1 0 0 0 0 0 0 0 0 0 0 0 0 0 0 0 0 0
0 0 0 0 0 0 1 5 16 34 48 52 52 52 49 43 38 40 41 36 28 23 19 17 15 14 13 10 6 4 4 2 1 0 0 0 0 0 0 0 0 0 0 0 0 0 0 0 0
0 0 0 0 0 0 0 4 15 32 45 51 53 53 49 42 37 37 36 31 27 25 23 22 20 17 14 11 7 5 5 3 1 0 0 0 0 0 0 0 0 0 0 0 0 0 0 0 0
0 0 0 0 0 0 0 4 15 29 40 47 50 49 44 37 34 34 33 28 25 25 26 26 25 21 17 13 9 7 5 3 1 0 0 0 0 0 0 0 0 0 0 0 0 0 0 0 0
0 0 0 0 0 0 0 4 13 25 35 40 43 43 38 33 29 30 30 26 23 26 28 27 25 22 18 14 11 8 5 3 1 0 0 0 0 0 0 0 0 0 0 0 0 0 0 0 0
0 0 0 0 0 0 2 4 9 19 27 33 38 39 35 30 26 25 24 22 21 23 25 24 21 17 14 12 10 6 3 1 1 0 0 0 0 0 0 0 0 0 0 0 0 0 0 0 0
0 0 0 0 0 1 4 5 6 11 16 25 35 38 35 30 25 20 17 15 16 18 21 21 19 13 10 8 6 3 0 0 0 0 0 0 0 0 0 0 0 0 0 0 0 0 0 0 0
0 0 0 0 0 1 3 4 4 5 8 16 27 34 33 29 23 16 11 9 11 15 18 20 16 11 8 6 3 1 0 0 0 0 0 0 0 0 0 0 0 0 0 0 0 0 0 0 0
0 0 0 0 0 0 1 1 2 2 4 10 19 26 28 26 20 15 10 9 9 12 17 17 13 8 5 4 2 0 0 0 0 0 0 0 0 0 0 0 0 0 0 0 0 0 0 0 0
0 0 0 0 0 0 0 0 0 0 2 6 13 19 23 22 19 15 11 8 7 9 13 13 10 6 3 2 0 0 0 0 0 0 0 0 0 0 0 0 0 0 0 0 0 0 0 0 0
0 0 0 0 0 0 0 0 0 0 0 3 8 15 20 19 16 13 10 7 6 7 9 9 7 5 3 1 0 0 0 0 0 0 0 0 0 0 0 0 0 0 0 0 0 0 0 0 0
0 0 0 0 0 0 0 0 0 0 0 1 5 12 16 16 14 11 10 8 6 6 7 8 7 5 3 2 0 0 0 0 0 0 0 0 0 0 0 0 0 0 0 0 0 0 0 0 0
0 0 0 0 0 0 0 0 0 0 0 1 4 8 11 13 13 11 10 9 9 8 9 10 9 6 3 1 0 0 0 0 0 0 0 0 0 0 0 0 0 0 0 0 0 0 0 0 0
0 0 0 0 0 0 0 0 0 0 1 2 3 4 6 10 12 12 10 11 11 11 12 14 12 9 6 2 0 0 1 1 0 0 0 0 0 0 0 0 0 0 0 0 0 0 0 0 0
0 0 0 0 0 0 0 0 0 0 1 2 2 2 3 7 11 12 12 12 12 13 15 17 16 13 8 4 2 1 2 2 1 0 0 0 0 0 0 0 0 0 0 0 0 0 0 0 0
0 0 0 0 0 0 0 0 0 0 0 1 2 2 3 6 9 11 11 11 12 13 17 21 20 16 11 7 5 3 3 2 1 0 0 0 0 0 0 0 0 0 0 0 0 0 0 0 0
0 0 0 0 0 0 0 0 0 0 0 1 2 3 4 6 9 10 9 9 11 14 20 24 22 17 13 9 7 5 2 1 0 0 0 0 0 0 0 0 0 0 0 0 0 0 0 0 0

GEFSSGP_con_prob3kmehi_096.txt.gz
EHI
0 0 0 0 0 0 0 0 0 0 0 0 1 0 1 1 1 0 2 13 29 33 22 19 28 33 33 32 28 22 17 12 8 5 3 1 0 0 0 0 0 0 0 0 0 0 0 0 0
0 0 0 0 0 0 0 0 0 1 1 3 4 3 2 3 2 1 4 17 33 35 25 21 30 33 28 25 22 21 17 12 7 5 2 0 0 0 0 0 0 0 0 0 0 0 0 0 0
0 0 0 0 0 0 0 0 1 3 4 8 10 8 4 4 3 3 11 26 39 38 27 24 32 33 24 19 17 17 15 9 5 3 1 0 0 0 0 0 0 0 0 0 0 0 0 0 0
0 0 0 0 0 0 0 0 3 7 10 16 19 13 7 5 6 11 24 39 45 39 29 29 34 31 23 18 16 14 11 5 2 2 2 1 1 0 0 0 0 0 0 0 0 0 0 0 0
0 0 0 0 0 0 0 2 7 14 21 28 29 20 9 7 14 27 40 49 51 44 35 33 35 31 24 18 15 13 8 3 1 1 2 2 2 1 0 0 0 0 0 0 0 0 0 0 0
0 0 0 0 0 0 1 4 12 23 35 43 42 30 15 14 28 42 51 54 56 53 44 39 36 30 23 18 16 13 7 3 1 0 1 2 2 1 0 0 0 0 0 0 0 0 0 0 0
0 0 0 0 0 0 1 4 13 27 43 54 56 40 23 26 40 52 56 57 59 59 53 45 38 31 22 17 17 13 6 3 2 1 1 1 1 0 0 0 0 0 0 0 0 1 1 1 0
0 0 0 0 0 0 1 4 11 27 45 59 59 41 30 41 55 60 62 62 60 59 56 49 43 36 26 17 15 12 6 4 3 1 0 0 0 0 0 0 0 0 0 0 0 1 2 1 1
0 0 0 0 0 0 1 5 14 30 48 59 56 43 43 58 67 67 66 64 60 57 53 49 47 44 34 22 15 11 7 5 4 1 0 0 0 0 0 0 0 0 0 0 0 1 2 1 0
0 0 0 0 0 1 3 7 18 34 48 55 55 56 61 67 68 65 62 57 53 51 49 46 47 46 38 27 19 14 10 5 3 1 0 0 0 0 0 0 0 0 0 0 0 0 0 0 0
0 0 0 0 0 1 3 8 18 32 39 46 57 67 71 68 62 57 52 46 43 44 45 43 41 41 35 27 23 18 12 5 2 0 0 0 0 0 0 0 0 0 0 0 0 0 0 0 0
0 0 0 0 0 0 3 8 17 25 30 41 58 70 70 63 55 49 41 36 36 38 38 36 33 30 26 23 23 17 10 4 1 0 0 0 0 0 0 0 0 0 0 0 0 0 0 0 0
0 0 0 0 0 1 3 9 17 24 31 45 61 68 65 58 50 41 33 29 28 29 29 27 25 21 18 17 18 12 6 3 1 0 0 0 0 0 0 0 0 0 0 0 0 0 0 0 0
0 0 0 0 0 1 3 8 16 25 38 50 57 58 55 52 46 37 28 24 20 19 21 21 18 16 13 12 11 7 4 3 2 1 0 0 0 0 0 0 0 0 0 0 0 0 0 0 0
0 0 0 0 0 0 1 4 12 27 42 49 47 44 43 43 40 32 26 21 15 13 14 14 13 12 10 8 5 4 3 3 3 1 0 0 0 0 0 0 0 0 0 0 0 0 0 0 0
0 0 0 0 0 0 0 2 11 28 43 45 39 35 35 35 31 26 22 19 14 11 9 9 8 8 6 5 3 2 2 3 3 2 1 0 0 0 0 0 0 0 0 0 0 0 0 0 0
0 0 0 0 0 0 0 3 13 28 39 39 34 30 30 28 24 21 18 16 13 9 7 6 5 4 4 4 4 3 2 1 2 2 1 0 0 0 0 0 0 0 0 0 0 0 0 0 0
0 0 0 0 0 0 1 4 13 25 33 34 31 27 25 22 18 15 14 14 13 10 7 5 5 4 4 4 4 3 2 1 1 2 1 0 0 0 0 0 0 0 0 0 0 0 0 0 0
0 0 0 0 0 0 1 4 10 18 25 29 28 25 21 16 10 9 11 13 13 11 7 6 6 6 5 5 4 3 3 2 1 1 1 0 0 0 0 0 0 0 0 0 0 0 0 0 0
0 0 0 0 0 0 0 2 5 10 15 20 21 20 17 12 6 4 8 11 11 10 7 6 6 5 5 5 4 3 2 2 1 0 0 0 0 0 0 0 0 0 0 0 0 0 0 0 0
0 0 0 0 0 0 0 0 1 3 6 10 13 14 13 10 6 4 6 9 10 9 8 7 5 4 3 3 2 1 1 1 1 0 0 0 0 0 0 0 0 0 0 0 0 0 0 0 0
0 0 0 0 0 0 0 0 0 1 1 3 6 8 8 7 6 5 6 8 9 8 7 6 4 2 2 2 1 0 0 0 0 0 0 0 0 0 0 0 0 0 0 0 0 0 0 0 0
0 0 0 0 0 0 0 0 0 0 0 1 2 3 3 4 4 5 5 6 6 6 5 4 3 1 1 1 1 0 0 0 0 0 0 0 0 0 0 0 0 0 0 0 0 0 0 0 0
0 0 0 0 0 0 0 0 0 0 0 0 1 1 1 1 2 2 3 4 4 3 3 2 1 1 0 0 0 0 0 0 0 0 0 0 0 0 0 0 0 0 0 0 0 0 0 0 0
0 0 0 0 0 0 0 0 0 0 0 0 1 2 1 0 0 1 2 4 5 4 3 3 2 1 0 0 0 0 0 0 0 0 0 0 0 0 0 0 0 0 0 0 0 0 0 0 0
0 0 0 0 0 0 0 0 0 0 0 0 1 2 2 1 0 0 2 5 6 6 5 4 3 1 0 0 0 0 0 0 0 0 0 0 0 0 0 0 0 0 0 0 0 0 0 0 0
0 0 0 0 0 0 0 0 0 0 0 0 1 2 2 1 0 0 1 3 6 7 6 6 5 2 0 0 0 0 0 0 0 0 0 0 0 0 0 0 0 0 0 0 0 0 0 0 0
0 0 0 0 0 0 0 0 0 0 0 0 1 1 1 0 0 0 0 1 4 6 6 6 6 3 1 0 0 1 0 0 0 0 0 0 0 0 0 0 0 0 0 0 0 0 0 0 0
0 0 0 0 0 0 0 0 0 0 0 0 0 0 0 0 0 0 0 1 3 4 5 6 5 3 1 0 0 0 0 0 0 0 0 0 0 0 0 0 0 0 0 0 0 0 0 0 0
0 0 0 0 0 0 0 0 0 0 0 0 0 0 0 0 0 0 0 1 2 3 4 5 4 2 1 0 0 0 0 0 0 0 0 0 0 0 0 0 0 0 0 0 0 0 0 0 0

GEFSSGP_con_prob3kmehi_102.txt.gz
EHI
0 1 2 3 1 0 0 0 0 0 0 0 0 0 0 0 0 0 2 6 14 25 24 13 8 9 11 12 15 17 15 11 6 4 2 1 0 0 0 0 0 0 0 0 0 0 0 0 0
0 0 1 1 0 0 0 0 0 0 0 0 0 0 0 0 1 2 5 10 15 22 23 16 10 10 12 14 16 16 14 10 7 3 1 0 0 0 0 0 0 0 0 0 0 0 0 0 0
0 0 0 0 0 0 0 0 0 0 0 0 0 0 0 1 4 8 14 17 19 22 25 23 16 11 12 15 16 13 9 7 5 2 0 0 0 0 0 0 0 0 0 0 1 1 0 0 0
0 0 0 0 0 0 0 0 0 0 0 0 0 0 2 4 9 17 23 24 23 23 25 27 22 13 12 14 14 9 5 3 1 0 0 0 0 0 0 0 0 0 0 1 1 0 0 0 0
0 0 0 0 0 0 0 0 0 0 0 0 0 3 10 18 23 30 31 26 23 20 21 27 26 16 11 12 11 6 3 2 0 1 1 1 1 0 0 0 0 0 0 0 0 0 0 0 0
0 0 0 0 0 0 0 0 0 0 0 0 0 7 25 41 48 47 38 26 18 15 19 27 25 14 8 8 7 4 3 2 1 1 1 1 0 0 0 0 0 0 0 0 0 1 0 0 0
0 0 0 0 0 0 0 0 0 0 2 4 3 12 37 61 69 62 47 29 17 13 19 23 17 8 5 4 4 3 2 1 0 1 1 0 0 0 0 0 0 0 0 0 0 0 0 0 0
0 0 0 0 0 0 0 0 1 1 4 10 10 18 47 74 80 73 61 45 30 20 18 18 12 6 4 3 3 4 2 1 0 0 0 0 0 0 0 0 0 0 0 0 0 0 0 0 0
0 0 0 0 0 0 0 1 2 2 7 16 22 35 62 83 87 83 77 67 53 36 24 18 14 10 6 4 5 4 2 1 0 1 1 1 0 0 0 0 0 0 0 0 0 0 0 0 0
0 0 0 0 0 0 0 1 2 2 7 17 34 57 77 87 88 87 83 76 66 53 38 28 22 19 13 10 11 8 5 3 2 1 3 3 2 2 1 1 0 0 0 0 0 0 0 0 0
0 0 0 0 0 0 0 1 1 1 6 15 37 66 84 87 86 85 80 73 65 57 49 38 31 26 21 20 19 15 11 8 5 4 4 4 3 3 3 2 1 0 0 0 0 0 0 0 0
0 0 0 0 0 0 0 0 0 3 8 16 35 64 81 83 81 80 76 69 60 53 49 42 35 30 27 28 26 20 14 10 8 8 6 4 3 3 3 2 1 0 0 0 0 0 0 0 0
0 0 0 0 0 0 0 0 1 7 14 22 38 60 73 74 73 72 68 62 54 49 45 40 35 31 30 31 29 22 15 10 9 9 6 3 3 3 1 1 0 0 0 0 0 0 0 0 0
0 0 0 0 0 0 0 0 4 11 19 27 40 54 61 62 63 61 58 53 47 44 41 36 31 27 26 26 24 19 14 9 8 8 5 2 2 2 1 0 0 0 0 0 0 0 0 0 0
0 0 0 0 0 0 0 2 8 16 20 25 34 43 48 51 53 52 50 45 38 36 36 32 26 21 18 16 15 13 10 7 8 9 6 2 1 1 0 0 0 0 0 1 1 1 0 0 0
0 0 0 0 0 0 0 4 13 17 17 20 27 34 41 46 46 45 43 36 29 28 29 27 22 17 13 12 10 9 8 7 9 11 8 3 0 0 0 0 0 0 0 1 1 1 0 0 0
0 0 0 0 0 0 0 4 12 15 15 17 22 28 37 43 43 41 36 28 22 21 22 21 18 16 14 13 12 10 10 9 10 10 8 4 1 0 0 0 0 0 0 0 0 0 0 0 0
0 0 0 0 0 0 0 3 8 12 14 17 21 27 33 36 38 37 30 21 17 17 18 17 16 17 18 17 15 14 12 11 10 8 6 4 2 1 1 0 0 0 0 0 0 0 0 0 0
0 0 0 0 0 0 0 1 6 11 15 17 21 27 30 29 30 32 25 17 15 17 17 15 14 17 20 19 17 16 14 13 10 5 3 3 2 2 1 0 0 0 0 0 0 0 0 0 0
0 0 0 0 0 0 0 1 6 11 14 16 17 22 25 25 26 26 22 16 15 16 16 14 13 16 18 18 17 16 14 13 9 4 1 1 1 1 0 0 0 0 0 0 0 0 0 0 0
0 0 0 0 0 0 0 2 7 11 13 13 13 15 19 22 24 24 19 16 15 14 13 12 13 15 16 16 15 13 11 10 8 5 2 0 1 1 1 0 0 0 0 0 0 0 0 0 0
0 0 0 0 0 0 0 1 5 8 9 9 11 13 16 18 20 21 19 15 12 10 9 9 11 13 15 14 12 9 8 7 6 4 2 0 1 2 1 0 0 0 0 0 0 0 0 0 0
0 0 0 0 0 0 0 0 2 3 4 5 9 13 16 16 16 18 17 14 10 7 6 6 8 10 11 10 8 7 6 6 4 2 2 1 1 1 1 1 0 0 0 0 0 0 0 0 0
0 0 0 0 0 0 0 0 0 0 0 2 7 13 16 14 13 14 16 14 9 5 4 4 6 9 8 6 4 4 4 4 2 2 2 2 1 0 1 1 1 0 0 0 0 0 0 0 0
0 0 0 0 0 0 0 0 0 0 0 1 5 12 15 12 11 12 15 15 11 7 5 5 7 9 7 5 3 2 2 1 1 1 2 2 1 0 1 1 1 0 0 0 0 0 0 0 0
0 0 0 0 0 0 0 0 0 0 0 0 5 11 14 13 11 11 12 14 12 10 8 7 8 9 9 7 4 3 1 0 0 1 1 1 0 0 0 0 0 0 0 0 0 0 0 0 0
0 0 0 0 0 0 0 0 0 0 0 1 5 10 14 14 12 11 10 10 12 12 10 9 9 9 10 9 7 4 2 1 1 2 1 0 0 0 0 0 0 0 0 0 0 0 0 0 0
0 0 0 0 0 0 0 0 0 0 0 2 6 10 12 12 11 10 7 7 10 12 10 9 9 9 9 9 7 4 2 2 2 2 2 0 0 0 0 0 0 0 0 0 0 0 0 0 0
0 0 0 0 0 0 0 0 0 0 1 4 7 9 10 10 9 8 6 5 7 9 10 10 10 9 9 9 7 5 3 2 2 3 2 1 0 0 0 0 0 0 0 0 0 0 0 0 0
0 0 0 0 0 0 0 0 0 0 2 5 8 8 8 8 9 8 6 4 5 7 9 10 11 10 10 10 8 6 4 3 2 3 3 2 1 0 0 0 0 0 0 0 0 0 0 0 0

GEFSSGP_con_prob3kmehi_108.txt.gz
EHI
9 17 33 39 29 15 4 0 0 0 0 0 0 0 0 0 1 2 13 44 77 79 67 64 54 31 12 5 2 1 0 0 0 0 0 0 0 0 0 0 0 0 0 0 0 0 0 0 0
8 18 30 30 20 9 2 0 0 0 0 0 0 0 0 0 1 7 23 55 77 72 59 59 53 32 14 7 3 1 0 0 0 0 0 0 0 0 0 0 0 0 0 0 0 0 0 0 0
7 15 20 17 10 3 0 0 0 0 0 0 0 1 2 1 4 16 39 66 76 65 56 59 52 33 16 8 4 1 0 0 0 0 0 0 0 0 0 0 0 0 0 0 0 0 0 0 0
8 11 12 9 4 1 0 0 0 0 0 0 1 5 8 7 13 29 48 65 73 66 60 60 51 33 17 8 3 1 0 0 0 0 0 0 0 0 0 0 0 0 0 0 0 0 0 0 0
8 8 7 5 1 0 0 0 0 0 0 0 3 13 20 21 26 37 46 59 71 71 63 59 51 35 18 7 2 1 0 1 0 0 0 0 0 0 0 0 0 0 0 0 0 0 0 0 0
3 3 2 2 0 0 0 0 0 0 0 0 5 21 33 36 37 39 40 53 71 76 68 60 50 35 22 10 3 0 0 0 0 0 0 0 0 0 0 0 0 0 0 0 0 0 0 0 0
0 0 0 0 0 0 0 0 0 0 0 0 6 24 42 48 44 40 40 52 72 80 72 60 47 34 23 12 4 1 0 0 0 0 0 0 0 0 0 0 0 0 0 0 0 0 0 0 0
0 0 0 0 0 0 0 0 0 0 1 2 7 24 49 58 53 48 49 60 76 80 69 56 44 33 20 10 4 1 1 1 1 0 0 0 0 0 0 0 0 0 0 0 0 0 0 0 0
0 0 0 0 0 0 0 0 0 1 3 6 15 33 53 64 63 61 62 69 80 80 66 51 42 31 17 8 5 3 1 1 1 0 0 0 0 0 0 0 0 0 0 0 0 0 0 0 0
0 0 0 0 0 0 0 0 0 1 3 11 29 48 61 66 69 71 71 72 78 78 65 52 43 31 19 15 13 7 3 2 1 0 0 0 0 0 0 1 0 0 0 0 0 0 0 0 0
0 0 0 0 0 0 0 0 0 1 3 13 36 59 68 71 73 75 74 71 73 75 68 57 48 38 31 29 22 12 6 3 2 2 1 0 0 1 1 1 0 0 0 0 0 0 0 0 0
0 0 0 0 0 0 0 0 2 4 6 15 36 59 71 77 77 76 75 74 74 74 70 64 57 52 51 45 29 15 10 7 7 8 5 1 1 3 4 3 2 1 1 1 0 0 0 0 0
0 0 0 0 0 0 0 1 4 8 12 20 35 53 68 76 77 74 74 77 79 75 71 67 65 64 64 56 38 24 18 15 16 16 10 5 4 7 8 7 4 2 1 1 0 0 0 1 1
0 0 0 0 0 0 0 2 6 12 17 23 34 49 62 69 72 72 74 78 77 74 71 69 69 67 65 57 44 34 27 23 22 20 15 10 9 12 12 8 5 3 3 2 1 0 0 1 1
0 0 0 0 0 0 0 2 7 14 19 24 35 49 59 65 69 71 74 75 72 70 70 70 68 64 59 51 42 35 28 22 21 21 18 13 13 16 13 8 3 3 4 3 1 0 0 0 1
0 0 0 0 0 0 0 3 10 14 18 25 38 50 61 68 69 67 69 70 68 66 66 67 65 60 53 44 36 30 27 25 25 24 20 17 16 15 11 6 3 2 2 1 1 0 0 0 0
0 0 0 0 0 0 0 4 11 14 16 26 40 54 65 70 68 64 63 64 64 64 62 61 59 54 46 39 31 28 31 35 33 29 24 21 18 14 9 6 5 3 1 0 0 1 1 0 0
0 0 0 0 0 0 0 3 9 13 16 27 43 58 68 69 66 63 59 58 59 59 56 54 51 45 39 34 29 28 33 37 35 31 27 22 16 12 9 6 5 4 2 1 1 2 1 1 1
0 0 0 0 0 0 0 3 9 12 16 26 42 57 67 68 66 64 59 55 53 53 50 46 41 36 31 30 30 30 31 32 31 30 26 19 13 11 8 6 4 3 3 3 2 2 1 0 0
0 0 0 0 0 0 0 4 11 12 14 23 36 50 61 66 67 65 60 53 49 46 44 40 35 31 28 27 30 31 30 27 27 27 23 16 12 9 7 6 5 3 3 3 3 2 1 0 0
0 0 0 0 0 0 0 5 11 12 12 19 30 41 52 61 65 65 60 51 45 41 38 36 33 31 28 27 28 28 27 25 25 25 20 14 11 8 6 5 5 3 3 3 3 2 1 0 0
0 0 0 0 0 0 0 3 8 9 10 15 25 36 46 54 62 64 58 49 42 37 33 31 30 29 28 28 28 26 25 23 23 22 18 14 11 8 5 5 5 4 3 4 4 3 1 0 0
0 0 0 0 0 0 0 1 3 5 7 13 23 34 46 53 58 59 53 45 39 34 31 28 27 25 25 26 26 26 24 22 22 21 18 14 12 9 6 5 5 4 4 5 5 3 1 0 0
0 0 0 0 0 0 0 0 0 1 5 11 21 35 47 53 55 53 48 43 39 34 29 26 25 22 20 20 22 23 23 22 21 20 17 14 11 9 6 5 5 5 6 6 5 3 1 0 0
0 0 0 0 0 0 0 0 0 0 2 8 20 35 46 51 52 50 48 45 40 35 30 26 23 19 15 14 18 22 22 20 19 18 16 12 8 7 7 7 6 6 5 4 3 2 1 0 0
0 0 0 0 0 0 0 1 1 0 1 6 18 32 42 46 49 50 48 44 40 36 32 27 23 20 15 14 16 21 22 18 15 16 13 8 5 7 10 10 7 5 3 3 3 1 0 0 0
0 0 0 0 0 0 0 1 2 1 1 5 15 27 34 39 46 48 45 40 36 35 32 28 25 24 21 16 15 18 20 18 15 15 11 6 4 7 11 11 8 4 2 3 3 1 1 1 1
0 0 0 0 0 0 0 1 2 2 2 5 13 24 30 34 42 46 43 37 33 31 30 28 27 26 24 19 15 15 17 18 17 14 9 5 5 8 10 10 7 4 3 3 3 1 1 2 2
0 0 0 0 0 0 0 0 1 2 3 6 13 25 31 33 39 45 44 36 32 29 27 28 27 25 24 20 17 17 17 18 16 12 8 6 7 9 9 8 6 3 2 2 2 1 1 2 2
0 0 0 0 0 0 0 0 1 2 4 7 15 27 32 33 38 46 46 38 31 27 26 28 27 24 22 20 19 19 17 16 14 11 8 7 9 9 8 7 4 2 1 2 3 2 1 1 3

GEFSSGP_con_prob3kmehi_114.txt.gz
EHI
11 4 0 0 0 0 0 0 0 0 0 1 2 2 1 1 1 2 12 35 58 61 49 48 56 52 35 17 4 0 0 0 0 0 0 1 1 1 0 0 0 0 0 0 0 0 0 0 0
4 2 0 0 0 0 0 0 0 0 1 3 3 2 2 4 6 9 20 44 65 67 56 54 60 57 41 21 6 0 0 0 0 0 0 0 0 0 0 0 0 0 0 0 0 0 0 0 0
0 1 2 1 1 1 1 1 0 1 3 6 6 3 3 10 18 23 36 60 76 74 63 62 66 61 46 27 10 2 0 0 0 0 0 0 0 0 0 0 0 0 0 0 0 0 0 0 0
1 2 3 2 2 2 2 1 1 2 7 14 15 9 7 20 37 48 61 76 83 78 67 65 69 61 46 30 14 3 0 0 0 0 0 0 0 0 0 0 0 0 0 0 0 0 0 0 0
1 2 2 1 1 1 1 1 2 7 16 25 26 18 17 34 59 74 78 82 85 80 68 63 65 60 46 31 15 4 0 0 0 0 0 0 0 0 0 0 0 0 0 0 0 0 0 0 0
0 1 1 0 0 0 0 0 3 13 24 32 33 26 27 48 72 81 79 77 80 80 70 60 58 54 45 32 16 5 1 0 0 0 0 0 0 0 0 0 0 0 0 0 0 0 0 0 0
0 0 0 0 0 0 0 0 4 13 24 33 38 33 35 54 73 78 75 72 74 77 72 62 53 45 37 26 16 7 2 0 0 0 0 0 0 0 0 0 0 0 0 0 0 0 0 0 0
0 0 0 0 0 0 0 1 5 13 22 33 40 38 39 55 73 80 77 73 72 72 70 64 53 41 28 19 13 8 3 1 0 0 0 0 0 0 0 0 0 0 0 0 0 0 0 0 0
0 0 0 0 0 0 0 3 9 17 26 34 42 43 49 63 77 84 83 78 74 70 67 63 57 46 30 18 13 9 4 1 0 0 0 0 0 0 0 0 0 0 0 0 0 1 1 0 0
0 0 0 0 0 0 1 4 11 21 29 38 46 53 61 72 80 84 86 84 77 71 64 59 56 49 35 21 14 9 5 3 1 0 0 0 0 0 0 0 0 0 0 0 0 1 1 0 0
0 0 0 0 0 1 2 5 11 19 27 38 52 60 66 73 79 83 86 85 77 68 60 53 50 45 33 22 16 10 5 3 2 1 0 0 0 0 0 0 0 0 0 0 0 1 1 0 0
0 0 0 0 0 1 3 5 10 16 25 41 57 63 65 69 75 80 82 80 71 59 52 46 42 36 27 21 14 8 5 3 2 1 0 0 0 0 0 0 0 0 0 0 0 0 0 0 0
0 0 0 0 0 1 2 5 10 18 32 51 62 64 64 67 71 73 75 72 63 52 44 39 34 28 23 17 11 7 4 3 2 1 0 0 0 0 0 0 0 0 0 0 0 0 0 0 0
0 0 0 0 0 0 1 4 10 21 41 58 65 64 63 64 65 67 68 64 57 49 41 33 28 25 20 15 9 6 3 2 1 0 0 0 0 0 0 0 0 0 0 0 0 0 0 0 0
0 0 0 0 0 0 1 3 10 23 42 58 63 62 60 60 59 62 63 59 53 48 41 33 26 25 22 16 10 6 3 2 0 0 0 0 0 0 0 0 0 0 0 0 0 0 0 0 0
0 0 0 0 0 0 1 3 10 23 38 50 58 60 60 59 57 58 60 56 50 46 41 35 31 29 26 19 12 8 5 3 1 1 0 1 1 1 0 0 0 0 0 0 0 0 0 0 0
0 0 0 0 0 0 1 5 12 23 34 44 55 61 63 61 57 56 57 54 49 45 44 41 38 35 29 20 13 10 8 5 3 2 1 1 2 2 1 0 0 0 0 0 0 0 0 0 0
0 0 0 0 0 0 2 7 15 25 34 44 55 62 63 60 54 52 52 51 49 46 45 44 40 36 28 18 13 12 10 8 7 5 2 2 3 3 2 1 0 0 0 0 0 0 0 0 0
0 0 0 0 0 0 3 8 15 25 35 44 54 60 60 56 52 49 48 48 46 44 42 41 37 31 24 17 14 13 11 11 11 8 4 3 3 4 3 2 1 0 0 0 0 0 0 0 0
0 0 0 0 1 0 2 5 10 19 29 38 49 54 55 54 51 49 46 45 43 40 37 35 29 25 21 18 15 13 12 11 10 8 6 4 4 5 4 3 2 1 0 0 0 0 0 0 0
0 0 0 0 0 0 1 2 5 12 19 28 39 46 49 49 48 46 44 43 41 38 33 28 23 20 20 18 16 14 13 11 9 9 8 6 6 5 4 3 3 1 0 0 0 0 0 0 0
0 0 0 0 0 0 0 1 3 6 10 17 26 37 42 40 39 40 41 41 40 36 29 23 19 18 19 17 15 15 14 12 10 9 9 7 6 6 4 3 3 2 1 0 0 0 0 0 0
0 0 0 0 0 0 0 1 2 3 5 8 15 27 34 32 31 35 36 35 35 33 27 21 17 16 16 14 12 11 11 9 8 8 8 7 6 6 4 2 2 2 1 0 0 0 0 0 0
0 0 0 0 0 0 0 0 0 1 2 4 9 18 25 27 28 30 30 29 28 28 24 18 15 14 13 11 8 6 5 4 3 4 5 5 6 5 3 2 2 1 1 0 0 0 0 0 0
0 0 0 0 0 0 0 0 0 0 1 4 9 15 20 26 27 26 24 24 24 24 20 14 12 11 10 8 5 3 2 1 0 1 1 2 3 3 2 2 2 1 0 0 0 0 0 0 0
0 0 0 0 0 0 0 0 0 1 2 5 10 15 21 26 27 24 20 20 21 20 17 12 10 8 7 5 4 3 2 1 0 0 0 0 1 1 1 1 2 1 0 0 0 0 0 0 0
0 0 0 0 0 0 0 0 0 1 2 5 10 15 20 25 27 23 18 17 17 17 13 10 7 6 5 4 3 3 3 1 0 0 0 0 0 0 0 0 1 1 1 0 0 0 0 0 0
0 0 0 0 0 0 0 0 0 0 1 4 8 13 16 21 24 22 17 15 15 15 12 9 7 6 6 6 4 3 3 2 1 0 0 0 0 0 0 0 0 1 1 0 0 0 0 0 0
0 0 0 0 0 0 0 0 0 0 1 3 7 10 11 14 19 19 15 14 15 16 13 10 8 8 8 8 6 4 3 3 2 1 0 0 0 0 0 0 0 0 0 0 0 0 0 0 0
0 0 0 0 0 0 0 0 0 0 1 4 8 10 9 11 16 17 14 13 16 17 14 11 11 11 10 9 7 5 3 3 2 1 0 0 0 0 0 0 0 0 0 0 0 0 0 0 0

GEFSSGP_con_prob3kmehi_120.txt.gz
EHI
1 1 0 0 0 0 0 0 0 0 0 0 1 1 1 1 3 3 3 12 27 29 21 24 36 43 45 42 37 34 33 28 20 13 7 3 1 0 0 0 0 0 0 0 0 0 0 0 0
1 0 0 0 0 0 0 0 0 0 0 1 2 2 2 3 4 4 5 18 34 35 26 28 39 46 46 41 34 29 27 23 15 8 4 1 0 0 0 0 0 0 0 0 0 0 0 0 0
0 0 0 0 0 0 0 0 0 0 0 1 2 2 3 6 7 8 14 31 45 43 32 35 46 50 46 40 31 24 21 16 9 3 0 0 0 0 0 0 0 0 0 0 0 0 0 0 0
0 0 0 0 0 0 0 0 0 0 0 2 4 4 4 6 11 19 33 49 57 49 38 42 52 53 47 41 32 23 17 12 6 2 0 0 0 0 0 0 0 0 0 0 0 0 0 0 0
0 0 0 0 0 0 0 0 1 2 3 5 8 8 5 9 21 38 52 63 67 59 45 46 55 55 47 40 31 22 14 10 6 3 1 0 0 0 0 0 0 0 0 0 0 0 0 0 0
0 0 0 0 0 0 0 1 3 6 12 16 17 15 11 17 37 54 61 66 70 67 55 48 51 51 43 34 25 17 11 8 5 3 1 0 0 0 0 0 0 0 0 0 0 0 0 0 0
0 0 0 0 0 0 0 1 4 13 23 28 28 25 22 30 49 62 64 66 70 69 61 50 44 42 35 25 18 14 9 6 4 3 2 1 1 0 0 0 0 0 0 0 0 0 0 0 0
0 0 0 0 0 0 0 0 5 17 30 33 32 29 31 46 64 71 71 72 71 65 58 49 41 36 29 20 14 12 9 5 4 4 3 2 1 0 0 0 0 0 0 0 0 0 0 0 0
0 0 0 0 0 0 0 1 6 19 33 36 32 31 44 67 81 82 79 78 73 62 51 44 41 36 27 17 11 11 10 7 4 4 3 1 0 0 0 0 0 0 0 1 1 0 0 0 0
0 0 0 0 0 0 1 3 9 20 33 40 40 46 65 82 86 83 79 75 69 58 48 41 39 35 27 17 11 11 12 9 5 3 2 1 0 0 0 0 0 0 0 1 1 0 0 0 0
0 0 0 0 0 0 1 4 10 18 26 36 48 63 78 85 82 76 71 65 60 55 48 42 39 36 27 19 13 13 14 10 5 2 1 1 0 0 0 0 0 0 0 1 1 0 0 0 0
0 0 0 0 0 0 2 4 9 13 19 31 51 68 77 79 74 67 61 57 55 54 48 43 41 38 28 19 14 14 14 11 6 2 2 2 1 0 0 0 0 0 0 0 0 0 0 0 0
0 0 0 0 0 0 2 4 5 9 19 35 53 66 71 71 67 60 55 53 54 53 48 45 42 37 26 17 13 11 11 9 6 3 3 3 2 0 0 0 0 0 0 0 0 0 0 0 0
0 0 0 0 0 0 1 2 3 10 23 41 56 64 66 65 62 57 52 52 52 49 47 45 42 35 23 15 11 8 7 6 4 3 3 3 1 0 0 0 0 0 0 0 0 0 0 0 0
0 0 0 0 0 0 0 0 3 13 28 44 56 62 62 61 58 53 49 50 49 44 42 41 38 30 19 11 8 5 4 4 3 3 3 2 1 0 0 0 0 0 0 0 0 0 0 0 0
0 0 0 0 0 0 0 0 4 16 32 46 56 61 58 55 52 47 45 46 44 39 36 34 29 22 14 8 6 4 3 2 2 2 2 1 0 0 0 0 0 0 0 0 0 0 0 0 0
0 0 0 0 0 0 0 0 3 14 30 43 52 58 56 50 46 44 41 42 40 35 29 25 22 18 12 8 6 4 3 1 0 1 1 0 0 0 0 0 0 0 0 0 0 0 0 0 0
0 0 0 0 0 0 0 0 2 10 23 34 43 52 53 47 42 39 37 37 36 31 24 19 17 16 12 9 7 4 2 0 0 0 0 0 0 0 0 0 0 0 0 0 0 0 0 0 0
0 0 0 0 0 0 0 0 1 6 14 23 33 42 44 40 36 36 35 33 31 29 24 19 15 12 11 10 8 6 3 1 0 0 0 0 0 0 0 0 0 0 0 0 0 0 0 0 0
0 0 0 0 0 0 0 0 1 3 8 14 23 31 34 34 34 35 34 29 26 26 24 19 15 12 10 10 9 7 5 3 1 0 0 0 0 0 0 0 0 0 0 0 0 0 0 0 0
0 0 0 0 0 0 0 0 1 2 4 8 14 22 28 32 34 33 31 26 22 21 21 19 14 12 11 10 8 6 4 3 3 2 1 1 1 0 0 0 0 0 0 0 0 0 0 0 0
0 0 0 0 0 0 0 0 1 1 2 5 8 15 24 29 31 31 28 24 19 17 18 17 14 13 12 11 8 6 4 4 4 4 4 3 2 1 0 0 0 0 0 0 0 0 0 0 0
0 0 0 0 0 0 0 0 0 0 0 2 5 11 19 24 26 27 25 22 18 15 15 14 13 13 13 11 8 6 4 3 3 4 5 5 4 2 1 0 0 1 1 1 1 0 0 0 0
0 0 0 0 0 0 0 0 0 0 0 0 2 7 14 19 20 19 19 18 15 13 13 12 12 12 12 10 7 5 3 1 1 2 3 5 5 3 2 1 1 1 1 2 1 1 0 0 0
0 0 0 0 0 0 0 0 0 0 0 0 1 4 9 13 14 13 14 14 13 13 12 11 11 12 12 9 7 5 2 0 0 0 2 3 3 3 2 2 2 2 2 1 1 1 0 0 0
0 0 0 0 0 0 0 0 0 0 0 1 1 4 6 8 10 11 10 9 10 11 10 9 10 11 12 10 7 5 2 1 0 0 1 1 1 2 2 2 2 2 1 0 0 0 0 0 0
0 0 0 0 0 0 0 0 0 0 0 1 2 3 3 4 7 9 8 6 7 8 7 8 9 9 9 8 6 4 3 2 1 0 0 0 0 1 1 1 1 1 0 0 0 0 0 0 0
0 0 0 0 0 0 0 0 0 0 0 1 1 1 1 2 3 5 6 6 6 6 7 7 8 7 7 6 4 3 3 3 1 0 0 0 0 0 0 0 0 0 0 0 0 0 0 0 0
0 0 0 0 0 0 0 0 0 0 0 0 0 0 0 0 1 2 4 6 6 7 7 6 6 6 6 5 4 3 3 3 2 1 0 0 0 0 0 0 0 0 0 0 0 0 0 0 0
0 0 0 0 0 0 0 0 0 0 0 0 0 0 0 0 0 1 4 6 6 7 6 5 4 4 4 4 4 3 3 3 3 2 1 0 0 0 0 0 0 0 0 0 0 0 0 0 0

GEFSSGP_con_prob3kmehi_126.txt.gz
EHI
1 1 2 6 7 3 0 0 0 0 0 0 0 0 0 0 0 0 2 5 6 8 9 9 13 17 20 26 33 36 31 22 14 7 2 0 0 0 0 0 0 0 0 0 0 0 0 0 0
1 1 2 5 4 1 0 0 0 0 0 0 0 0 0 1 1 2 5 7 8 8 10 14 18 20 21 25 30 31 25 17 9 4 1 0 0 0 0 0 0 0 0 0 0 0 0 0 0
0 1 3 2 1 0 0 0 0 0 0 0 0 0 1 2 4 6 10 12 10 9 14 23 26 24 23 24 25 23 18 11 6 3 1 0 0 0 0 0 0 0 0 0 0 0 0 0 0
1 2 2 1 0 0 0 0 0 0 0 0 0 2 5 7 9 13 18 17 13 11 17 28 31 26 22 20 19 16 12 9 6 3 1 0 0 0 0 0 0 0 0 0 0 0 0 0 0
1 1 1 0 0 0 0 0 0 0 0 0 1 7 16 20 20 24 25 20 14 13 19 31 34 27 19 14 12 9 8 7 5 2 1 0 0 0 0 0 0 0 0 0 0 0 0 0 0
1 0 0 0 0 0 0 0 0 0 0 0 2 12 32 43 40 34 27 18 13 12 20 30 31 24 17 10 6 4 4 4 3 1 1 1 1 0 0 0 0 0 0 0 0 0 0 0 0
0 0 0 0 0 0 0 0 0 0 1 2 3 15 45 66 63 46 32 21 16 16 21 24 22 19 14 8 4 2 1 2 1 1 2 3 2 1 0 0 0 0 0 0 0 0 0 0 0
0 0 0 0 0 0 0 0 0 1 3 5 5 17 49 78 79 65 50 38 30 26 22 20 18 16 11 6 4 3 2 1 0 1 2 4 2 1 0 0 0 0 0 0 0 0 0 0 0
0 0 0 0 0 0 0 0 0 1 4 8 12 26 55 82 88 82 72 61 50 40 29 23 21 17 11 6 4 3 2 1 0 1 2 2 1 0 0 0 0 0 0 0 0 0 0 0 0
0 0 0 0 0 0 0 0 0 1 3 10 24 46 70 86 91 87 81 73 64 50 36 27 23 19 13 9 7 6 4 2 0 0 1 1 1 1 1 0 0 0 0 0 0 0 0 0 0
0 0 0 0 0 0 0 0 0 0 2 10 32 61 81 87 87 84 80 73 63 52 39 27 23 19 13 10 12 12 9 4 1 0 1 2 3 3 2 1 0 0 0 0 0 0 0 0 0
0 0 0 0 0 0 0 0 0 0 2 10 33 62 80 82 79 78 75 68 60 52 42 32 27 22 15 12 13 14 10 5 3 3 3 3 4 5 4 2 0 0 0 0 0 0 0 0 0
0 0 0 0 0 0 0 0 0 1 4 14 34 57 72 74 71 71 71 67 61 55 48 41 34 29 21 16 14 13 10 7 6 6 5 3 3 4 5 4 1 0 0 0 0 0 0 0 0
0 0 0 0 0 0 0 0 0 2 7 18 33 51 63 65 63 66 70 68 62 58 54 47 41 35 27 20 17 15 12 11 10 10 6 3 2 3 4 3 1 0 0 0 0 0 0 0 0
0 0 0 0 0 0 0 0 1 4 9 17 28 43 55 60 60 63 67 67 64 62 56 49 43 38 30 23 19 17 14 12 12 10 6 2 1 2 3 2 1 1 1 0 0 0 0 0 0
0 0 0 0 0 0 0 0 1 4 8 14 23 34 47 56 59 62 65 64 63 62 55 46 41 39 34 26 21 16 12 11 10 9 6 3 1 1 2 2 1 1 1 0 0 0 0 0 0
0 0 0 0 0 0 0 0 1 3 6 10 18 27 41 53 59 62 63 61 60 59 52 43 38 36 34 29 22 14 10 8 7 6 5 4 3 2 2 3 2 1 1 0 0 0 0 0 0
0 0 0 0 0 0 1 1 1 2 4 7 14 24 37 49 56 59 58 56 56 57 52 46 40 34 32 30 24 16 10 8 6 4 4 5 4 2 1 2 2 1 0 0 0 0 0 0 0
0 0 0 0 0 0 1 2 2 2 3 6 12 21 31 41 49 55 54 51 52 55 54 49 42 35 32 31 27 20 13 8 5 3 3 4 2 1 1 2 3 2 1 0 0 0 0 0 0
0 0 0 0 0 0 1 2 3 3 2 5 11 18 25 35 46 53 54 49 48 50 51 47 40 36 34 32 29 24 16 8 4 3 4 4 1 0 1 2 3 3 2 1 0 0 0 0 0
0 0 0 0 0 0 0 1 3 3 2 4 11 18 24 33 44 51 52 48 44 43 42 40 38 37 35 31 27 23 17 9 5 5 6 5 2 0 0 1 1 2 2 2 1 0 0 0 0
0 0 0 0 0 0 0 0 2 3 3 4 11 18 23 29 38 47 49 47 44 38 35 35 38 40 37 30 24 19 13 7 5 6 7 7 3 1 0 0 1 1 2 3 2 1 0 0 0
0 0 0 0 0 0 0 0 1 2 3 4 8 15 20 23 30 38 43 43 41 38 33 32 36 38 36 29 22 16 10 5 3 4 7 7 4 3 1 0 0 1 3 4 3 2 1 0 0
0 0 0 0 0 0 0 0 0 1 1 2 5 9 14 18 21 28 34 34 33 33 32 31 33 34 32 25 18 14 10 6 3 3 6 6 5 4 3 1 2 2 3 4 4 3 2 1 1
0 0 0 0 0 0 0 0 0 0 1 2 3 5 9 13 16 22 27 27 25 26 28 29 29 29 27 20 13 11 10 7 3 3 5 5 4 3 3 3 3 4 4 4 4 4 3 3 2
0 0 0 0 0 0 0 0 0 0 1 3 4 4 7 9 12 18 24 24 21 19 21 24 25 24 22 17 12 9 8 7 4 3 5 5 3 2 2 3 3 4 4 4 5 5 4 3 3
0 0 0 0 0 0 0 0 0 0 1 4 4 4 6 7 8 15 22 23 19 15 16 20 21 21 21 19 15 12 10 8 5 5 6 5 3 1 2 2 1 2 3 4 6 5 4 3 3
0 0 0 0 0 0 0 0 0 0 1 3 4 4 6 6 7 12 18 19 15 13 13 15 17 19 20 20 17 13 10 7 5 5 5 5 4 2 2 1 0 1 1 2 3 3 3 3 3
0 0 0 0 0 0 0 0 0 0 1 3 4 5 6 6 9 12 13 13 11 9 9 10 13 15 15 15 14 12 8 5 3 2 3 4 4 3 2 0 0 0 0 0 1 1 2 3 3
0 0 0 0 0 0 0 0 0 1 2 3 4 5 5 7 12 14 11 9 7 6 6 8 11 12 10 10 11 10 7 4 2 1 2 3 4 3 2 1 0 0 0 0 0 0 1 3 3

GEFSSGP_con_prob3kmehi_132.txt.gz
EHI
4 15 34 46 43 25 7 1 0 0 0 0 0 0 0 1 1 3 20 52 64 41 22 25 26 15 4 1 0 0 0 0 0 0 0 0 0 0 0 0 0 0 0 0 0 0 0 0 0
5 15 29 35 27 12 3 0 0 0 0 0 0 0 0 1 2 8 26 52 56 34 20 27 30 19 7 2 1 1 1 0 0 0 0 0 0 0 0 0 0 0 0 0 0 0 0 0 0
7 14 24 23 11 2 0 0 0 0 0 0 0 0 0 1 5 17 33 47 47 32 26 35 37 24 10 4 2 2 1 0 0 0 0 0 0 0 0 0 0 0 0 0 0 0 0 0 0
11 14 16 12 5 0 0 0 0 0 1 1 3 4 4 6 15 25 34 42 46 42 36 38 38 27 13 5 2 2 1 0 0 0 0 0 0 0 0 0 0 0 0 0 0 0 0 0 0
9 9 7 4 1 0 0 0 0 1 1 3 8 13 13 17 26 28 31 42 51 52 43 37 36 28 15 7 3 1 0 0 0 0 0 0 0 0 0 0 0 0 0 0 0 0 0 0 0
5 4 2 0 0 0 0 0 1 1 1 4 13 22 22 26 32 29 30 43 58 61 49 38 34 27 17 10 5 1 0 0 0 0 0 0 0 0 0 0 0 0 0 0 0 0 0 0 0
3 2 0 0 0 0 0 0 1 1 0 2 13 26 33 37 38 32 33 47 66 69 53 37 30 23 15 9 5 1 0 0 0 0 0 0 0 0 0 0 0 0 0 0 0 0 0 0 0
1 1 0 0 0 0 0 0 1 2 2 2 11 30 48 55 49 42 43 54 70 71 52 34 27 20 12 7 4 1 0 0 0 0 0 0 0 0 0 0 0 0 0 0 0 0 0 0 0
0 0 0 0 0 0 0 0 1 4 5 7 16 38 61 67 61 57 57 63 71 69 53 37 30 21 12 7 5 2 0 0 0 0 0 0 0 0 1 2 1 0 0 0 0 0 0 0 0
0 0 0 0 0 0 0 0 1 4 9 14 28 52 69 72 70 71 71 72 74 70 56 45 37 27 18 13 9 5 2 1 1 1 1 0 0 2 4 5 2 0 0 0 0 0 0 0 0
0 0 0 0 0 0 0 0 0 3 9 16 36 63 76 75 75 78 79 77 75 71 60 51 44 37 31 25 15 8 5 3 3 4 3 1 1 4 7 5 2 0 0 0 0 0 0 0 0
0 0 0 0 0 0 0 0 1 4 8 16 37 63 76 76 77 78 79 76 75 74 67 58 53 51 49 39 23 14 11 8 9 9 6 2 1 4 5 4 1 0 0 0 0 0 1 1 1
0 0 0 0 0 0 0 0 2 6 11 20 37 56 69 75 77 77 77 77 79 79 72 66 64 65 64 53 33 23 21 18 17 16 9 4 5 7 6 4 2 2 1 1 0 1 2 2 2
0 0 0 0 0 0 1 1 3 8 15 24 35 49 63 73 75 77 79 81 82 80 75 71 72 73 71 59 41 32 30 26 23 20 13 10 12 16 13 7 4 4 6 4 2 2 3 2 2
0 0 0 0 0 0 1 3 5 9 15 24 34 46 62 72 74 78 82 81 81 80 77 73 71 71 69 60 45 35 32 28 26 25 23 20 22 24 19 10 5 6 10 7 4 3 3 2 1
0 0 0 0 0 0 1 4 8 9 12 21 33 47 62 73 77 79 82 81 80 80 79 73 67 66 65 59 50 40 34 34 35 36 33 27 26 27 19 11 8 10 11 7 4 4 5 5 3
0 0 0 0 0 0 1 4 8 9 11 21 33 46 61 74 80 82 83 82 81 81 80 76 71 68 64 58 56 49 42 42 43 43 39 31 27 23 19 15 14 12 9 6 7 9 8 6 4
0 0 0 0 0 0 1 5 8 8 11 20 33 47 62 75 81 82 82 81 81 81 81 80 77 74 67 60 58 54 47 42 41 42 42 35 26 21 19 19 18 13 8 7 10 13 10 5 3
0 0 0 0 0 0 1 6 9 9 10 17 30 48 65 76 80 80 80 79 80 81 81 81 80 77 71 64 57 51 44 38 35 37 40 35 26 20 18 18 19 15 11 11 12 12 8 4 2
0 0 0 0 0 0 2 6 10 10 10 13 24 44 64 75 80 80 78 78 80 82 81 80 79 76 71 63 55 48 44 38 32 33 38 34 26 21 19 19 20 18 16 16 15 12 7 3 2
0 0 0 0 0 0 1 6 10 11 10 10 18 35 54 70 79 80 78 77 80 82 80 76 75 72 66 59 53 49 46 39 31 33 36 32 26 24 23 23 23 21 19 18 16 12 7 3 2
0 0 0 0 0 0 0 4 9 11 9 9 15 30 46 63 75 78 75 75 77 78 75 72 71 66 60 55 53 51 47 38 30 32 32 28 25 25 24 25 27 25 22 19 16 11 8 5 3
0 0 0 0 0 0 0 2 6 10 10 10 16 28 43 57 68 73 73 74 75 72 69 67 66 62 56 54 53 51 45 36 30 29 28 26 24 21 21 24 28 28 26 23 17 13 11 7 5
0 0 0 0 0 0 0 1 4 8 10 13 20 30 41 50 59 66 70 73 72 69 65 63 63 60 56 53 52 50 44 36 31 28 26 26 23 19 17 20 25 29 31 28 21 16 14 9 7
0 0 0 0 0 0 0 1 3 6 9 15 23 30 36 41 48 56 63 67 67 65 63 63 63 60 55 51 48 46 42 38 34 31 26 22 20 19 19 20 25 28 30 29 23 19 15 11 8
0 0 0 0 0 0 0 2 4 6 9 14 22 26 28 32 39 48 54 58 61 61 61 60 59 56 52 48 44 40 38 35 34 31 24 16 15 18 23 27 28 28 25 24 24 21 16 12 9
0 0 0 0 0 0 0 3 6 7 8 14 20 21 21 26 34 42 48 52 55 54 53 51 49 48 45 41 38 35 32 30 29 25 19 13 12 15 22 28 30 28 25 23 22 18 15 13 11
0 0 0 0 0 0 0 3 6 6 8 15 18 19 22 25 32 39 44 46 46 43 41 40 38 37 35 32 31 30 28 26 24 20 16 14 13 13 17 24 27 27 25 24 22 16 14 14 12
0 0 0 0 0 0 0 1 3 4 7 13 18 22 26 29 34 38 39 38 36 32 30 30 29 28 27 26 27 27 25 23 22 19 17 17 16 14 15 21 23 22 20 22 22 16 12 12 11
0 0 0 0 0 0 0 0 0 1 5 11 18 25 29 33 37 37 35 32 30 27 25 25 25 24 23 23 25 27 25 22 20 18 17 18 18 16 17 20 20 17 14 19 21 15 10 10 9

GEFSSGP_con_prob3kmehi_138.txt.gz
EHI
4 2 0 1 0 0 0 1 2 2 1 0 0 0 0 0 0 0 2 14 31 34 24 19 17 14 8 3 1 0 0 0 0 0 0 0 0 0 0 0 0 0 0 0 0 0 0 0 0
2 1 1 1 1 0 0 1 3 2 1 0 0 0 0 1 1 0 3 19 38 39 28 25 25 19 11 5 1 0 0 0 0 0 0 0 0 0 0 0 0 0 0 0 0 0 0 0 0
1 1 2 2 2 0 1 2 3 3 1 1 1 1 3 6 6 4 10 29 43 41 32 34 38 31 18 10 4 1 0 0 0 0 0 0 0 0 0 0 0 0 0 0 0 0 0 0 0
1 2 2 2 1 0 1 2 3 3 2 2 3 3 6 16 22 20 24 38 46 41 33 38 45 41 27 15 8 3 0 0 0 0 0 0 0 0 0 0 0 0 0 0 0 0 0 0 0
0 1 2 1 0 0 1 3 5 6 5 4 6 5 12 32 48 42 35 41 47 44 37 39 44 42 31 19 11 6 2 0 0 0 0 0 0 0 0 0 0 0 0 0 0 0 0 0 1
0 0 0 0 0 0 1 4 8 9 7 7 8 7 19 49 66 54 40 40 45 46 41 39 41 39 32 23 15 10 4 1 0 0 0 0 0 0 0 0 0 0 0 0 0 0 0 0 1
0 0 0 0 0 0 1 5 9 9 8 10 10 9 24 55 70 58 45 43 46 46 41 37 35 33 29 23 17 12 7 3 1 0 0 0 0 0 0 0 0 0 0 0 0 0 0 0 1
0 0 0 0 0 0 1 4 8 8 9 12 13 13 28 55 72 68 58 52 49 44 38 34 29 24 20 17 16 13 9 4 1 0 0 0 0 0 0 0 0 0 0 0 0 0 0 0 0
0 0 0 0 0 0 1 5 6 8 12 17 20 24 39 63 79 80 73 63 55 46 37 31 27 22 16 14 13 11 8 5 1 0 0 0 0 0 0 0 0 0 0 0 0 1 1 0 0
1 1 1 0 0 0 2 4 5 9 16 24 33 40 52 71 84 86 80 71 63 53 39 29 26 23 20 16 12 8 6 4 1 0 0 0 0 0 0 0 0 0 0 0 0 1 1 0 0
1 1 1 0 0 1 3 4 6 11 17 30 44 53 61 73 82 84 79 73 67 56 41 29 23 22 20 16 10 7 5 3 1 0 0 0 0 0 0 0 0 0 0 0 0 1 1 0 0
0 0 0 0 1 3 4 5 8 13 21 34 49 58 65 72 78 79 77 73 67 56 42 31 24 20 18 15 10 7 5 2 0 0 0 0 0 0 0 0 0 0 0 0 0 0 0 0 0
0 0 0 1 2 3 4 6 10 18 29 43 54 61 65 68 71 72 73 71 64 55 44 35 27 21 17 16 12 7 4 2 0 0 0 0 0 0 0 0 0 0 0 0 0 0 0 0 0
0 0 0 1 2 3 4 7 13 24 38 52 62 65 63 62 64 67 68 68 63 57 50 42 33 24 17 14 11 7 5 3 1 0 0 0 0 0 0 0 0 0 0 0 0 0 0 0 0
0 0 0 0 1 2 3 7 15 28 44 58 67 68 63 61 63 65 65 65 63 60 57 51 41 29 22 15 9 7 6 4 1 0 0 0 0 0 0 0 0 0 0 0 0 0 0 0 0
0 0 0 0 1 2 3 6 16 31 47 58 67 70 67 64 64 63 63 64 63 62 61 59 49 37 29 20 11 9 8 6 3 1 1 0 0 0 0 0 0 0 0 0 0 0 0 0 0
0 0 0 0 0 1 2 7 18 33 46 55 63 68 68 65 63 62 62 64 64 64 64 65 58 46 36 27 18 14 11 8 5 3 2 1 0 0 0 0 0 0 0 0 0 0 0 0 0
0 0 0 0 0 0 2 10 20 31 41 50 56 63 67 65 63 62 63 64 65 65 66 67 63 54 44 34 25 21 17 12 9 6 3 1 0 0 0 0 0 0 0 0 0 0 0 0 0
0 0 0 0 0 1 3 10 18 25 35 45 52 60 67 67 63 61 63 65 66 66 66 65 62 56 49 39 30 25 23 19 13 8 4 2 1 1 0 0 0 0 0 0 0 0 0 0 0
0 0 0 0 0 1 3 7 13 20 29 40 50 59 67 68 64 62 64 67 67 67 66 62 58 53 48 40 31 25 21 18 14 9 4 2 2 2 2 1 1 0 0 0 0 0 0 0 0
0 0 0 0 0 1 2 4 9 15 24 36 48 58 65 67 64 64 67 68 66 65 64 58 51 47 43 36 29 23 18 15 12 8 5 3 2 4 4 3 2 1 1 0 0 0 0 0 0
0 0 0 0 0 0 1 1 5 12 22 33 46 56 62 63 63 65 68 67 64 63 60 53 46 42 38 33 29 25 18 13 10 7 5 3 2 3 3 3 3 2 1 0 0 0 0 0 0
0 0 0 0 0 0 0 0 2 9 20 32 44 53 58 62 63 64 64 62 61 61 58 51 45 40 36 33 30 24 16 10 7 6 5 4 3 3 2 1 2 1 1 0 0 0 0 0 0
0 0 0 0 0 0 0 0 1 6 16 30 42 48 53 60 63 62 60 58 59 58 55 51 46 41 37 33 29 22 13 7 6 5 5 4 3 3 1 0 0 0 0 0 0 0 0 0 0
0 0 0 0 0 0 0 0 0 4 12 25 37 42 46 52 56 59 59 57 55 54 52 50 46 42 37 33 29 20 11 6 5 4 5 5 2 1 0 0 0 0 0 0 0 0 0 0 0
0 0 0 0 0 0 0 0 2 7 14 23 32 37 39 42 45 50 54 52 49 49 48 47 45 39 34 31 24 16 8 5 3 2 4 3 1 0 0 0 0 0 0 0 0 0 0 0 0
0 0 0 0 0 0 0 1 4 11 19 25 31 34 34 34 37 40 42 43 42 41 41 41 38 32 27 24 18 11 7 5 2 1 2 1 0 0 0 0 0 0 0 0 0 0 0 0 0
0 0 0 0 0 0 0 0 4 12 19 23 27 29 29 32 36 36 34 36 35 33 32 30 28 23 19 16 13 10 6 3 1 1 1 1 0 0 0 0 0 0 0 0 0 0 0 0 0
0 0 0 0 0 0 0 0 3 9 15 20 24 27 29 33 35 35 34 32 29 26 22 20 19 15 13 12 11 9 5 2 0 0 0 0 0 0 0 0 0 0 0 0 0 0 0 0 0
0 0 0 0 0 0 0 1 3 7 13 21 27 31 32 32 33 35 35 30 25 21 16 14 14 12 10 11 10 8 4 1 0 0 0 0 0 0 0 0 0 0 0 0 0 0 0 0 0

GEFSSGP_con_prob3kmehi_144.txt.gz
EHI
1 1 0 0 0 0 0 0 0 0 0 0 0 0 1 0 0 0 0 1 5 9 7 7 12 13 10 9 10 12 12 11 10 7 4 2 1 0 1 2 2 1 0 0 1 2 1 0 0
1 0 0 0 0 0 0 0 0 0 0 0 0 0 1 1 0 0 0 2 8 12 9 9 14 16 13 11 10 10 9 9 7 4 2 1 0 0 0 1 1 1 0 0 1 2 1 0 0
0 0 0 0 0 0 0 0 0 0 0 0 0 0 1 1 1 0 1 5 12 14 10 12 19 20 16 13 11 8 6 5 4 2 1 0 0 0 0 0 0 0 0 0 1 2 2 0 0
0 0 0 0 0 0 0 0 0 0 0 1 1 1 1 1 1 2 4 11 17 17 12 15 24 24 19 15 12 9 5 4 3 2 1 0 0 0 0 0 0 0 0 0 1 2 1 0 0
0 0 0 0 0 0 0 0 0 0 1 2 3 1 0 1 3 6 11 18 24 23 17 20 26 25 19 15 13 11 8 5 3 2 0 0 0 0 0 0 0 0 0 0 1 1 0 0 0
0 0 0 0 0 0 0 0 0 0 1 2 3 2 1 1 5 12 16 20 27 30 24 22 25 23 17 14 12 10 10 8 4 1 0 0 0 0 0 0 0 0 0 0 0 0 0 0 0
0 0 0 0 0 0 0 0 1 1 1 2 3 4 2 3 8 16 20 21 25 28 26 22 20 17 14 11 8 8 9 8 4 2 1 0 0 0 0 0 0 0 0 0 0 0 0 0 0
0 0 0 0 0 0 0 0 1 3 4 3 4 4 6 11 18 26 30 27 24 22 21 20 17 14 11 9 7 6 7 6 4 2 1 0 0 0 0 0 0 0 0 0 0 0 0 0 0
0 0 0 0 0 0 0 1 2 4 7 8 7 8 20 35 40 43 42 36 30 23 19 20 19 15 11 8 6 7 7 6 3 1 0 0 0 0 0 0 0 0 0 0 0 0 0 0 0
0 0 0 0 0 0 1 3 5 5 8 11 15 26 46 59 58 52 44 38 35 30 23 22 22 19 13 9 6 7 7 5 3 2 1 1 0 0 0 0 0 0 0 0 0 0 0 0 0
0 0 0 0 0 1 2 4 5 5 5 12 28 52 69 71 61 47 36 31 31 31 27 24 23 21 15 10 7 7 5 4 4 3 2 1 0 0 0 0 0 0 0 0 0 0 0 0 0
0 0 0 0 0 1 2 4 5 5 5 16 42 71 80 73 57 39 28 26 27 28 26 24 23 20 15 11 9 7 4 3 3 2 1 1 0 0 0 1 1 0 0 0 0 0 0 0 0
0 0 0 0 0 0 2 3 5 7 12 27 54 76 81 72 55 38 28 27 28 27 25 23 23 19 15 12 11 8 4 3 3 2 1 0 0 0 0 1 1 0 0 0 0 0 0 0 0
0 0 0 0 0 0 1 3 5 11 23 39 58 72 74 68 57 45 36 33 31 28 24 23 23 19 15 13 10 7 4 3 4 3 1 0 0 0 0 0 0 0 0 0 0 0 0 0 0
0 0 0 0 0 0 1 3 6 16 30 42 52 62 64 60 56 52 44 38 34 29 24 23 20 15 12 9 7 5 4 3 3 3 1 0 0 0 0 0 0 0 0 0 0 0 0 0 0
0 0 0 0 0 0 0 2 8 19 31 38 43 51 56 53 51 50 47 43 38 32 26 23 18 13 9 7 6 5 5 2 1 1 1 0 0 0 0 0 0 0 0 0 0 0 0 0 0
0 0 0 0 0 0 0 1 8 20 30 34 37 44 49 48 46 47 48 47 43 36 30 25 20 14 10 8 6 5 4 2 1 0 0 0 0 0 0 0 0 0 0 0 0 0 0 0 0
0 0 0 0 0 0 0 1 8 21 30 32 35 39 43 41 39 43 47 48 46 41 34 27 21 15 11 9 7 4 2 1 0 0 0 0 0 0 0 0 0 0 0 0 0 0 0 0 0
0 0 0 0 0 0 0 1 8 21 28 31 35 37 38 36 33 38 44 47 47 44 38 30 23 16 11 10 6 2 0 0 0 0 0 0 0 0 0 0 0 0 0 0 0 0 0 0 0
0 0 0 0 0 0 0 1 7 15 21 27 32 35 37 37 35 38 45 47 46 45 40 34 28 21 15 11 7 3 1 0 0 0 0 0 0 0 0 0 0 0 0 0 0 0 0 0 0
0 0 0 0 0 0 0 1 4 7 12 19 28 33 37 41 41 43 47 46 43 40 38 35 30 25 19 14 9 5 3 2 2 1 0 0 0 0 0 0 0 0 0 0 0 0 0 0 0
0 0 0 0 0 0 0 0 1 3 5 13 24 33 38 41 43 44 44 40 36 33 33 33 30 26 21 17 13 9 7 6 5 3 1 0 0 0 0 0 0 0 0 0 0 0 0 0 0
0 0 0 0 0 0 0 0 0 1 2 9 23 33 36 38 41 41 39 34 30 28 29 29 27 25 22 20 18 15 10 7 5 3 1 0 0 0 0 0 0 0 0 0 0 0 0 0 0
0 0 0 0 0 0 0 0 0 0 0 6 20 30 32 34 38 39 38 35 32 29 27 27 25 23 21 21 20 17 12 7 3 1 0 0 0 0 0 0 0 0 0 0 0 0 0 0 0
0 0 0 0 0 0 0 0 0 0 0 5 17 27 29 30 32 34 36 39 39 35 31 28 25 22 20 21 20 16 11 7 3 1 0 0 0 0 0 0 0 0 0 0 0 0 0 0 0
0 0 0 0 0 0 0 0 0 1 2 7 17 24 25 24 25 29 33 38 39 36 31 28 25 22 21 21 19 14 9 5 3 1 0 0 1 0 0 0 0 0 0 0 0 0 0 0 0
0 0 0 0 0 0 0 0 0 2 4 9 16 21 20 19 23 28 30 32 30 26 23 22 21 20 19 19 16 11 6 4 3 2 1 0 0 0 0 0 0 0 0 0 0 0 0 0 0
0 0 0 0 0 0 0 0 0 2 6 9 12 15 16 17 22 26 26 23 19 15 14 14 14 14 14 13 11 8 5 3 3 2 1 0 0 0 0 0 0 0 0 0 0 0 0 0 0
0 0 0 0 0 0 0 0 0 2 7 10 10 11 15 18 21 21 20 17 14 12 11 9 8 8 8 7 6 4 3 2 2 2 1 0 0 0 0 0 0 0 0 0 0 0 0 0 0
0 0 0 0 0 0 0 0 0 2 8 11 11 11 16 19 19 17 16 14 13 12 9 7 6 5 4 3 3 2 1 1 1 1 0 0 0 0 0 0 0 0 0 0 0 0 0 0 0

GEFSSGP_con_prob3kmehi_150.txt.gz
EHI
0 1 7 13 8 2 0 0 0 0 0 0 0 0 0 0 0 0 0 0 0 0 0 0 1 3 5 11 17 19 17 13 9 5 1 0 0 0 0 0 0 0 0 0 0 0 0 0 0
0 3 8 9 5 1 0 0 0 0 0 0 0 0 0 0 0 0 0 0 0 0 1 2 3 3 5 11 16 16 13 10 6 3 1 0 0 0 0 0 0 0 0 0 0 0 0 0 0
1 4 7 4 1 0 0 0 0 0 0 0 0 0 0 0 0 0 0 0 0 0 2 5 5 3 4 8 12 12 10 7 4 1 0 0 0 0 0 0 0 0 0 0 0 0 0 0 0
2 4 4 1 0 0 0 0 0 0 0 0 0 0 0 0 0 0 0 0 0 0 2 6 8 6 4 5 7 8 8 6 3 1 0 0 0 0 0 0 0 0 0 0 0 0 0 0 0
2 2 1 0 0 0 0 0 0 0 0 1 1 2 1 1 0 0 0 0 0 0 2 6 10 10 6 4 4 5 6 5 2 0 0 0 0 0 0 0 0 0 0 0 0 0 0 0 0
1 0 0 0 0 0 0 0 0 0 0 1 2 4 5 5 4 1 0 0 0 0 1 4 7 9 7 3 2 2 3 3 2 0 1 1 1 1 0 0 0 0 0 0 0 0 0 0 0
0 0 0 0 0 0 0 0 0 0 1 1 3 6 13 17 13 6 2 0 1 1 1 2 3 4 4 3 3 3 2 1 1 0 1 2 2 1 0 0 0 0 0 0 0 0 0 0 0
0 0 0 0 0 0 0 0 0 0 1 1 2 7 23 37 32 19 10 6 5 3 3 3 2 1 1 3 6 6 3 1 0 0 0 1 1 1 0 0 0 0 0 0 0 0 0 0 0
0 0 0 0 0 0 0 0 0 0 1 2 5 15 39 58 54 39 27 20 14 9 7 5 3 2 1 3 5 5 3 1 0 0 0 0 0 0 0 0 0 0 0 0 0 0 0 0 0
0 0 0 0 0 0 0 0 0 0 1 5 15 34 59 73 69 55 44 35 26 18 12 8 5 4 3 3 4 3 2 1 0 0 0 0 0 0 0 0 0 0 0 0 0 0 0 0 0
0 0 0 0 0 0 0 0 0 0 0 5 24 54 75 79 72 60 47 38 31 25 18 11 8 6 5 4 3 3 2 1 0 0 0 0 0 0 0 0 0 0 0 0 0 0 0 0 0
0 0 0 0 0 0 0 0 1 1 0 4 27 61 79 77 68 55 43 36 33 30 23 16 13 10 8 5 4 3 3 1 0 0 0 0 0 0 0 0 0 0 0 0 0 0 0 0 0
0 0 0 0 0 0 0 0 1 2 2 8 29 57 72 70 60 50 43 40 39 37 30 22 17 14 12 8 5 4 3 2 1 1 0 0 0 0 0 0 0 0 0 0 0 0 0 0 0
0 0 0 0 0 0 0 0 1 2 5 14 30 49 60 63 59 53 50 50 48 44 37 29 22 17 15 11 7 6 5 4 4 4 2 1 1 1 1 1 1 0 0 0 0 0 0 0 0
0 0 0 0 0 0 0 0 2 4 9 17 28 40 51 58 59 55 54 54 53 49 44 36 27 20 17 13 10 7 6 5 5 6 5 4 3 3 2 1 1 0 0 0 0 0 0 0 0
0 0 0 0 0 0 0 1 3 7 13 19 27 36 47 55 56 50 49 53 53 50 48 42 31 24 21 17 13 10 7 5 4 6 6 6 5 5 4 3 1 0 0 0 0 0 0 0 0
0 0 0 0 0 0 0 1 4 8 14 20 28 35 42 50 53 49 46 51 52 49 48 44 35 29 25 21 17 14 10 7 6 6 6 6 5 5 4 2 1 0 0 0 0 1 0 0 0
0 0 0 0 0 0 0 1 4 9 13 18 26 32 37 43 50 50 49 52 53 50 47 43 39 33 28 24 21 18 14 11 9 8 7 5 4 3 2 1 0 0 0 0 0 0 0 0 0
0 0 0 0 0 0 0 1 5 9 12 16 21 28 34 38 45 51 53 53 53 51 47 43 42 39 35 31 26 21 17 13 11 10 7 4 2 1 0 0 0 0 0 1 1 1 1 0 0
0 0 0 0 0 0 0 2 5 8 10 13 18 24 30 37 46 53 54 53 53 52 48 45 46 45 42 37 30 23 19 14 12 10 7 4 1 0 0 0 0 1 1 2 2 2 2 1 0
0 0 0 0 0 0 0 1 4 5 6 11 18 24 29 36 47 55 55 52 51 51 48 46 47 47 45 40 31 24 20 17 13 10 7 5 2 0 0 0 1 2 3 3 3 3 4 3 1
0 0 0 0 0 0 0 1 3 4 4 9 19 27 31 35 44 54 57 53 48 45 43 44 46 46 45 40 33 27 23 17 13 11 9 6 4 2 2 1 1 2 3 3 2 3 4 4 2
0 0 0 0 0 0 0 0 1 2 3 8 17 27 33 37 42 51 56 54 45 38 37 40 42 44 43 39 35 30 24 17 13 13 12 10 7 5 3 1 0 1 1 1 1 1 2 3 2
0 0 0 0 0 0 0 0 0 0 1 6 15 26 34 37 41 47 52 52 44 37 36 38 39 41 41 38 34 31 26 21 18 17 15 13 12 9 5 3 2 1 1 1 1 1 1 2 1
0 0 0 0 0 0 0 0 0 0 0 4 15 28 35 36 38 43 46 47 45 41 40 41 42 42 39 34 31 28 25 22 19 17 14 14 13 10 7 5 5 4 3 2 3 3 1 1 1
0 0 0 0 0 0 0 0 0 0 0 3 14 29 38 37 34 37 40 43 46 46 45 46 45 42 38 33 29 24 20 16 13 11 10 11 10 7 5 5 6 5 3 3 5 4 2 2 2
0 0 0 0 0 0 0 0 0 0 2 5 15 28 39 39 34 34 38 41 46 48 46 45 44 40 36 34 28 23 18 13 9 7 6 6 6 4 2 3 4 5 4 4 5 4 3 4 4
0 0 0 0 0 0 0 0 0 1 4 8 16 28 36 37 35 37 40 41 42 43 42 41 40 37 34 31 25 21 18 14 9 5 4 3 4 3 2 2 3 5 5 5 5 4 3 4 4
0 0 0 0 0 0 0 0 0 1 4 9 17 28 35 36 36 40 42 39 35 34 34 35 35 32 29 24 19 17 15 11 7 4 3 2 2 2 3 3 4 5 4 4 5 4 3 5 5
0 0 0 0 0 0 0 0 0 1 3 9 19 29 36 39 39 42 43 37 30 28 30 32 30 27 23 19 16 15 13 9 5 3 2 1 0 1 3 3 4 5 4 3 4 4 4 6 7

GEFSSGP_con_prob3kmehi_156.txt.gz
EHI
11 22 37 43 30 9 1 0 0 0 0 0 0 0 0 0 0 2 7 16 18 11 5 4 4 2 1 0 0 0 0 0 0 0 0 0 0 0 0 0 0 0 0 0 0 0 1 1 1
10 21 33 34 20 6 0 0 0 0 0 0 0 0 0 0 1 3 9 15 15 9 4 4 5 4 2 1 0 0 0 0 0 0 0 0 0 0 0 0 0 0 0 0 0 0 0 1 1
11 19 25 20 9 2 0 0 0 0 0 0 0 0 0 0 1 4 8 14 14 9 6 6 7 6 4 2 0 0 0 0 0 0 0 0 0 0 0 0 0 0 0 0 0 0 0 1 1
12 15 14 8 2 0 0 0 0 0 0 0 0 0 0 1 2 4 7 12 15 13 8 7 7 6 4 2 0 0 0 0 0 0 0 0 0 0 0 0 0 0 0 0 0 0 0 1 1
9 8 5 2 0 0 0 0 0 0 0 0 2 2 2 2 3 5 7 12 18 18 11 9 10 7 3 2 0 0 0 0 0 0 0 0 0 0 0 0 0 0 0 0 1 0 0 0 0
4 2 1 0 0 0 0 0 0 0 0 1 3 5 5 5 5 7 10 15 23 25 17 11 11 7 3 1 1 1 0 0 0 0 0 0 0 0 0 0 0 0 0 0 0 0 0 0 0
1 1 0 0 0 0 0 0 0 0 0 0 4 9 11 10 10 10 12 18 27 30 20 9 7 5 3 2 2 2 1 0 0 0 0 0 0 0 0 0 0 0 0 0 0 0 0 0 0
0 0 0 0 0 0 0 0 0 0 0 0 5 13 18 18 15 13 14 20 30 30 18 7 4 4 3 2 3 2 1 0 0 0 0 0 0 0 0 0 0 0 0 0 0 0 0 0 0
0 0 0 0 0 0 0 0 0 1 1 3 10 21 27 24 19 17 19 24 31 30 18 10 8 7 5 4 3 1 1 1 0 0 1 1 0 0 0 0 0 0 0 0 0 0 0 0 0
0 0 0 0 0 0 0 0 1 2 4 10 22 34 37 30 23 22 25 28 32 31 21 15 14 12 10 9 5 1 1 1 1 1 1 2 1 1 1 0 0 0 0 0 0 1 1 1 1
0 0 0 0 0 0 0 0 1 2 6 16 32 44 45 36 29 28 32 34 34 33 27 23 22 20 20 19 11 4 3 3 2 1 1 1 1 1 2 1 0 0 0 0 1 2 2 1 0
0 0 0 0 0 0 0 0 0 2 7 18 35 48 47 40 34 33 38 41 41 40 37 35 34 33 33 31 18 8 7 5 4 4 2 1 1 2 2 1 0 0 0 0 1 1 1 0 1
0 0 0 0 0 0 0 0 1 3 10 22 37 48 48 42 39 40 46 53 55 54 51 49 48 47 45 39 26 15 11 8 6 6 3 1 2 4 4 3 2 1 1 1 1 1 1 1 1
0 0 0 0 0 1 1 1 2 5 13 26 38 46 49 47 49 54 60 66 68 66 62 59 56 52 47 40 30 21 15 10 9 10 7 3 4 7 8 7 6 4 3 2 1 0 1 1 1
0 0 0 0 0 1 2 2 3 7 14 25 34 41 49 54 60 67 72 74 74 72 69 64 57 49 43 36 29 23 18 14 15 17 14 8 7 10 10 9 8 6 6 5 2 0 0 0 0
0 0 0 0 0 0 1 2 4 7 13 22 30 38 48 58 66 72 76 76 76 75 73 64 54 48 41 32 29 28 27 26 27 26 23 17 13 14 12 10 9 10 8 5 2 0 0 0 1
0 0 0 0 0 0 0 2 5 7 11 21 32 40 50 61 69 75 77 76 77 79 75 65 56 52 45 36 34 37 38 39 38 36 32 25 19 17 15 12 11 10 8 5 2 2 2 2 2
0 0 0 0 0 0 1 3 6 7 11 22 36 46 54 63 71 76 78 77 77 79 76 68 62 60 53 43 40 42 44 45 43 42 40 30 22 19 17 14 11 9 7 5 4 4 4 4 3
0 0 0 0 0 0 2 5 8 9 12 23 37 48 56 62 69 76 78 76 76 77 76 71 68 66 59 50 43 43 45 44 40 39 39 30 21 19 17 13 11 10 9 8 6 6 7 5 2
0 0 0 0 0 0 1 4 8 10 12 21 34 46 55 62 69 76 77 75 75 76 75 73 71 67 60 53 45 42 43 41 35 34 35 29 22 20 17 13 10 8 9 10 9 9 8 5 2
0 0 0 0 0 0 1 2 5 9 12 18 29 43 55 63 70 77 79 77 75 75 73 71 70 66 61 55 48 42 40 37 32 32 34 31 27 21 17 13 9 6 8 9 9 9 8 5 2
0 0 0 0 0 0 0 1 4 9 13 18 27 40 53 63 70 76 79 78 76 73 71 70 71 69 64 58 50 43 39 35 31 31 33 33 29 21 16 14 12 9 7 7 7 7 8 6 4
0 0 0 0 0 0 0 1 4 8 13 21 30 40 50 58 65 72 76 76 72 68 67 69 71 69 65 60 53 44 38 33 30 30 34 35 30 22 15 14 13 12 8 7 7 9 9 7 5
0 0 0 0 0 0 0 1 3 6 10 19 32 40 46 52 60 67 72 72 67 63 62 65 67 66 63 59 53 46 40 34 31 31 34 36 33 25 19 16 15 12 9 9 10 12 10 7 5
0 0 0 0 0 0 0 2 4 5 6 16 30 39 43 48 55 62 67 67 64 61 61 63 66 66 62 58 54 49 43 35 30 29 32 35 32 28 24 21 18 14 11 10 11 11 10 9 10
0 0 0 0 0 0 0 2 5 5 5 14 29 37 41 46 53 58 61 62 60 59 61 66 68 67 62 56 53 49 42 32 26 26 27 27 24 22 22 22 19 16 13 11 10 10 10 13 17
0 0 0 0 0 0 0 2 5 6 6 15 28 37 41 47 54 58 58 55 52 53 58 64 66 64 58 51 47 43 35 29 24 22 21 19 17 15 16 18 16 14 13 13 11 9 11 17 21
0 0 0 0 0 0 0 1 4 6 8 15 26 36 42 47 52 56 54 50 47 50 54 57 58 57 52 46 38 30 28 26 24 20 17 17 16 15 14 15 13 12 12 14 13 9 11 17 20
0 0 0 0 0 0 0 0 2 5 7 13 23 34 40 43 47 51 52 49 47 49 51 51 49 47 45 39 29 24 25 28 27 23 19 20 19 17 15 14 14 13 13 14 13 9 9 12 13
0 0 0 0 0 0 0 0 1 3 6 10 20 32 38 40 44 50 53 52 48 49 51 50 45 42 40 33 25 23 28 32 31 28 24 22 19 16 15 15 16 15 14 13 11 8 6 7 7

GEFSSGP_con_prob3kmehi_162.txt.gz
EHI
1 1 0 0 0 0 0 0 0 0 0 0 0 0 1 0 0 0 0 3 8 9 6 7 9 7 2 0 0 0 0 0 0 0 0 0 0 0 0 0 0 0 0 0 0 0 1 1 1
1 0 0 0 0 0 0 0 0 0 0 0 0 0 1 0 0 0 0 3 8 9 5 5 9 8 4 1 0 0 0 0 0 0 0 0 0 0 0 0 0 0 0 0 0 0 0 1 1
0 0 0 0 0 0 0 0 0 0 0 0 0 0 1 1 0 0 2 6 9 7 4 5 9 9 6 2 0 0 0 0 0 0 0 0 0 0 0 0 0 0 0 0 0 0 0 1 2
1 1 0 0 0 0 0 0 0 0 0 0 0 0 0 3 5 5 6 10 12 8 4 6 9 9 6 3 1 0 0 0 0 0 0 0 0 0 0 0 0 0 0 0 0 0 0 1 2
0 0 0 0 0 0 0 0 1 2 2 2 1 1 2 9 18 17 11 11 14 10 6 8 11 10 8 5 2 0 0 0 0 0 0 0 0 0 0 0 0 0 0 0 0 0 0 0 1
0 0 0 0 0 0 0 0 1 4 5 4 3 3 7 20 31 28 17 11 12 12 9 9 11 11 11 8 3 0 0 0 0 0 0 0 0 0 0 0 0 0 0 0 0 0 1 0 0
0 0 0 0 0 0 0 0 1 3 7 8 6 4 9 24 37 36 24 13 10 12 11 9 8 9 10 9 5 2 0 0 0 0 0 0 0 0 0 0 0 0 0 0 0 0 0 0 0
0 0 0 0 0 0 0 1 2 5 9 10 7 4 10 25 42 47 36 21 13 11 10 8 7 6 5 6 5 3 1 0 0 0 0 0 0 0 0 0 0 0 0 0 0 0 0 0 0
0 0 0 0 0 0 1 2 4 8 12 10 7 7 15 35 57 62 51 36 22 13 10 9 8 5 3 3 4 2 1 0 0 0 0 0 0 0 0 0 0 0 0 0 0 0 0 0 0
0 0 0 0 0 0 1 2 6 11 13 11 10 12 24 49 70 74 65 49 32 19 11 9 7 5 3 2 2 1 0 0 0 0 0 0 0 0 0 0 0 0 0 0 0 0 0 0 0
0 0 0 0 0 0 1 2 6 11 11 12 14 17 28 49 68 74 69 56 39 24 15 10 8 6 4 2 1 1 0 0 0 0 0 0 0 0 0 0 0 0 0 0 0 0 0 0 0
0 0 0 1 1 1 1 3 8 11 11 13 17 19 24 38 55 63 63 56 44 33 22 14 11 9 5 3 2 1 0 0 0 0 0 0 0 0 0 0 0 0 0 0 0 0 0 0 0
0 0 0 1 2 2 5 9 12 15 16 19 22 21 22 30 43 52 53 52 49 44 34 24 17 14 11 7 4 1 1 1 0 0 0 0 0 0 0 0 0 0 0 0 0 0 0 0 0
0 0 0 1 1 3 9 14 18 22 26 29 28 24 23 29 38 46 48 48 50 50 46 37 27 23 21 14 7 4 3 2 1 0 0 0 0 0 0 0 0 0 0 0 0 0 0 0 0
0 0 0 0 0 3 8 14 22 31 38 39 33 28 28 32 39 44 47 48 50 54 55 49 40 35 31 22 12 7 4 4 3 1 0 0 0 0 0 0 0 0 0 0 0 0 0 0 0
0 0 0 0 0 1 5 12 22 35 46 48 44 40 39 41 43 44 48 52 55 59 60 54 47 41 36 27 17 11 8 7 5 3 1 0 0 0 0 0 0 0 0 0 0 0 0 0 0
0 0 0 0 0 0 3 11 22 35 46 54 56 57 56 55 52 51 56 61 64 64 61 53 46 41 36 29 23 18 15 11 8 5 2 0 0 0 0 0 0 0 0 0 0 0 0 0 0
0 0 0 0 0 0 3 13 26 38 48 55 61 66 70 70 66 66 68 71 71 67 61 52 45 41 37 32 28 23 20 15 10 5 3 2 1 1 0 0 0 0 0 0 0 0 0 0 0
0 0 0 0 0 0 3 13 27 40 50 56 61 70 76 77 76 76 77 78 76 69 61 52 46 44 40 34 27 22 18 16 11 6 3 2 2 1 0 0 0 0 0 0 0 0 0 0 0
0 0 0 0 0 0 2 9 22 35 47 56 62 70 76 78 79 80 80 81 78 71 63 54 48 46 42 34 25 17 13 13 11 8 4 2 2 1 0 0 0 0 0 0 0 0 0 0 0
0 0 0 0 0 0 1 4 12 25 40 53 61 66 72 78 81 82 82 80 78 72 65 56 49 45 41 31 24 18 13 12 12 9 5 2 1 1 1 0 0 0 0 0 0 0 0 0 0
0 0 0 0 0 0 0 1 6 20 37 52 59 63 68 75 80 82 81 78 75 70 65 56 49 44 38 31 26 21 18 14 11 8 5 2 0 1 2 1 0 0 0 0 0 0 0 0 0
0 0 0 0 0 0 0 1 5 18 35 49 59 63 67 74 80 81 77 73 69 66 63 56 49 43 38 34 30 24 18 13 8 6 5 3 0 1 2 2 1 0 0 0 0 0 0 0 0
0 0 0 0 0 0 0 1 4 14 30 45 57 63 68 74 79 78 74 67 64 62 59 53 47 43 41 39 33 25 17 12 8 7 7 5 2 1 2 2 1 0 1 1 1 0 0 0 0
0 0 0 0 0 0 0 0 3 10 24 41 53 59 66 73 75 73 70 64 59 56 53 49 44 40 39 38 31 22 16 13 11 9 8 7 5 3 2 2 1 0 2 2 1 1 1 0 0
0 0 0 0 0 0 0 1 5 12 24 38 49 57 64 68 66 65 64 59 52 49 48 44 38 35 33 30 25 19 15 12 10 8 7 6 6 5 3 2 1 0 1 2 2 2 1 0 0
0 0 0 0 0 0 0 2 8 18 28 38 49 56 59 59 56 55 55 51 45 42 42 39 33 28 25 22 20 17 14 11 7 5 4 5 5 4 2 1 0 0 1 1 1 1 1 0 0
0 0 0 0 0 0 0 1 8 20 31 40 47 51 51 51 49 48 47 43 38 36 35 34 30 24 19 16 15 14 12 10 6 3 1 2 4 3 1 0 0 1 1 1 1 0 0 0 0
0 0 0 0 0 0 0 0 5 17 31 39 42 43 44 45 47 47 44 39 35 34 31 29 26 21 15 12 12 12 10 8 6 2 0 0 1 2 1 0 0 0 0 1 1 0 0 0 0
0 0 0 0 0 0 0 1 4 15 30 38 38 40 42 44 47 49 45 39 35 34 31 28 24 18 14 12 12 11 9 8 6 2 0 0 0 1 0 0 0 0 0 0 0 0 0 0 0

GEFSSGP_con_prob3kmehi_168.txt.gz
EHI
1 1 0 0 0 0 0 0 0 0 0 0 0 0 0 1 1 1 1 2 4 6 5 5 6 6 5 5 4 4 3 3 3 3 3 3 3 3 3 3 3 3 3 3 4 4 5 5 5
1 1 0 0 0 0 0 0 0 0 0 0 0 0 1 2 2 2 2 3 6 7 6 7 10 10 8 7 5 4 3 3 3 3 3 3 3 3 3 3 3 3 3 3 4 5 5 4 4
1 1 0 0 0 0 0 0 0 0 0 0 0 0 1 2 3 3 3 5 7 8 7 10 15 15 11 8 6 4 3 3 3 3 3 3 3 3 3 3 3 3 3 3 4 5 4 3 3
0 0 0 0 0 0 0 0 0 0 0 0 0 1 1 3 3 3 4 7 10 9 8 12 18 18 13 9 6 4 3 4 4 4 3 3 3 3 3 3 3 3 3 3 3 4 4 3 3
0 0 0 0 0 0 0 0 0 0 0 1 1 2 3 3 4 5 6 9 14 14 12 15 20 20 15 10 6 4 4 5 5 5 4 4 4 4 4 3 3 3 3 3 3 4 4 4 3
0 0 0 0 0 0 0 0 1 1 1 2 3 3 3 3 4 6 6 8 13 16 16 17 19 18 15 11 7 5 4 4 5 5 5 5 5 5 4 4 3 3 3 3 3 3 4 3 3
0 0 0 0 0 0 0 1 2 2 2 3 3 3 3 3 5 7 6 5 7 11 14 15 14 14 13 11 8 6 4 3 4 4 4 4 4 4 4 3 3 3 3 3 3 3 3 3 3
0 0 0 0 0 0 0 1 3 3 3 3 3 3 4 4 6 9 8 5 5 7 9 10 10 9 9 9 8 7 4 3 3 3 3 3 3 3 3 3 3 3 3 3 3 3 3 3 3
0 0 0 0 0 0 1 3 4 4 4 4 3 5 9 12 11 11 11 8 7 7 6 6 8 8 7 7 8 7 4 3 3 3 3 3 3 3 3 3 3 3 3 3 3 3 3 3 3
0 0 0 0 0 0 2 5 6 5 4 4 6 13 22 24 18 14 12 10 8 8 6 5 6 7 6 6 6 5 4 3 3 3 3 3 3 3 3 3 3 3 3 3 3 3 3 2 2
0 0 0 0 0 0 2 6 7 5 3 5 12 26 35 31 21 14 11 8 6 6 6 5 5 6 6 6 5 4 3 3 3 3 3 3 3 3 3 3 3 3 3 2 2 2 1 1 1
0 0 0 0 0 0 3 6 7 4 3 8 21 37 41 31 19 12 7 4 3 4 5 5 5 5 6 6 6 5 4 4 3 3 3 3 3 3 3 3 3 2 1 1 1 1 0 0 0
0 0 0 0 0 1 3 6 6 5 6 14 28 39 40 29 18 11 7 5 4 4 4 5 5 6 6 5 5 6 6 5 4 3 3 3 3 2 2 2 2 1 0 0 0 0 0 0 0
0 0 0 0 0 2 5 6 5 5 9 17 27 34 33 26 18 13 11 9 7 6 5 4 5 6 6 4 4 4 5 5 4 3 3 3 2 1 1 2 1 0 0 0 0 0 0 0 0
0 0 0 0 1 3 6 6 5 6 10 15 20 24 25 21 17 17 17 15 11 8 6 5 5 7 6 4 3 3 4 4 3 3 3 3 1 0 1 1 1 0 0 0 0 0 0 0 0
0 0 0 0 1 3 5 6 6 8 11 13 16 18 19 16 15 17 19 18 15 10 8 7 8 9 7 5 3 3 3 3 3 3 2 2 1 0 0 0 0 0 0 0 0 0 0 0 0
0 0 0 0 0 2 3 6 8 11 13 15 17 18 16 12 12 15 18 19 17 13 11 10 11 10 8 5 3 2 2 2 2 1 1 1 0 0 0 0 0 0 0 0 0 0 0 0 0
0 0 0 0 1 2 3 6 11 14 16 19 21 20 17 12 10 13 18 18 17 16 14 14 13 11 9 6 4 3 2 1 0 0 0 0 0 0 0 0 0 0 0 0 0 0 0 0 0
0 0 0 0 1 2 4 7 12 14 16 21 25 26 23 17 14 16 19 18 18 19 18 17 16 14 12 11 9 7 4 2 0 0 0 0 0 0 0 0 0 0 0 0 0 0 0 0 0
0 0 0 0 1 2 4 7 10 11 15 23 29 32 31 26 22 23 24 23 23 25 23 21 18 16 16 16 13 9 5 2 1 0 0 0 0 0 0 0 0 0 0 0 0 0 0 0 0
0 0 0 0 0 1 2 4 6 9 15 24 31 34 36 33 31 32 33 31 30 30 28 24 19 16 16 16 14 11 7 4 3 2 1 1 0 0 0 0 0 0 0 0 0 0 0 0 0
0 0 0 0 0 0 1 3 5 7 14 23 32 36 36 35 36 39 40 37 33 30 28 24 18 15 14 15 15 14 11 8 5 3 2 2 1 0 0 0 0 0 0 0 0 0 0 0 0
0 0 0 0 0 0 0 1 2 5 10 18 30 38 39 38 37 39 41 37 33 29 26 22 19 16 15 16 16 15 13 9 5 2 1 1 1 0 0 0 0 0 0 0 0 0 0 0 0
0 0 0 0 0 0 0 0 0 2 6 13 25 38 43 41 37 36 36 34 32 31 28 24 20 18 17 16 14 13 10 6 3 2 1 1 0 0 0 0 0 0 0 0 0 0 0 0 0
0 0 0 0 0 0 0 0 0 2 5 12 23 37 45 42 35 31 29 30 32 33 29 22 18 16 15 14 12 9 6 4 3 3 2 1 0 0 0 0 0 0 0 0 0 0 0 0 0
0 0 0 0 0 0 0 0 1 3 7 13 22 34 42 39 33 27 24 25 29 30 26 19 14 12 11 11 10 6 4 3 3 3 3 2 1 0 0 0 0 0 0 0 0 0 0 0 0
0 0 0 0 0 0 0 0 1 3 9 14 20 28 34 35 31 25 21 21 24 25 22 16 13 11 9 9 8 5 4 3 3 3 3 3 2 1 0 0 0 0 0 0 0 0 0 0 0
0 0 0 0 0 0 0 0 0 3 9 14 17 22 26 30 30 25 19 19 20 21 19 16 12 9 7 6 5 5 4 3 3 4 4 3 3 2 1 0 0 0 0 0 0 0 0 0 0
0 0 0 0 0 0 0 0 0 2 8 14 16 17 22 26 28 25 20 17 17 19 20 17 11 7 5 4 4 5 5 4 4 4 4 4 4 4 2 1 0 0 0 0 0 0 0 0 0
0 0 0 0 0 0 0 0 0 1 6 13 14 15 20 25 26 26 21 16 16 20 22 19 12 6 4 3 4 6 6 6 5 4 3 4 5 5 3 2 1 0 0 0 0 0 0 0 0

GEFSSGP_con_prob3kmehi_174.txt.gz
EHI
2 3 6 8 4 1 0 0 0 0 0 0 0 0 0 0 0 0 0 0 0 0 0 0 1 0 0 0 0 1 0 0 0 0 0 0 0 0 0 0 0 0 0 0 0 0 1 2 3
1 2 5 5 2 0 0 0 0 0 0 0 0 0 0 0 0 0 0 0 0 0 0 1 2 2 1 1 1 1 0 0 0 0 0 0 0 0 0 0 0 0 0 0 0 0 1 2 3
0 1 3 2 0 0 0 0 0 0 0 0 0 0 0 0 0 0 0 0 0 0 1 4 6 5 3 2 1 1 0 0 0 0 0 0 0 0 0 0 0 0 0 0 0 0 1 2 3
1 1 1 0 0 0 0 0 0 0 0 0 0 0 0 0 0 0 0 0 0 0 2 6 8 7 5 3 2 1 0 0 0 0 0 0 0 0 0 0 0 0 0 0 0 0 1 2 2
0 0 0 0 0 0 0 0 0 0 0 0 0 0 0 0 0 0 0 0 0 0 1 4 7 8 5 4 2 1 0 0 0 0 0 0 0 0 0 0 0 0 0 0 0 0 0 1 2
0 0 0 0 0 0 0 0 0 0 0 0 1 1 1 0 0 0 0 0 0 0 1 2 4 6 4 3 2 1 0 0 0 0 0 0 0 0 0 0 0 0 0 0 0 0 0 1 2
0 0 0 0 0 0 0 0 0 1 1 1 1 2 2 0 0 0 0 0 0 0 0 1 2 3 3 2 1 0 0 0 0 0 0 0 0 0 0 0 0 0 0 0 0 0 0 1 2
0 0 0 0 0 0 0 0 0 1 2 1 1 2 5 4 2 0 0 0 0 0 0 0 0 1 2 2 2 1 1 1 1 0 0 0 0 0 0 0 0 0 0 0 0 0 1 2 2
0 0 0 0 0 0 0 0 0 1 2 2 2 4 10 12 7 3 2 2 1 1 0 0 0 0 1 1 2 2 2 2 1 0 0 0 0 0 0 0 0 0 0 0 0 0 1 2 1
0 0 0 0 0 0 0 0 0 1 2 3 6 11 19 19 12 5 4 5 4 2 0 0 0 0 0 1 2 2 1 1 0 0 0 0 0 0 0 0 0 0 0 0 0 0 1 1 0
0 0 0 0 0 0 0 0 0 0 1 4 11 21 27 22 12 6 5 6 4 2 1 0 0 0 0 0 1 1 0 0 0 0 0 0 0 0 0 0 0 0 0 0 0 0 0 0 0
0 0 0 0 0 0 0 0 0 1 1 4 13 24 28 21 12 6 4 4 3 2 2 2 2 1 0 0 0 0 0 0 0 0 0 0 0 0 0 0 0 0 0 0 0 0 0 0 0
0 0 0 0 0 0 0 0 1 2 4 7 13 20 22 18 12 9 7 5 3 4 4 5 4 4 2 1 1 0 0 0 0 0 0 0 0 0 0 0 0 0 0 0 0 0 0 0 0
0 0 0 0 0 0 0 0 1 2 5 8 11 14 15 13 12 14 13 8 6 6 9 9 8 6 5 3 1 0 0 0 0 0 0 0 0 0 0 0 0 0 0 0 0 0 0 0 0
0 0 0 0 0 0 0 0 2 4 6 8 10 11 12 11 12 16 15 11 9 10 13 13 10 8 7 5 2 0 0 0 0 0 0 0 0 0 0 0 1 1 1 1 0 0 0 0 0
0 0 0 0 0 0 0 1 5 8 9 10 11 13 15 14 14 15 16 12 10 13 17 15 10 8 9 7 4 2 1 1 0 0 0 0 0 0 0 0 1 2 2 1 1 1 0 0 0
0 0 0 0 0 0 0 2 6 9 10 12 15 18 21 20 17 17 18 15 15 17 20 19 13 10 10 9 7 4 3 2 1 0 0 1 1 1 0 0 0 1 2 2 1 1 1 0 0
0 0 0 0 0 0 0 2 6 9 10 13 18 22 26 26 25 24 24 23 24 26 27 25 21 17 15 12 10 7 4 4 3 2 1 1 2 1 1 1 1 0 1 2 2 1 1 1 1
0 0 0 0 0 0 0 2 6 10 13 16 22 27 29 29 32 34 34 32 34 37 37 34 30 27 23 18 14 9 4 3 4 3 2 1 1 1 2 2 1 1 1 1 1 1 1 2 2
0 0 0 0 0 0 0 1 6 10 14 17 22 28 31 33 37 42 43 41 43 47 46 42 39 35 29 23 17 12 7 5 4 3 2 1 1 1 2 2 2 1 2 2 1 1 2 2 3
0 0 0 0 0 0 0 1 5 11 15 19 22 27 33 36 40 46 49 48 48 49 48 44 43 40 36 29 21 17 16 14 10 6 4 2 2 2 3 3 2 2 3 3 2 2 3 3 4
0 0 0 0 0 0 0 1 4 9 15 20 24 29 35 37 40 46 50 51 49 47 44 41 42 42 42 38 28 23 23 21 16 9 5 3 3 3 4 3 3 3 3 2 2 2 4 5 5
0 0 0 0 0 0 0 0 2 5 10 17 25 31 36 37 38 42 46 48 47 44 40 38 40 42 44 41 33 28 26 24 17 11 7 4 3 4 4 4 3 3 3 1 1 1 2 4 5
0 0 0 0 0 0 0 0 1 3 6 12 21 30 35 36 37 39 42 43 41 39 38 39 40 40 39 36 33 30 29 25 20 15 11 7 4 4 4 4 4 3 3 2 1 1 1 2 3
0 0 0 0 0 0 0 0 1 2 4 9 17 28 33 35 38 40 42 41 36 34 37 41 42 39 33 30 29 29 29 27 22 16 12 8 5 5 6 6 5 4 3 3 3 2 1 1 1
0 0 0 0 0 0 0 0 0 2 5 8 15 25 33 37 40 40 41 38 34 32 35 40 42 38 30 26 26 25 24 22 19 14 10 8 7 8 9 10 8 6 5 4 5 5 4 3 3
0 0 0 0 0 0 0 0 1 2 5 9 16 25 34 39 41 41 40 37 33 31 31 35 38 37 31 27 23 19 16 14 13 11 9 9 11 12 13 12 9 8 8 9 9 8 7 6 5
0 0 0 0 0 0 0 0 1 2 5 10 16 25 36 42 44 43 41 38 34 31 30 31 35 36 33 28 21 14 10 9 9 10 11 12 13 14 13 12 10 9 11 13 13 11 8 7 7
0 0 0 0 0 0 0 0 0 1 4 10 17 27 40 48 49 49 47 42 39 35 32 31 33 35 33 27 20 14 11 10 9 10 12 11 11 12 12 11 10 10 11 14 14 11 8 6 6
0 0 0 0 0 0 0 0 0 0 3 10 18 29 42 51 53 54 51 48 45 39 34 33 34 33 30 26 20 16 14 12 10 11 11 9 8 9 11 11 11 10 11 12 12 11 8 5 4

GEFSSGP_con_prob3kmehi_180.txt.gz
EHI
7 20 40 47 30 10 1 0 0 0 0 0 0 0 0 0 0 1 5 11 11 5 1 0 0 0 0 0 0 0 0 0 0 0 0 0 0 0 0 0 0 1 0 0 0 1 2 3 3
6 19 34 33 18 5 0 0 0 0 0 0 0 0 0 0 1 2 5 8 9 6 3 1 1 0 0 0 0 0 0 0 0 0 0 0 0 0 0 0 0 1 0 0 0 1 2 3 2
9 17 22 15 5 1 0 0 0 0 0 0 0 0 0 0 1 2 4 6 9 9 7 4 2 1 0 0 0 0 0 0 0 0 0 0 0 0 0 0 0 0 0 0 0 1 1 1 1
13 13 10 5 1 0 0 0 0 0 0 0 0 0 0 0 0 1 3 7 13 13 8 5 4 1 0 0 0 0 0 0 0 0 0 0 0 0 0 0 0 0 0 0 0 0 0 0 0
11 8 4 1 0 0 0 0 0 0 0 0 0 0 0 0 0 1 3 8 15 16 10 6 4 2 0 0 0 0 0 0 0 0 0 0 0 0 0 0 0 0 0 0 0 0 0 0 0
6 3 1 0 0 0 0 0 0 0 0 0 1 1 1 0 0 1 4 9 16 20 13 6 4 2 0 0 0 0 0 0 0 0 0 0 0 0 0 0 0 0 0 0 0 0 0 0 0
2 1 0 0 0 0 0 0 0 0 0 0 1 2 3 2 2 2 5 10 17 20 13 5 2 2 1 1 1 0 0 0 0 0 0 0 0 0 0 0 0 0 0 0 0 0 0 0 0
1 0 0 0 0 0 0 0 0 0 1 0 2 5 8 8 6 5 6 10 16 17 12 7 5 5 4 4 4 3 1 1 1 1 1 1 0 0 0 0 0 0 0 0 0 0 0 0 0
0 0 0 0 0 0 0 0 0 1 2 2 5 11 14 12 9 7 8 12 14 16 14 12 11 9 8 7 7 6 3 2 2 2 3 3 1 1 1 2 1 0 0 0 0 0 0 0 0
0 0 0 0 0 0 0 0 0 1 2 4 12 18 16 12 11 11 13 15 16 15 14 14 13 10 8 8 8 6 3 1 1 3 5 4 2 3 3 4 2 0 0 0 0 0 0 0 0
0 0 0 0 0 0 0 0 0 0 1 7 18 21 16 12 14 18 20 21 20 16 14 13 11 9 9 8 8 5 3 2 2 3 4 2 1 2 4 3 1 1 1 1 1 1 0 0 0
0 0 0 0 0 0 0 0 0 0 1 8 17 20 16 14 16 22 28 29 27 23 19 17 15 13 12 12 9 6 4 4 6 8 6 2 0 1 3 2 1 1 2 2 2 1 1 0 0
0 0 0 0 0 0 0 0 0 1 1 6 12 17 17 16 19 27 34 37 37 33 27 25 25 22 19 15 11 7 6 6 10 13 11 6 2 2 3 4 3 1 2 3 3 2 2 2 1
0 0 0 0 0 0 0 0 1 1 1 3 9 14 18 22 28 37 42 45 47 45 40 36 34 30 24 17 12 10 8 8 12 18 17 10 6 5 6 6 4 2 2 3 4 4 4 4 4
0 0 0 0 0 0 0 0 2 3 2 4 9 14 21 29 38 46 51 52 56 57 54 46 38 34 29 22 16 13 10 10 15 21 21 14 10 10 10 8 6 5 5 5 4 3 4 4 4
0 0 0 0 0 0 0 1 3 4 5 7 12 20 29 37 43 51 56 58 62 65 63 51 40 38 36 30 24 18 13 11 15 21 21 16 13 12 12 10 9 9 8 6 3 2 2 3 3
0 0 0 0 0 0 0 2 4 5 7 12 19 31 42 46 49 55 59 62 67 71 69 55 43 42 42 36 31 24 18 15 15 18 18 16 14 14 13 11 11 10 9 7 3 1 1 1 1
0 0 0 0 0 0 0 3 5 6 8 16 28 44 54 57 58 61 64 67 72 74 71 60 50 48 45 39 34 30 25 22 21 20 19 18 16 15 13 12 13 12 10 8 4 1 1 0 0
0 0 0 0 0 0 1 4 7 8 10 19 33 50 60 66 68 70 71 73 75 77 75 68 60 55 49 41 36 33 30 29 29 28 26 22 19 16 13 12 15 16 13 10 5 2 2 1 1
0 0 0 0 0 0 1 4 8 9 11 18 31 47 60 69 76 79 79 77 78 80 79 73 67 63 55 45 37 32 31 32 33 33 31 26 22 19 16 16 17 17 15 12 9 7 5 3 1
0 0 0 0 0 0 0 3 8 10 10 14 24 39 54 66 77 84 84 81 81 82 79 73 69 65 60 50 40 34 35 35 33 32 30 27 25 22 21 21 20 17 17 16 14 12 9 5 2
0 0 0 0 0 0 0 3 8 10 10 12 20 33 47 60 72 83 85 82 82 82 79 74 70 67 61 52 44 42 41 38 32 28 28 27 25 22 22 24 23 21 21 20 16 13 10 7 4
0 0 0 0 0 0 0 1 4 8 10 14 23 34 46 56 67 79 83 83 83 84 81 78 75 70 62 52 47 45 41 35 28 25 25 25 23 22 22 25 26 25 23 20 16 12 10 10 8
0 0 0 0 0 0 0 0 2 5 8 14 24 37 50 59 67 76 81 83 84 84 81 79 78 71 62 52 46 44 39 33 28 25 25 24 22 21 22 25 27 25 21 19 18 15 14 13 12
0 0 0 0 0 0 0 0 2 4 7 11 22 38 52 61 68 75 79 81 82 80 78 77 75 70 61 52 47 44 40 35 31 29 28 25 21 21 22 24 26 23 20 20 20 18 16 15 13
0 0 0 0 0 0 0 1 3 5 6 11 21 36 49 58 66 72 75 77 76 75 74 75 75 69 61 54 51 49 44 38 33 30 29 26 23 23 24 26 27 24 21 22 23 20 20 19 17
0 0 0 0 0 0 0 2 5 6 7 11 22 35 44 54 62 67 71 72 72 72 73 75 75 70 63 58 54 49 45 39 32 29 28 26 25 26 28 29 28 26 24 26 26 23 21 22 22
0 0 0 0 0 0 0 1 5 7 8 12 23 34 41 49 57 63 67 70 70 73 74 74 74 70 64 59 52 46 41 36 31 29 29 29 27 27 27 27 26 25 25 27 27 23 19 20 22
0 0 0 0 0 0 0 0 2 5 8 13 24 33 37 43 52 61 68 70 71 73 74 75 75 70 63 56 49 44 38 33 31 30 30 30 28 26 24 23 22 22 23 24 24 20 17 17 17
0 0 0 0 0 0 0 0 1 3 8 16 24 31 37 41 49 60 69 73 73 73 74 77 76 70 62 56 49 44 38 32 30 30 29 29 27 25 23 21 20 19 20 21 20 18 16 15 14

GEFSSGP_con_prob3kmehi_186.txt.gz
EHI
11 7 3 2 1 0 0 0 0 0 0 0 0 0 0 0 0 0 0 0 0 0 0 0 0 0 0 0 0 0 0 0 0 0 0 0 0 0 0 0 0 0 0 0 1 2 2 2 1
5 3 2 1 0 0 0 0 0 0 0 0 0 0 0 0 0 0 0 0 0 0 0 0 0 0 0 0 0 0 0 0 0 0 0 0 0 0 0 0 0 0 0 0 0 1 1 1 0
1 1 1 1 0 0 0 0 0 0 0 0 0 0 0 0 0 0 0 0 0 0 0 0 0 0 0 0 0 0 0 0 0 0 0 0 0 0 0 0 0 0 0 0 0 0 0 0 0
0 0 1 1 0 0 0 0 0 0 0 0 1 1 0 0 1 2 2 2 1 0 0 0 0 0 0 0 0 0 0 0 0 0 0 0 0 0 0 0 0 0 0 0 0 0 0 0 0
0 0 0 0 0 0 0 0 0 0 0 2 3 2 1 4 8 8 5 3 2 1 0 0 0 0 0 0 0 0 0 0 0 0 0 0 0 0 0 0 0 0 0 0 0 0 0 0 0
1 1 1 0 0 0 0 1 2 1 1 3 3 1 3 11 18 15 8 3 3 2 1 0 0 0 0 0 0 0 0 0 0 0 0 0 0 0 0 0 0 0 0 0 0 0 0 0 0
1 1 1 0 0 0 0 1 3 2 1 1 2 1 5 16 25 21 11 5 4 3 1 0 0 0 0 0 0 0 0 0 0 0 0 0 0 0 0 0 0 0 0 0 0 0 0 0 0
0 0 0 0 0 0 0 1 2 2 1 0 1 1 7 21 32 28 16 9 5 2 0 0 0 0 0 0 0 0 0 0 0 0 0 0 0 0 0 0 0 0 0 0 0 0 0 0 0
0 0 0 0 0 0 0 0 1 2 2 2 4 8 15 28 39 37 25 15 7 2 0 0 0 0 0 0 0 0 0 0 0 0 0 0 0 0 0 0 0 0 0 0 0 0 0 0 0
0 0 0 0 0 0 0 0 2 4 5 6 10 17 24 32 40 40 31 20 11 4 1 1 0 0 0 0 0 0 0 0 0 0 0 0 0 0 0 0 0 0 0 0 0 0 0 0 0
0 0 0 0 0 0 0 0 3 7 7 7 13 20 25 29 35 38 32 23 15 9 6 3 1 0 0 0 0 0 0 0 0 0 0 0 0 0 0 0 0 0 0 0 0 0 0 0 0
0 0 0 0 1 1 0 1 3 7 8 8 11 16 20 24 28 33 31 26 21 19 16 12 7 4 2 1 0 0 0 0 0 0 0 0 0 0 0 0 0 0 0 0 0 0 0 0 0
0 0 0 0 1 1 1 2 4 8 10 11 12 14 19 22 24 27 30 28 28 29 29 24 17 12 8 5 3 1 0 0 0 0 0 0 0 0 0 0 0 0 0 0 0 0 0 0 0
0 0 0 0 1 1 1 3 7 11 14 15 15 17 21 23 23 26 29 32 34 35 35 32 26 20 15 11 7 4 1 1 1 1 0 0 0 0 0 0 0 0 0 0 0 0 0 0 0
0 0 0 0 0 0 1 3 8 13 14 15 17 20 23 24 25 29 33 35 37 35 34 33 30 26 22 16 10 6 4 2 2 2 1 1 1 0 0 0 0 0 0 0 0 0 0 0 0
0 0 0 0 0 0 0 2 7 11 12 13 17 22 25 25 25 30 36 39 38 35 33 34 33 30 28 21 13 8 5 2 2 2 3 3 2 1 0 0 0 0 0 0 0 0 0 0 0
0 0 0 0 0 0 0 1 4 7 11 13 18 25 30 30 28 31 39 44 41 37 35 34 33 31 28 23 15 8 5 3 2 3 5 5 4 2 1 0 0 0 0 0 0 0 0 0 0
0 0 0 0 0 0 0 1 2 5 10 15 20 28 35 37 35 36 43 46 43 39 37 34 32 29 25 20 14 9 6 4 3 4 5 6 6 5 4 2 1 1 1 0 0 0 0 0 0
0 0 0 0 0 0 1 1 1 4 10 16 22 29 36 41 44 44 47 50 47 41 38 35 31 27 22 17 13 9 7 6 4 4 4 6 7 8 6 4 3 2 1 0 0 0 0 0 0
0 0 0 0 0 1 2 2 1 4 9 15 22 30 37 43 47 50 53 55 52 45 39 35 32 27 21 17 14 11 8 6 5 4 4 6 8 8 7 5 3 2 1 0 0 0 0 0 0
0 0 0 0 0 1 2 2 1 3 8 14 22 31 39 44 47 53 59 61 58 50 41 36 32 27 22 20 18 14 10 8 7 5 4 5 6 7 7 5 3 2 1 0 0 0 0 0 0
0 0 0 0 0 0 1 1 0 3 9 16 24 33 40 44 47 53 61 66 64 56 46 38 32 28 25 23 21 18 15 12 9 6 4 4 5 6 7 6 4 2 1 1 1 1 0 0 0
0 0 0 0 0 0 0 0 0 4 11 19 26 35 43 47 49 54 62 67 67 61 52 44 37 31 26 24 22 19 17 15 11 7 5 3 4 5 6 7 6 4 3 2 2 2 1 1 1
0 0 0 0 0 0 0 0 0 3 10 18 27 38 47 52 54 58 64 69 69 65 59 52 45 36 27 23 21 18 17 16 13 9 6 5 4 5 6 7 6 5 4 4 4 3 3 2 2
0 0 0 0 0 0 0 0 0 2 7 15 26 39 50 57 61 63 67 71 70 68 63 56 48 38 30 25 22 20 17 15 13 10 9 8 7 6 5 6 5 5 5 6 5 5 4 3 3
0 0 0 0 0 0 0 0 1 4 8 15 26 39 51 60 64 66 67 67 68 67 62 55 47 38 31 28 25 22 18 14 13 12 11 11 10 8 6 5 4 4 5 6 7 6 5 3 3
0 0 0 0 0 0 0 1 3 7 12 18 27 37 47 55 60 62 63 62 62 61 56 50 45 38 32 29 27 22 17 15 15 14 11 10 9 8 8 6 5 5 5 6 7 6 5 4 3
0 0 0 0 0 0 0 1 4 10 16 22 27 34 42 49 52 54 57 57 57 54 48 44 42 38 33 28 25 19 16 16 16 13 9 6 6 7 8 9 8 6 6 6 6 5 4 3 3
0 0 0 0 0 0 0 0 4 11 20 26 29 33 41 46 47 48 51 55 56 52 45 42 40 38 35 30 24 19 16 15 14 11 7 5 4 5 7 9 8 6 5 6 5 4 3 2 1
0 0 0 0 0 0 0 1 4 12 21 29 31 33 40 46 45 45 49 54 58 55 47 43 41 40 38 33 25 19 16 14 11 10 8 6 4 4 6 8 7 5 5 6 6 4 2 1 0

GEFSSGP_con_prob3kmehi_192.txt.gz
EHI
13 6 1 0 0 0 0 0 0 0 0 0 0 1 2 2 1 1 1 1 3 3 3 3 3 4 5 6 6 6 6 6 6 6 6 6 6 4 3 3 3 3 4 4 4 4 4 4 3
8 4 0 0 0 0 0 0 0 0 0 0 0 1 2 2 2 2 2 2 3 3 3 3 3 3 4 4 5 6 6 6 6 6 6 6 5 4 3 3 3 3 4 4 5 5 5 4 3
2 1 0 0 0 0 0 0 0 0 0 0 0 1 1 3 3 3 3 3 3 3 3 3 3 3 4 4 4 4 4 4 4 4 4 4 4 3 3 3 3 3 3 4 5 5 4 3 3
0 0 0 0 0 0 0 0 0 0 0 0 0 0 1 2 3 4 3 3 3 3 3 3 3 4 4 4 3 3 3 3 3 3 3 3 3 3 3 3 3 3 3 3 4 4 3 3 3
0 0 0 0 0 0 0 0 0 0 0 0 0 0 1 3 4 5 4 3 3 3 3 3 3 4 5 4 3 3 3 3 3 3 3 3 3 3 3 3 3 3 3 3 3 3 3 3 3
0 0 0 0 0 0 0 0 0 0 0 0 0 0 1 3 5 5 4 3 3 3 3 3 3 4 5 5 4 3 3 3 3 3 3 3 3 3 3 3 3 3 3 3 3 3 3 3 3
0 0 0 0 0 0 0 0 1 1 1 0 0 0 2 3 5 6 5 4 3 3 3 3 3 3 4 5 4 3 3 3 3 3 3 3 3 3 3 3 3 3 3 4 3 3 3 3 3
0 0 0 0 0 0 0 0 1 1 1 0 0 0 2 5 6 5 4 3 3 3 3 3 3 3 3 4 3 3 3 3 3 3 3 3 3 3 3 3 3 3 4 4 4 3 3 3 3
0 0 0 0 0 0 0 0 0 0 0 0 0 1 5 9 9 6 3 3 3 3 3 3 3 3 3 3 3 3 3 3 3 3 3 4 3 3 3 3 3 3 4 4 4 4 3 3 3
0 0 0 0 0 0 0 0 0 0 0 1 2 5 10 14 11 6 3 3 3 3 3 3 3 3 3 3 3 3 3 3 3 3 4 4 4 3 3 3 3 3 3 4 4 4 4 3 3
0 0 0 0 0 0 0 0 0 0 0 2 5 11 16 15 10 5 3 3 3 3 3 3 3 3 3 3 3 3 3 3 3 3 3 4 3 3 3 3 3 3 3 3 3 4 3 3 2
0 0 0 0 0 0 0 0 0 0 0 3 9 17 18 13 7 4 3 3 3 3 3 3 3 3 3 3 3 3 3 3 3 3 3 3 3 2 1 1 3 3 3 3 3 3 3 1 1
0 0 0 0 0 0 0 0 0 0 2 6 14 19 17 10 5 3 3 4 3 3 3 3 3 3 3 3 3 3 3 3 3 3 3 3 2 1 0 1 2 2 3 3 3 3 2 1 0
0 0 0 0 0 0 0 0 0 1 4 9 15 17 15 10 6 5 5 5 5 4 3 4 3 3 3 3 3 3 3 3 3 3 3 3 1 0 0 0 1 1 1 2 2 2 1 1 1
0 0 0 0 0 0 0 0 0 2 6 10 12 12 12 11 8 7 7 7 6 5 4 5 5 4 3 3 3 3 3 3 2 1 2 2 1 0 0 0 0 0 0 0 0 1 1 2 2
0 0 0 0 0 0 0 0 0 3 7 10 10 9 9 10 9 8 7 8 8 7 7 9 10 9 7 6 5 4 3 3 2 1 1 2 1 0 0 0 0 0 0 0 0 0 2 3 3
0 0 0 0 0 0 0 0 1 4 7 8 8 8 8 8 8 8 8 8 9 10 11 14 18 18 14 11 7 5 4 3 2 1 0 1 1 0 0 0 0 1 0 0 0 0 1 2 1
0 0 0 0 0 0 0 0 1 4 5 4 5 6 6 6 7 9 9 9 11 14 15 18 23 23 19 15 11 7 5 4 2 1 0 0 0 0 0 0 0 0 0 0 0 0 0 1 1
0 0 0 0 0 0 0 0 1 3 4 4 5 6 6 5 6 9 11 11 14 19 21 22 24 23 20 16 13 10 7 5 2 1 0 0 0 0 0 1 0 0 0 0 0 0 1 1 1
0 0 0 0 0 0 0 0 1 3 3 3 5 6 6 7 8 12 15 16 18 22 24 23 23 21 18 15 13 11 9 7 4 2 1 1 1 0 0 0 0 0 0 0 0 1 2 2 1
0 0 0 0 0 0 0 0 0 2 2 2 3 4 6 8 12 16 19 19 19 22 24 23 21 18 16 15 13 12 11 10 7 5 3 1 1 0 0 0 0 0 0 0 0 1 2 2 2
0 0 0 0 0 0 0 0 0 1 2 2 3 4 6 10 15 19 21 21 21 23 24 21 17 14 14 15 15 14 14 13 10 6 4 2 0 0 0 0 0 0 0 0 0 0 1 2 2
0 0 0 0 0 0 0 0 0 1 2 4 5 7 9 13 17 20 22 24 25 25 25 20 15 12 12 13 14 15 15 13 9 5 2 1 0 0 0 0 0 0 0 0 0 0 1 2 3
0 0 0 0 0 0 0 0 0 1 2 5 8 11 13 17 21 22 24 26 29 30 29 24 17 13 11 11 11 12 12 11 8 4 2 1 0 0 0 0 0 0 0 0 0 0 1 2 3
0 0 0 0 0 0 0 0 0 0 1 4 9 13 14 18 23 25 25 27 32 35 35 31 24 17 13 11 9 9 10 9 7 5 4 3 1 1 0 0 0 0 0 0 0 0 1 1 2
0 0 0 0 0 0 0 0 0 1 2 5 10 12 14 18 23 26 26 28 34 40 41 38 32 23 17 14 10 9 9 9 7 5 4 4 3 2 1 1 1 0 0 0 0 0 0 1 2
0 0 0 0 0 0 0 0 0 1 5 8 12 14 15 18 22 25 26 28 32 38 42 42 37 28 21 17 13 11 9 8 7 6 5 4 4 3 3 2 2 1 0 0 0 0 1 2 2
0 0 0 0 0 0 0 0 0 2 5 10 14 17 17 18 22 25 28 29 30 33 37 39 37 30 23 19 15 11 8 8 8 7 6 5 4 3 3 3 3 2 2 1 0 1 1 2 2
0 0 0 0 0 0 0 0 1 2 3 7 13 16 17 18 21 25 29 32 31 31 33 35 34 31 25 20 16 11 8 9 9 7 6 5 4 3 3 3 3 4 4 2 1 2 2 2 2
0 0 0 0 0 0 0 1 2 2 2 4 11 15 16 17 19 24 30 34 34 34 34 33 32 30 26 21 15 10 8 9 9 7 6 5 4 3 3 3 4 4 4 3 2 3 4 3 2

GEFSSGP_con_prob3kmehi_198.txt.gz
EHI
16 15 15 12 4 0 0 0 0 0 0 0 0 0 0 0 0 0 0 0 0 0 0 1 2 2 1 0 0 0 0 0 0 0 0 0 0 0 0 0 0 0 0 0 0 0 0 0 0
11 11 12 9 3 0 0 0 0 0 0 0 0 0 0 0 0 0 0 0 0 0 0 0 1 1 1 0 0 0 0 0 0 0 0 0 0 0 0 0 0 0 0 0 0 0 0 0 0
6 6 6 4 1 0 0 0 0 0 0 0 0 0 0 0 0 0 0 0 0 0 0 0 0 0 0 0 0 0 0 0 0 0 0 0 0 0 0 0 0 0 0 0 0 0 0 0 0
3 3 3 1 0 0 0 0 0 0 0 0 0 0 0 0 0 0 0 0 0 0 0 0 1 1 0 0 0 0 0 0 0 0 0 0 0 0 0 0 0 0 0 0 0 0 0 0 0
1 1 1 0 0 0 0 0 0 0 0 0 0 0 0 0 0 0 0 0 0 0 0 1 2 2 1 0 0 0 0 0 0 0 0 0 0 0 0 0 0 0 0 0 0 0 0 1 1
0 0 0 0 0 0 0 0 0 0 0 0 0 0 0 0 0 0 0 0 0 0 0 1 2 2 1 0 0 0 0 0 0 0 0 0 0 0 0 0 0 0 0 0 0 0 0 0 0
0 0 0 0 0 0 0 0 0 0 0 0 0 0 0 1 0 0 0 0 0 0 0 0 1 1 0 0 0 0 0 0 0 0 0 0 0 0 0 0 0 0 0 0 0 0 0 0 0
0 0 0 0 0 0 0 0 0 0 0 0 0 0 2 3 1 0 0 0 0 0 0 0 0 0 0 0 0 0 0 0 0 0 0 0 0 0 0 0 0 0 0 0 0 0 0 0 0
0 0 0 0 0 0 0 0 0 0 0 0 0 1 3 5 2 0 0 0 0 0 0 0 0 0 0 0 0 0 0 0 0 0 1 0 0 0 0 0 0 0 0 0 0 0 0 0 0
0 0 0 0 0 0 0 0 0 0 0 0 1 2 5 6 3 1 0 0 0 0 0 0 0 0 0 0 0 0 0 0 0 0 0 0 0 0 0 0 0 0 0 0 0 0 0 0 0
0 0 0 0 0 0 0 0 0 0 0 1 3 5 7 7 4 1 0 0 0 0 0 0 0 0 0 0 0 0 0 0 0 0 0 0 0 0 0 0 0 0 0 0 0 0 0 0 0
0 0 0 0 0 0 0 0 0 0 0 1 4 7 9 8 4 1 0 0 1 1 1 1 1 1 1 1 0 0 0 0 0 0 0 0 0 0 0 0 0 0 0 0 0 0 0 0 0
0 0 0 0 0 0 0 0 0 0 1 3 5 7 8 7 5 3 1 1 2 2 2 2 3 4 4 2 1 0 0 0 0 0 0 0 0 0 0 0 0 0 0 0 0 0 0 0 0
0 0 0 0 0 0 0 0 0 2 5 7 7 7 7 7 6 6 5 3 3 3 2 3 5 6 5 3 1 0 0 0 0 0 0 0 0 0 0 0 0 0 0 0 0 0 0 1 1
0 0 0 0 0 0 0 0 1 4 7 10 9 7 6 7 7 8 8 6 5 4 3 4 5 7 7 6 3 2 1 1 0 0 0 0 0 0 0 0 0 0 0 1 0 0 0 0 0
0 0 0 0 0 0 0 0 1 5 8 10 10 8 9 9 8 9 10 9 8 8 9 9 8 9 11 11 8 5 3 2 0 0 1 1 1 0 0 1 1 0 0 0 0 0 0 0 0
0 0 0 0 0 0 0 0 1 4 7 9 10 12 14 12 10 11 12 11 11 13 17 19 17 16 18 18 15 10 8 5 3 1 2 2 1 0 0 1 1 0 0 0 0 0 0 0 0
0 0 0 0 0 0 0 0 1 4 6 9 12 15 17 14 12 13 14 14 14 18 25 29 29 28 26 23 19 16 13 9 5 3 3 3 2 1 1 1 1 0 1 1 1 1 0 0 1
0 0 0 0 0 0 0 0 1 3 5 8 13 16 16 15 15 16 18 18 20 26 33 38 39 39 35 28 21 17 14 9 5 3 3 3 3 3 2 2 2 1 1 1 1 1 1 1 2
0 0 0 0 0 0 0 0 0 2 4 7 11 12 12 14 17 19 20 22 26 34 40 42 44 45 40 31 22 16 13 9 4 3 3 4 4 3 3 3 3 3 2 1 1 1 2 2 3
0 0 0 0 0 0 0 0 0 2 5 8 10 8 8 12 18 22 22 22 26 35 41 42 45 47 42 32 23 18 15 12 8 7 7 8 7 6 5 5 4 4 3 2 2 3 2 2 3
0 0 0 0 0 0 0 0 1 5 9 11 11 10 10 13 19 24 25 23 24 30 37 41 45 46 41 32 24 20 18 14 11 11 11 12 11 10 9 6 5 5 4 2 2 3 3 2 2
0 0 0 0 0 0 0 0 1 5 10 11 13 15 17 18 22 26 28 26 25 28 33 40 47 48 42 34 27 23 17 12 10 11 13 14 14 12 9 7 5 5 4 3 3 4 5 4 4
0 0 0 0 0 0 0 0 1 3 6 7 12 18 22 24 25 27 28 29 29 31 34 42 51 53 47 40 33 26 18 11 10 12 13 13 12 10 8 6 6 6 6 6 6 6 6 4 3
0 0 0 0 0 0 0 0 1 2 2 4 9 15 21 24 26 28 31 34 37 38 42 50 58 57 51 46 39 30 21 15 13 13 13 11 8 7 7 7 8 8 7 7 8 7 6 3 2
0 0 0 0 0 0 0 0 1 1 1 3 7 14 19 24 28 30 33 37 41 44 50 58 62 60 55 49 43 36 27 19 15 14 13 10 6 4 7 9 10 10 9 8 9 8 6 4 3
0 0 0 0 0 0 0 0 0 0 1 4 9 17 23 27 28 28 30 35 40 45 50 57 61 60 54 48 42 37 32 24 18 15 13 11 9 7 8 9 9 10 11 11 11 9 7 6 5
0 0 0 0 0 0 0 0 1 2 3 6 12 19 26 28 26 25 27 32 38 43 47 52 57 56 50 44 38 34 31 27 21 17 14 13 14 13 11 9 9 10 12 13 13 11 8 7 7
0 0 0 0 0 0 0 1 3 4 4 7 12 19 24 26 25 24 28 34 39 43 49 52 54 52 49 46 40 35 31 27 24 20 17 16 17 15 13 10 10 12 14 15 15 13 10 9 9
0 0 0 0 0 0 0 1 3 4 5 7 13 19 23 25 25 26 30 37 42 46 51 54 53 52 52 52 46 39 33 29 26 22 19 18 17 15 12 11 12 13 14 16 17 15 12 10 9

GEFSSGP_con_prob3kmehi_204.txt.gz
EHI
19 29 44 50 32 10 1 0 0 0 0 0 0 0 0 0 0 0 2 5 6 3 2 4 4 2 0 0 0 0 0 0 0 0 0 0 0 0 0 1 2 3 3 2 1 0 0 0 0
22 34 45 39 20 5 0 0 0 0 0 0 0 0 0 0 0 0 1 4 6 5 3 4 4 2 0 0 0 0 0 0 0 0 0 0 0 0 0 0 1 2 3 2 1 0 0 0 0
27 36 37 22 7 1 0 0 0 0 0 0 0 0 0 0 0 0 1 3 7 8 7 5 4 2 0 0 0 0 0 0 0 0 0 0 0 0 0 0 0 1 2 1 0 0 0 0 0
30 30 22 8 1 0 0 0 0 0 0 0 0 0 0 0 0 0 1 2 6 9 8 5 3 2 0 0 0 0 0 0 0 0 0 0 0 0 0 0 0 0 0 0 0 0 0 0 0
21 16 8 2 0 0 0 0 0 0 0 0 1 2 2 1 1 1 0 1 4 8 7 4 2 1 0 0 0 0 0 0 0 0 0 0 1 1 0 0 0 0 0 0 0 0 0 0 0
7 4 1 0 0 0 0 0 0 0 0 0 2 5 4 3 3 2 1 2 5 8 6 3 2 1 1 0 0 0 0 0 0 0 0 0 1 1 0 0 0 0 0 0 0 0 0 0 0
1 0 0 0 0 0 0 0 0 0 0 0 3 6 7 5 4 3 2 2 4 5 5 3 2 2 2 1 0 0 0 0 0 0 0 0 1 1 0 0 0 0 0 0 0 0 0 0 0
1 0 0 0 0 0 0 0 0 0 0 0 3 6 7 6 4 3 2 1 1 2 3 3 2 3 3 2 2 1 1 0 0 0 0 0 0 0 0 0 0 0 0 0 0 0 0 0 1
1 0 0 0 0 0 0 0 0 0 1 1 3 6 7 6 5 3 2 1 0 1 2 3 3 2 2 3 4 3 2 1 0 0 1 1 1 1 1 2 2 1 0 0 0 0 0 0 1
1 0 0 0 0 0 0 0 0 1 2 4 5 6 8 7 6 5 4 2 1 1 2 3 3 2 1 3 5 4 4 4 2 1 3 3 1 1 3 5 3 1 0 0 1 1 0 0 1
0 0 0 0 0 0 0 0 0 1 3 6 8 8 8 9 8 7 6 3 1 1 2 3 4 3 2 3 3 4 6 7 5 3 4 3 2 2 4 5 4 1 0 1 2 3 2 0 0
0 0 0 0 0 0 0 0 0 1 4 7 10 9 9 10 9 8 8 6 4 3 4 6 8 8 7 4 2 2 5 6 6 5 5 3 2 2 2 4 4 2 1 1 3 4 2 0 0
0 0 0 0 0 0 0 0 1 3 5 8 9 9 9 10 12 13 13 14 12 10 8 10 13 14 10 6 3 1 3 5 6 8 8 6 3 2 2 3 3 2 2 2 2 2 1 1 0
0 0 0 0 0 0 0 0 1 4 6 7 8 9 10 12 14 18 20 22 21 17 13 14 16 16 13 9 4 1 2 5 9 13 14 11 7 5 4 4 3 3 3 4 3 2 1 1 1
0 0 0 0 0 0 0 0 1 4 6 6 7 9 12 12 14 20 25 27 29 28 23 18 18 21 21 14 6 2 3 8 15 20 20 16 11 8 6 5 5 5 6 6 5 4 3 1 1
0 0 0 0 0 0 0 0 1 3 5 7 9 13 16 14 13 21 30 34 40 45 40 26 22 28 29 19 10 6 7 12 19 23 23 18 13 9 7 7 8 9 9 8 7 6 4 2 1
0 0 0 0 0 0 0 1 2 2 5 9 13 19 23 21 18 24 33 41 53 61 56 42 34 36 34 25 17 12 12 15 18 20 23 20 15 10 8 9 10 10 9 8 7 7 6 3 3
0 0 0 0 0 0 0 1 2 3 7 12 18 25 30 30 28 31 38 47 61 71 69 61 53 48 41 32 23 17 16 17 17 19 23 23 18 13 9 9 11 10 9 8 8 9 7 4 3
0 0 0 0 0 0 0 2 3 3 7 15 22 28 34 38 41 45 48 54 68 79 78 74 68 60 50 40 31 24 20 20 20 21 25 26 20 16 12 10 10 10 9 9 11 12 9 5 3
0 0 0 0 0 0 1 3 5 5 8 16 24 30 36 44 53 61 62 64 74 84 84 78 74 67 57 47 37 29 25 23 21 22 27 27 23 20 16 13 11 9 10 12 15 16 12 7 5
0 0 0 0 0 0 1 3 7 10 11 16 23 29 35 46 59 69 71 72 78 85 85 81 79 74 63 51 41 34 31 27 24 25 28 27 25 22 20 18 14 11 12 15 18 17 12 8 6
0 0 0 0 0 0 0 2 7 12 14 15 18 24 33 44 57 69 74 74 78 83 85 84 85 80 69 55 45 39 34 29 28 29 31 30 27 23 22 21 20 17 15 17 18 15 11 8 5
0 0 0 0 0 0 0 0 4 9 12 12 14 20 30 40 53 68 74 74 75 79 83 86 87 83 72 59 51 43 34 28 27 32 35 34 31 27 25 24 25 23 20 18 17 15 11 9 7
0 0 0 0 0 0 0 0 1 4 6 8 12 21 30 38 50 65 73 73 73 77 81 84 85 82 74 65 55 45 34 26 26 32 37 35 33 33 31 30 30 29 25 21 19 16 13 10 9
0 0 0 0 0 0 0 0 1 2 3 6 13 24 32 39 48 60 70 74 75 77 80 82 82 81 78 71 62 51 38 27 26 31 34 33 30 32 34 35 36 34 29 25 23 21 17 14 12
0 0 0 0 0 0 0 1 3 4 4 7 13 23 32 39 47 57 67 75 77 77 79 82 84 83 81 77 70 60 46 33 28 28 29 28 25 28 33 36 37 34 29 27 26 25 22 20 19
0 0 0 0 0 0 0 2 5 6 6 8 13 20 27 36 44 53 62 70 74 75 78 81 83 82 79 76 71 63 52 41 33 30 27 25 24 26 30 33 33 29 26 26 26 26 25 26 25
0 0 0 0 0 0 0 2 4 6 7 9 13 18 24 30 37 46 55 61 66 70 73 75 76 75 72 70 66 61 53 46 39 34 31 30 28 28 29 30 29 25 23 25 25 24 26 28 27
0 0 0 0 0 0 1 2 4 5 6 9 14 20 26 30 34 41 50 55 58 62 67 70 70 69 67 64 61 59 55 50 44 38 36 37 35 31 30 29 27 25 24 24 25 22 23 25 25
0 0 0 0 0 0 1 3 5 5 6 9 16 23 29 33 36 41 50 54 53 56 64 69 69 69 68 63 60 59 57 53 48 42 39 41 39 34 30 28 26 25 24 25 24 20 18 22 24

GEFSSGP_con_prob3kmehi_210.txt.gz
EHI
25 14 5 3 1 0 0 0 0 0 0 0 0 0 0 0 0 0 0 0 1 1 0 0 1 0 0 0 0 0 0 0 0 0 0 0 0 0 1 1 1 1 2 2 2 1 0 0 0
14 8 4 3 1 0 0 0 0 0 0 0 0 0 0 0 0 0 0 0 1 1 0 1 1 1 0 0 0 0 0 0 0 0 0 0 0 0 0 1 1 1 2 3 2 1 0 0 0
5 5 3 2 1 0 0 0 0 1 1 0 0 0 0 0 1 1 0 0 1 1 0 1 2 1 0 0 0 0 0 0 0 0 0 0 0 0 0 0 1 1 3 4 3 1 1 1 1
3 4 3 1 0 0 0 0 0 1 1 0 0 0 0 1 2 2 1 1 1 0 1 3 4 2 0 0 0 0 0 0 0 0 0 0 0 0 0 0 0 1 3 4 4 2 1 0 0
1 2 1 0 0 0 0 0 1 2 2 1 0 0 0 2 4 4 3 2 2 1 1 4 5 2 0 0 0 0 0 0 0 0 0 0 0 0 0 0 0 1 2 3 2 1 0 0 0
0 0 0 0 0 0 0 0 2 4 4 2 1 0 1 4 5 4 4 3 2 1 1 3 3 1 0 1 0 0 0 0 0 0 0 0 0 0 0 0 0 0 1 1 0 0 0 0 0
0 0 0 0 0 0 0 0 3 5 5 3 2 1 2 4 5 4 3 3 2 1 0 1 1 0 0 0 0 1 2 1 0 0 0 0 0 0 1 0 0 0 0 0 0 0 0 1 1
0 0 0 0 0 0 0 0 1 3 3 4 3 2 3 5 8 8 5 4 3 1 1 0 1 1 0 0 0 1 2 1 0 0 0 0 0 0 0 0 0 0 0 0 0 0 1 3 4
0 0 0 0 0 0 0 0 0 1 3 4 3 3 5 9 13 13 10 7 5 4 3 1 1 2 1 0 0 0 1 1 0 0 0 0 0 0 0 0 0 0 0 0 0 0 1 3 4
0 0 0 0 0 0 0 0 1 2 3 4 5 6 9 13 15 15 12 9 7 7 6 3 2 2 1 0 0 0 0 0 0 0 0 0 0 0 0 0 0 0 0 0 0 0 1 1 1
0 0 0 0 0 0 0 0 1 2 3 4 7 9 10 12 13 12 10 8 7 7 7 5 4 3 1 0 0 0 0 0 0 0 0 0 0 0 0 0 0 0 0 0 0 0 0 0 0
0 0 0 0 0 1 1 0 0 1 2 4 7 7 7 8 7 7 7 7 6 6 6 6 6 5 2 1 1 0 0 0 0 0 0 0 0 0 0 0 0 0 0 0 0 0 0 0 0
0 0 0 0 1 2 1 1 1 1 2 4 5 4 3 3 3 3 5 6 7 7 6 7 9 10 7 4 2 1 0 0 0 0 0 0 0 0 0 0 0 0 0 0 0 0 0 0 0
0 0 0 0 1 2 1 1 2 3 3 3 4 3 3 2 2 3 4 6 8 9 9 10 13 13 10 6 4 1 0 0 0 1 2 1 1 0 0 0 0 0 0 0 0 0 0 0 0
0 0 0 0 1 1 0 1 2 3 3 3 4 5 5 4 4 4 4 6 9 12 14 14 14 13 10 7 5 3 1 1 1 2 3 3 2 1 0 0 0 0 0 0 0 0 0 0 0
0 0 0 0 0 0 0 1 3 4 4 4 4 6 6 4 5 7 7 8 11 14 16 16 16 15 12 7 5 3 2 2 2 2 2 3 3 3 1 0 0 0 0 0 0 0 0 0 0
0 0 0 0 0 0 1 2 4 5 5 6 7 8 7 5 7 11 13 15 16 16 17 18 19 18 14 9 5 3 2 3 3 3 3 2 2 3 1 0 0 0 0 0 0 0 0 0 0
0 0 0 0 0 0 1 2 4 6 8 10 12 11 10 9 11 16 22 24 22 20 18 19 20 19 16 11 6 3 3 4 4 5 4 2 1 2 1 0 0 0 0 0 0 0 0 0 0
0 0 0 0 0 0 1 2 4 7 10 14 16 16 14 12 14 21 30 33 32 28 24 22 22 22 19 15 9 5 4 5 6 6 6 4 4 3 2 2 1 0 0 0 0 0 0 0 0
0 0 0 0 1 1 2 3 5 9 13 17 19 20 18 15 17 27 38 45 48 43 35 29 26 26 25 21 14 8 4 4 5 7 7 7 8 8 5 4 2 1 1 0 0 0 0 0 0
0 0 0 0 1 2 3 4 6 10 14 18 21 24 23 21 22 32 44 54 60 58 47 36 29 29 28 25 19 12 7 5 5 7 9 10 12 12 9 5 3 2 1 0 0 0 0 0 0
0 0 0 0 1 1 1 2 4 8 12 15 20 25 26 25 25 33 45 56 63 65 56 42 34 31 29 26 21 17 13 9 7 8 9 10 10 11 10 7 4 3 1 0 0 0 0 0 0
0 0 0 0 0 0 0 0 1 4 6 9 15 24 28 28 28 32 42 54 62 64 58 48 40 34 31 27 23 20 17 13 9 7 7 7 7 9 10 9 6 3 1 0 0 0 0 0 0
0 0 0 0 0 0 0 0 0 1 3 6 12 22 29 31 32 34 41 52 62 64 62 57 50 43 36 31 26 23 19 15 11 8 6 5 7 9 11 10 7 4 2 1 0 0 0 0 0
0 0 0 0 0 0 0 0 0 1 3 6 11 19 27 31 35 38 44 55 63 66 68 66 59 51 43 36 29 23 18 16 12 8 6 7 8 9 10 9 7 4 2 2 1 1 1 0 0
0 0 0 0 0 0 0 0 1 1 4 7 12 17 23 31 38 43 48 56 62 65 69 69 63 53 46 39 30 21 16 14 11 8 7 8 8 9 7 7 6 4 3 4 4 4 3 1 0
0 0 0 0 0 0 0 1 2 4 6 11 16 19 22 30 39 43 46 52 57 58 60 63 60 53 48 41 31 20 14 11 9 8 7 7 7 7 7 6 5 4 4 5 6 5 4 2 1
0 0 0 0 0 0 0 1 3 6 10 15 19 22 24 28 35 40 43 47 50 50 52 56 56 54 49 43 34 23 14 9 7 6 6 6 5 6 5 6 6 5 5 6 7 6 5 4 4
0 0 0 0 0 0 0 0 2 5 10 15 19 24 26 27 30 36 41 43 44 46 47 49 53 52 48 43 38 29 20 12 8 6 6 7 7 6 5 5 5 5 6 7 8 8 8 8 7
0 0 0 0 0 0 0 0 1 4 9 14 20 25 27 27 29 34 39 41 42 44 43 45 49 51 48 43 39 34 25 17 11 8 8 9 9 8 7 7 5 5 6 8 9 9 11 11 9

GEFSSGP_con_prob3kmehi_216.txt.gz
EHI
11 4 1 0 0 0 0 0 0 0 0 0 0 0 0 0 0 0 0 0 0 0 0 0 1 2 2 1 0 1 1 1 0 0 0 0 0 0 0 0 0 0 0 0 0 0 0 1 0
5 2 1 0 0 0 0 0 0 0 0 0 0 0 0 0 0 0 0 0 0 0 0 0 1 1 1 1 0 1 1 0 0 0 0 0 0 0 0 0 0 0 0 0 0 0 1 1 1
1 0 0 0 0 0 0 0 0 0 0 0 0 0 0 0 0 0 0 0 0 0 0 0 1 1 1 0 0 0 0 0 0 0 0 0 0 0 0 1 0 0 0 0 0 1 1 1 0
0 0 0 0 0 0 0 0 0 0 0 0 0 0 0 0 0 0 0 0 0 0 0 0 1 1 0 0 0 0 0 0 0 0 0 0 0 0 0 0 0 0 0 0 0 1 2 1 0
0 0 0 0 0 0 0 0 0 0 0 0 0 0 0 0 0 0 0 0 0 0 0 0 1 1 1 0 0 0 0 0 0 0 0 0 0 0 0 0 0 0 0 0 0 1 1 1 0
0 0 0 0 0 0 0 0 0 0 0 0 0 0 0 0 0 0 0 0 0 0 0 0 1 2 2 1 0 0 0 0 0 0 0 0 0 0 0 0 0 0 0 0 1 1 0 0 0
0 0 0 0 0 0 0 0 0 0 0 0 0 0 0 0 0 0 0 0 0 0 0 0 1 2 2 2 1 0 0 0 0 0 0 0 0 0 0 0 0 0 0 0 0 0 0 0 0
0 0 0 0 0 0 0 0 0 0 0 0 0 0 0 0 0 0 0 0 1 1 0 0 0 1 1 1 1 1 1 0 0 0 0 0 0 0 0 0 0 0 0 0 0 0 0 1 1
0 0 0 0 0 0 0 0 0 0 0 0 0 0 1 1 0 0 0 1 2 2 1 0 0 0 0 0 0 0 0 0 0 0 0 0 0 0 0 0 0 0 0 0 0 0 0 0 0
0 0 0 0 0 0 0 0 0 1 1 0 1 2 4 3 1 0 0 1 2 2 1 0 0 0 0 0 0 0 0 0 0 0 0 0 0 0 0 0 0 0 0 0 0 0 0 0 0
0 0 0 0 0 0 0 0 0 1 1 0 2 7 8 5 2 1 0 0 1 1 0 0 0 0 0 0 0 0 0 0 0 0 0 0 0 0 0 0 0 0 0 0 0 0 0 0 0
0 0 0 0 0 0 0 0 0 0 0 1 4 9 9 6 3 2 1 0 0 0 0 0 0 0 0 0 0 0 0 0 0 0 0 0 0 0 0 0 0 0 0 0 0 0 0 0 0
0 0 0 0 0 0 0 0 0 0 0 1 5 9 9 6 4 2 1 1 1 1 0 1 1 1 0 0 0 0 0 0 0 0 0 0 0 0 0 0 0 0 0 0 0 0 0 0 0
0 0 0 0 0 0 0 0 0 0 0 1 5 8 8 6 4 3 2 2 2 2 1 1 2 1 0 0 0 0 0 0 0 0 0 0 0 0 0 0 0 0 0 0 0 0 0 0 0
0 0 0 0 0 0 0 0 0 1 1 2 5 6 5 5 4 3 3 3 3 3 3 3 3 2 1 0 0 0 0 0 0 0 0 0 0 0 0 0 0 0 0 0 0 0 0 0 0
0 0 0 0 0 0 0 0 1 2 4 4 4 4 4 3 3 3 3 3 3 3 3 3 3 3 2 1 0 0 0 0 0 0 0 0 0 0 0 0 0 0 0 0 0 0 0 0 0
0 0 0 0 0 0 0 0 1 3 5 5 4 4 4 3 2 1 3 4 3 3 3 2 3 4 3 1 0 0 0 0 0 0 0 0 0 0 0 0 0 0 0 0 0 0 0 0 0
0 0 0 0 0 1 1 1 1 3 5 5 4 5 5 3 1 1 2 4 4 4 4 5 5 6 5 4 2 1 1 0 0 0 0 0 0 0 0 0 0 0 0 0 0 0 0 0 0
0 0 0 0 0 1 2 3 2 3 5 5 4 4 4 2 1 1 3 5 5 5 7 9 9 9 9 8 7 5 3 1 0 0 0 0 0 0 0 0 0 0 0 0 0 0 0 0 0
0 0 0 0 0 1 3 4 5 5 5 4 3 1 1 0 0 2 4 5 5 6 9 11 11 11 11 11 10 7 5 2 1 0 0 0 0 0 0 0 0 0 0 0 0 0 0 0 0
0 0 0 0 0 0 1 3 4 5 4 2 1 0 1 1 1 2 4 5 6 7 9 10 11 11 12 13 11 10 8 5 3 1 1 0 0 1 1 0 0 0 0 0 0 0 0 0 0
0 0 0 0 0 0 0 1 2 3 3 2 1 1 3 3 2 3 5 6 7 7 8 9 10 10 12 13 15 14 11 7 4 2 1 0 0 1 2 1 0 0 0 0 0 0 0 0 0
0 0 0 0 0 0 0 0 0 1 2 2 2 2 5 6 5 4 5 8 8 6 6 8 9 9 10 13 16 16 11 6 3 2 1 0 0 1 1 1 0 0 0 0 0 0 0 0 0
0 0 0 0 0 0 0 0 0 0 1 2 3 5 7 7 6 6 7 11 12 10 8 10 11 11 12 13 14 13 9 5 3 2 1 1 1 1 1 1 0 0 0 0 0 0 0 0 0
0 0 0 0 0 0 0 0 0 0 0 2 4 6 9 11 10 11 13 17 19 17 15 15 16 15 15 15 14 10 7 5 4 3 3 3 3 2 2 1 0 0 1 1 1 0 0 0 1
0 0 0 0 0 0 0 0 0 1 1 2 4 8 13 15 14 14 17 22 24 23 21 22 23 20 18 17 15 10 7 5 4 4 5 5 3 1 1 1 0 0 1 2 2 1 0 1 2
0 0 0 0 0 0 0 0 1 2 2 4 7 11 14 15 14 14 17 22 24 24 25 28 28 24 21 19 16 12 8 6 5 4 4 3 2 1 1 1 1 1 1 2 2 1 0 1 2
0 0 0 0 0 0 0 0 1 2 3 5 8 12 14 14 13 12 15 19 20 22 26 32 31 26 22 20 17 13 10 8 6 3 2 2 2 2 2 3 3 3 3 3 3 2 1 1 1
0 0 0 0 0 0 0 0 0 1 3 5 7 9 11 11 10 9 12 16 18 21 25 30 30 27 22 19 17 14 10 7 5 3 2 2 2 3 3 4 6 6 6 6 5 4 3 2 2
0 0 0 0 0 0 0 0 0 0 2 5 6 6 7 7 7 8 11 15 17 20 24 27 29 27 23 19 18 15 8 4 4 4 3 3 3 4 3 4 6 7 7 7 6 4 3 3 3

GEFSSGP_con_prob3kmehi_222.txt.gz
EHI
17 16 15 12 4 0 0 0 0 0 0 0 0 0 0 0 0 0 0 0 0 0 0 0 0 0 0 0 0 0 0 0 0 0 0 0 0 0 0 0 0 0 0 0 0 0 0 0 0
15 16 15 9 3 0 0 0 0 0 0 0 0 0 0 0 0 0 0 0 0 0 0 0 0 0 0 0 0 0 0 0 0 0 0 0 0 0 0 0 0 0 0 0 0 0 0 0 0
14 15 11 4 1 0 0 0 0 0 0 0 0 0 0 0 0 0 0 0 0 0 0 0 0 0 0 0 0 0 0 0 0 0 0 0 0 0 0 1 1 1 0 0 0 1 1 1 0
13 11 4 0 0 0 0 0 0 0 0 0 0 0 0 0 0 0 0 0 0 0 0 0 0 0 0 0 0 0 0 0 0 0 0 0 0 0 0 1 1 1 0 0 1 2 2 1 1
8 5 1 0 0 0 0 0 0 0 0 0 0 0 0 0 0 0 0 0 0 0 0 0 0 0 0 0 0 0 0 0 0 0 0 0 0 0 0 0 0 1 1 1 2 2 2 1 0
2 1 0 0 0 0 0 0 0 0 0 0 0 0 0 0 0 0 0 0 0 0 0 1 1 1 0 0 0 0 0 0 0 0 0 0 0 0 0 0 0 1 3 2 1 1 2 1 1
0 0 0 0 0 0 0 0 0 0 0 0 0 0 0 0 0 0 0 0 0 0 0 1 2 2 1 0 0 0 0 0 0 0 0 0 0 0 0 0 0 2 3 2 0 0 1 2 2
0 0 0 0 0 0 0 0 0 0 0 0 0 0 0 0 0 0 0 0 0 0 0 0 1 2 1 0 0 0 0 0 0 0 0 0 0 0 0 0 0 2 3 2 1 0 1 2 2
0 0 0 0 0 0 0 0 0 0 0 0 0 1 2 2 1 0 0 0 0 0 0 0 0 0 0 0 0 0 0 0 0 0 1 1 1 1 1 0 1 3 4 3 1 1 1 1 1
0 0 0 0 0 0 0 0 0 0 1 1 2 4 5 3 1 0 0 0 0 0 1 1 1 0 0 0 0 0 0 0 0 0 1 2 2 2 2 1 1 3 4 3 1 1 0 0 0
0 0 0 0 0 0 0 0 0 0 1 2 4 8 8 4 1 0 0 0 0 0 1 1 1 1 0 0 0 0 0 0 0 0 1 2 3 3 3 2 1 2 2 1 1 0 0 0 0
0 0 0 0 0 0 0 0 0 0 0 2 7 10 8 3 1 0 0 0 0 0 0 1 1 1 0 0 0 0 0 0 0 0 0 1 1 2 2 2 1 0 0 0 0 0 0 0 0
0 0 0 0 0 0 0 0 0 0 1 4 8 9 7 3 1 0 0 0 1 1 0 1 3 3 1 0 0 0 0 0 0 0 0 0 0 1 1 1 0 0 0 0 0 0 0 0 0
0 0 0 0 0 0 0 0 1 1 3 7 9 8 7 4 2 0 0 0 1 2 1 2 5 6 4 1 0 0 0 0 0 0 0 0 0 0 0 0 0 0 0 0 0 0 0 0 0
0 0 0 0 0 0 0 0 1 3 5 8 10 9 7 5 3 1 0 0 1 2 2 3 5 7 7 5 2 0 0 0 0 0 0 0 0 0 1 1 1 0 0 0 0 0 0 0 0
0 0 0 0 0 0 0 0 2 3 4 8 11 10 9 6 2 1 0 0 0 1 3 3 4 7 9 8 4 1 1 0 0 0 0 0 0 1 2 2 1 0 0 0 0 0 0 0 0
0 0 0 0 0 0 0 2 4 3 3 7 10 10 9 6 2 1 1 1 1 2 4 7 8 8 10 9 6 3 2 1 1 0 0 0 0 1 2 2 1 0 0 1 0 0 0 0 1
0 0 0 0 0 0 1 3 5 5 4 6 8 9 8 6 3 2 4 4 4 3 6 10 12 13 12 11 10 8 6 4 3 1 1 1 1 2 2 2 2 2 2 1 1 0 0 0 1
0 0 0 0 0 1 2 3 5 6 7 8 9 10 10 7 5 5 7 8 6 5 7 11 15 16 16 15 15 14 11 8 6 5 3 2 2 3 4 4 4 4 4 4 2 1 1 1 1
0 0 0 0 0 1 2 3 5 7 8 10 11 12 11 8 7 9 11 10 8 7 9 13 16 17 18 17 16 15 14 11 9 7 6 4 3 3 4 5 5 5 6 6 5 4 3 2 2
0 0 0 0 0 0 1 2 4 5 7 10 11 10 9 6 7 11 14 11 9 9 11 14 17 20 19 17 15 14 13 12 11 8 6 4 4 3 4 4 4 4 6 7 7 6 5 4 4
0 0 0 0 0 0 0 1 2 5 8 12 14 11 8 6 7 11 15 13 10 10 11 15 20 24 24 21 18 17 15 13 13 10 6 4 5 5 5 4 5 5 5 7 7 6 5 5 4
0 0 0 0 0 0 0 0 1 3 7 12 15 14 12 10 9 11 15 15 13 11 11 16 24 29 28 24 21 19 17 14 12 10 8 7 7 7 7 7 8 8 7 7 7 7 5 4 4
0 0 0 0 0 0 0 0 0 1 3 7 12 15 16 15 13 12 14 15 16 14 15 20 28 32 30 26 23 21 20 17 14 13 13 11 9 10 11 13 14 12 10 9 9 9 7 4 4
0 0 0 0 0 0 0 0 0 1 1 4 9 15 19 20 18 15 16 19 21 21 21 25 31 32 31 29 26 25 24 22 19 17 15 12 10 11 14 16 17 16 14 12 13 13 10 6 5
0 0 0 0 0 0 0 0 0 1 2 4 9 16 21 25 24 21 21 25 28 28 28 31 34 33 30 28 27 27 25 21 19 17 14 11 9 9 11 13 13 13 14 15 18 18 13 10 8
0 0 0 0 0 0 0 0 0 1 3 8 15 21 25 29 29 26 24 26 30 32 33 35 37 35 31 27 24 24 23 20 18 17 15 12 9 7 7 8 8 10 13 18 21 20 17 12 10
0 0 0 0 0 0 0 0 0 1 5 13 22 27 31 34 35 32 26 24 28 32 34 35 35 35 33 29 24 22 24 23 20 19 17 15 11 8 7 8 9 11 14 17 20 19 17 14 11
0 1 1 1 0 0 0 0 1 3 8 16 24 30 35 37 37 36 32 30 31 33 35 34 34 33 33 30 27 27 27 25 23 22 20 18 15 11 10 12 13 13 14 15 16 16 16 15 15
1 2 2 1 0 0 0 1 2 4 9 16 23 30 35 36 37 39 39 37 36 37 38 36 35 33 31 29 29 31 30 27 25 24 21 20 18 15 14 15 15 13 13 14 15 14 15 17 18

GEFSSGP_con_prob3kmehi_228.txt.gz
EHI
13 17 30 40 32 11 1 0 0 0 0 0 0 0 0 0 0 1 3 4 4 2 2 2 2 1 0 0 0 0 0 0 0 0 0 1 1 1 0 0 0 0 0 0 0 0 0 0 0
12 24 40 39 21 6 0 0 0 0 0 0 0 0 0 0 0 1 2 3 3 3 2 2 2 1 0 0 0 0 0 0 0 0 0 0 0 0 0 0 0 0 0 0 0 0 0 0 0
22 37 46 30 10 1 0 0 0 0 0 0 0 0 0 0 0 0 1 3 4 4 3 2 2 1 0 0 0 0 0 0 0 0 0 0 0 0 0 0 0 0 0 0 0 0 0 0 0
39 44 35 15 3 0 0 0 0 0 0 0 0 0 0 0 0 0 1 3 5 5 3 2 1 1 0 0 0 0 0 0 0 0 0 0 0 0 0 0 0 0 0 0 0 0 0 0 0
44 36 19 5 0 0 0 0 0 0 0 0 0 0 0 0 0 0 1 4 6 5 2 0 0 0 0 0 0 0 0 0 0 0 0 0 0 0 0 0 0 0 0 0 0 0 0 0 0
33 22 7 1 0 0 0 0 0 0 0 0 0 0 0 0 0 0 1 3 6 5 2 1 0 0 0 0 0 0 0 0 0 0 0 0 0 0 0 0 0 0 0 0 0 0 0 0 0
19 11 3 0 0 0 0 0 0 0 0 0 1 1 0 0 0 0 0 2 4 5 3 3 2 1 1 0 0 0 0 0 0 0 0 0 0 0 0 0 0 0 0 0 0 0 0 0 0
7 4 1 0 0 0 0 0 0 0 0 0 1 1 1 0 0 0 0 1 3 4 4 5 5 5 3 1 0 0 0 0 0 0 0 0 0 0 1 1 1 0 0 0 0 1 1 1 1
1 0 0 0 0 0 0 0 0 0 0 0 1 2 1 1 0 0 0 0 1 2 4 5 6 6 4 3 2 1 1 0 0 0 0 0 0 1 2 3 4 2 0 0 1 2 3 2 2
0 0 0 0 0 0 0 0 0 1 1 2 3 3 2 1 1 0 0 0 0 1 4 6 6 5 3 2 3 2 1 2 2 1 0 0 0 2 3 4 5 3 1 0 2 4 4 3 2
0 0 0 0 0 0 0 0 0 1 2 4 6 5 2 0 0 0 1 1 1 2 5 7 7 6 3 2 4 3 2 4 6 6 4 1 1 1 2 4 4 3 2 1 3 4 3 3 3
0 0 0 0 0 0 0 0 0 0 2 5 7 5 1 0 0 1 2 3 3 4 7 9 10 10 8 6 5 4 3 4 7 9 7 4 2 1 1 3 3 2 2 2 2 2 3 4 5
0 0 0 0 0 0 0 0 0 1 4 7 7 4 2 1 1 2 4 6 6 7 9 12 16 17 14 10 7 5 4 3 6 9 8 5 3 1 1 2 3 3 2 2 1 1 3 4 4
0 0 0 0 0 0 0 0 0 2 7 9 7 4 4 4 3 4 8 9 9 9 10 14 17 19 17 12 7 5 3 3 4 8 9 6 3 2 1 2 5 4 2 1 0 1 2 3 3
0 0 0 0 0 0 0 0 1 4 9 11 7 5 6 7 6 8 11 12 12 12 12 12 14 18 17 13 8 4 2 2 4 8 10 7 4 4 4 4 6 6 4 1 0 0 1 1 1
0 0 0 0 0 0 0 1 3 6 10 11 8 6 7 8 8 10 13 15 17 20 19 14 13 17 18 14 9 6 4 3 5 9 12 10 6 6 6 6 7 8 7 4 2 1 1 1 1
0 0 0 0 0 0 0 2 5 7 10 12 11 10 10 9 8 10 13 17 24 29 27 19 14 16 17 15 12 10 7 6 7 11 15 14 11 8 7 8 9 10 10 8 6 5 4 4 5
0 0 0 0 0 0 0 2 6 8 11 15 16 18 17 13 11 12 14 21 29 36 35 26 19 18 18 17 15 12 9 9 10 14 19 20 16 14 12 11 12 12 11 10 8 8 7 7 7
0 0 0 0 0 0 0 2 6 8 11 17 23 25 23 21 21 22 22 27 37 44 43 36 30 26 22 20 18 15 11 11 14 18 24 27 23 20 17 15 15 13 11 10 9 9 9 7 6
0 0 0 0 0 0 0 2 5 8 11 19 26 27 25 28 36 39 36 38 47 52 50 45 41 35 27 22 21 18 14 13 17 23 28 30 27 23 20 17 15 14 13 12 12 12 10 6 4
0 0 0 0 0 0 0 2 5 9 12 18 25 27 27 34 48 55 51 49 54 56 54 50 50 44 32 26 23 21 18 16 20 26 29 29 27 25 22 19 16 17 17 16 16 15 11 6 4
0 0 0 0 0 0 0 2 7 11 14 18 23 27 30 37 51 60 61 58 57 55 54 58 60 55 42 31 25 23 22 20 22 28 29 29 28 27 25 20 18 19 20 19 17 15 11 6 4
0 0 0 0 0 0 0 2 6 11 14 18 21 25 30 38 50 61 66 66 60 54 57 66 70 64 52 39 30 26 23 21 24 30 31 29 28 27 25 24 22 22 22 19 17 16 13 9 7
0 0 0 0 0 0 0 1 3 7 11 17 22 25 30 40 53 63 69 72 66 58 60 70 75 69 59 47 37 32 28 25 28 32 32 28 27 26 26 27 28 27 25 22 19 18 17 14 12
0 0 0 0 0 0 0 1 3 6 8 12 20 28 35 43 54 64 72 76 74 68 68 74 78 73 63 53 46 42 37 32 32 33 30 25 24 26 28 31 33 32 29 26 23 21 18 17 16
0 0 1 1 0 0 1 2 4 5 5 8 17 29 39 44 51 60 68 74 76 76 77 79 79 75 66 57 52 48 43 36 33 32 28 23 21 23 28 33 35 35 30 27 25 23 21 21 21
0 1 2 2 1 0 1 4 5 5 6 8 16 28 39 43 47 55 63 67 70 75 79 80 78 73 65 57 53 50 46 39 33 30 26 21 20 21 26 32 35 34 30 26 25 24 24 25 26
0 1 2 2 1 0 1 3 6 8 10 12 19 28 37 42 45 53 61 61 62 68 74 76 75 72 65 57 54 51 47 42 36 31 25 24 25 25 25 29 32 33 30 27 27 25 24 26 27
1 2 2 1 0 0 0 2 6 11 13 16 23 32 38 41 45 54 62 61 59 65 71 71 72 72 67 60 56 53 49 45 42 36 32 32 34 33 30 30 31 31 28 28 28 26 23 24 26
0 1 2 1 0 0 0 2 6 12 14 18 27 35 41 44 48 56 63 63 60 66 71 71 70 71 67 62 59 55 51 48 46 42 39 40 41 40 36 34 32 29 26 28 29 26 24 24 25

GEFSSGP_con_prob3kmehi_234.txt.gz
EHI
18 9 1 0 0 0 0 0 0 0 0 0 0 0 0 0 0 0 0 0 1 2 1 3 5 4 2 1 2 2 1 0 1 2 2 1 1 2 2 2 3 2 1 0 0 0 0 0 1
10 5 1 0 0 0 0 0 0 0 0 0 0 0 0 0 0 0 0 1 2 2 1 2 4 5 4 3 1 1 0 0 1 2 2 1 0 1 1 1 2 1 0 0 0 0 0 0 1
4 3 2 1 1 0 0 0 0 0 0 0 0 0 0 0 0 0 0 1 2 2 1 2 5 7 7 5 1 0 0 1 2 2 1 0 0 0 0 0 0 0 0 0 0 0 0 0 1
3 4 3 2 1 0 0 0 0 0 0 0 0 0 0 0 0 0 0 1 2 1 0 2 6 8 7 5 2 0 1 2 3 2 1 0 0 0 0 0 0 0 0 0 0 0 0 0 0
3 3 2 1 0 0 0 0 0 1 0 0 0 0 1 2 2 1 0 1 1 0 0 2 5 6 5 3 2 1 1 2 3 3 2 1 0 0 0 0 0 0 0 0 0 0 0 0 0
4 2 1 0 0 0 0 0 1 2 1 0 0 0 1 4 4 1 0 0 0 0 0 1 3 3 3 3 3 2 1 2 3 3 2 1 0 0 0 0 0 0 0 0 0 0 0 0 0
5 2 0 0 0 0 0 1 2 2 1 0 0 0 1 4 4 1 0 0 0 0 1 1 2 1 1 3 4 3 2 2 2 2 1 0 0 0 0 0 1 0 0 0 0 0 0 1 1
4 2 0 0 0 0 0 1 2 2 1 0 0 0 1 4 4 2 0 0 0 0 1 2 1 0 1 2 3 3 2 1 1 1 0 0 0 0 0 0 0 0 0 0 0 0 1 2 3
2 1 0 0 0 0 0 0 1 2 2 1 0 0 2 6 7 4 1 0 0 0 1 1 1 0 0 1 2 2 1 1 1 1 0 0 0 0 0 0 0 0 0 0 1 1 1 3 3
1 0 0 0 0 0 0 0 1 3 4 3 1 2 4 8 11 8 4 2 1 0 0 0 0 0 0 1 1 0 0 0 1 1 0 0 0 0 0 0 0 0 0 0 1 1 1 1 1
0 0 0 0 0 0 0 0 1 4 5 4 4 6 9 11 13 12 9 6 3 1 1 0 0 0 0 0 0 0 0 0 0 0 0 0 0 0 0 0 0 0 0 0 1 1 0 0 0
0 0 0 0 0 0 0 0 1 3 4 4 7 10 11 11 12 12 12 9 4 3 2 1 1 1 0 0 0 0 0 0 0 0 0 0 0 0 0 0 0 0 0 0 0 0 0 0 0
0 0 0 0 0 0 0 0 2 3 4 6 8 9 8 7 8 10 11 9 6 4 3 3 3 2 1 1 0 0 0 0 0 0 0 0 0 0 0 0 0 0 0 0 0 0 0 0 0
0 0 0 0 0 0 1 2 3 6 7 8 7 6 5 4 5 8 10 10 9 7 5 5 5 4 2 1 0 0 0 0 0 0 0 0 0 0 0 0 0 0 0 0 0 0 0 0 0
0 0 0 0 0 0 1 2 4 8 11 10 7 5 4 4 6 8 10 11 11 10 8 7 8 6 3 2 1 1 0 0 0 0 0 0 0 0 0 0 0 0 0 0 0 0 0 0 0
0 0 0 0 0 0 1 1 4 9 12 11 8 6 5 6 7 9 10 13 14 13 11 10 10 9 6 3 3 2 1 0 0 0 0 0 0 0 0 0 0 0 0 0 0 0 0 0 0
0 0 0 0 0 0 0 1 3 8 11 12 10 9 9 9 9 9 11 15 16 15 14 13 12 13 10 5 3 3 2 1 0 0 0 0 0 0 0 0 0 0 0 0 0 0 0 0 0
0 0 0 0 0 0 0 1 3 7 10 12 13 13 13 12 11 10 13 15 17 17 17 15 14 14 12 8 5 5 4 2 2 1 1 2 1 1 1 1 1 1 1 0 0 0 0 0 0
0 0 0 0 0 0 0 1 3 6 10 12 13 15 15 14 13 14 14 17 20 21 19 17 15 14 13 11 10 8 6 4 4 4 4 5 4 3 2 3 5 4 2 1 0 0 0 0 0
0 0 0 0 0 0 1 1 2 6 9 11 13 14 14 14 15 18 20 25 28 27 23 20 18 17 16 14 12 9 6 5 6 6 5 6 6 4 4 5 7 6 4 2 1 1 1 1 1
0 0 0 0 0 0 0 0 1 5 7 10 12 13 13 14 16 21 30 37 38 34 27 24 23 23 21 18 15 11 8 6 7 6 5 5 6 7 7 8 7 5 5 5 4 3 3 2 2
0 0 0 0 0 0 0 0 1 4 7 10 14 15 15 15 18 25 36 44 44 37 29 27 27 27 25 24 22 18 12 8 7 6 4 4 7 10 11 10 7 4 4 5 6 5 4 3 3
0 0 0 0 0 0 0 0 1 4 7 10 15 18 18 18 22 28 37 45 45 37 29 28 29 28 28 29 29 26 18 11 9 7 4 4 7 10 12 10 7 5 4 5 6 6 4 3 2
1 1 0 0 0 0 0 1 2 4 7 12 16 18 20 21 26 32 38 43 44 38 32 30 31 30 31 31 31 29 22 15 11 9 6 5 6 8 10 10 8 6 6 6 6 6 4 2 1
0 0 0 0 0 0 0 1 2 3 7 13 17 18 21 24 30 37 41 43 45 45 41 37 34 32 32 31 30 28 23 17 14 12 9 7 7 7 8 9 9 8 7 6 6 5 4 1 0
0 0 0 0 0 0 0 0 1 3 7 14 19 21 23 28 34 40 43 44 48 52 51 45 40 36 33 31 29 27 22 17 15 14 13 11 9 7 8 9 10 10 8 6 5 4 3 2 1
0 0 0 0 0 0 0 1 2 5 10 17 22 25 28 33 37 40 43 46 49 54 56 52 47 42 37 32 28 25 21 18 17 16 15 13 10 8 8 10 11 11 9 6 3 1 1 2 2
0 0 0 0 0 0 0 2 3 6 12 19 23 26 29 34 37 41 45 49 50 54 57 56 52 47 40 33 29 24 21 20 19 19 17 14 11 10 10 11 12 11 10 6 2 0 0 1 1
0 0 0 0 0 0 0 2 3 7 11 16 21 24 25 28 33 39 45 49 52 55 57 56 53 48 41 36 32 27 24 22 21 21 20 16 13 12 12 12 12 11 9 5 1 0 0 0 0
0 0 0 0 0 0 1 2 4 8 10 14 19 22 21 24 30 35 41 48 51 55 56 54 51 47 42 39 35 31 27 24 21 21 21 18 14 13 13 12 11 10 8 4 1 0 0 0 0

GEFSSGP_con_prob3kmehi_240.txt.gz
EHI
0 0 0 0 0 0 0 0 0 0 0 0 0 0 0 0 0 0 0 0 0 0 0 2 5 6 4 3 4 5 2 1 1 2 3 2 1 1 0 0 0 0 1 1 1 0 0 0 0
0 0 0 0 0 0 0 0 0 0 0 0 0 0 0 0 0 0 0 0 0 0 0 1 4 6 4 3 4 3 1 1 1 2 3 3 1 1 0 0 0 0 1 1 0 0 0 0 0
0 0 0 0 0 0 0 0 0 0 0 0 0 0 0 0 0 0 0 0 0 0 0 1 3 4 4 3 2 1 0 0 0 2 4 3 1 0 0 0 0 0 0 0 0 1 1 1 0
0 0 0 0 0 0 0 0 0 0 0 0 0 0 0 0 0 0 0 0 0 0 0 0 1 1 2 2 1 0 0 0 0 1 3 3 1 0 0 0 0 0 0 0 0 1 2 1 0
0 0 0 0 0 0 0 0 0 0 0 0 0 0 0 0 0 0 0 0 0 0 0 0 0 0 1 2 2 0 0 0 0 0 1 1 0 0 0 0 0 0 0 0 0 1 1 0 0
0 0 0 0 0 0 0 0 0 0 0 0 0 0 0 0 0 0 0 0 0 0 0 0 1 1 1 1 1 0 0 0 0 0 0 0 0 0 0 0 0 0 0 0 0 0 0 0 0
0 0 0 0 0 0 0 0 0 0 0 0 0 0 0 0 1 1 0 0 0 0 0 0 1 1 1 0 0 0 0 0 0 1 1 1 0 0 0 0 0 0 0 0 0 1 0 0 0
0 0 0 0 0 0 0 0 0 0 0 0 0 0 0 1 2 1 0 0 0 0 0 0 0 1 1 0 0 0 0 0 0 1 1 1 0 0 0 0 0 0 0 0 0 0 0 0 0
0 0 0 0 0 0 0 0 0 0 0 0 0 1 2 3 2 1 0 0 0 0 0 0 0 0 0 0 0 0 0 0 0 0 0 0 0 0 0 0 0 0 0 0 0 0 0 0 0
0 0 0 0 0 0 0 0 0 0 0 0 2 4 6 5 2 0 0 0 0 0 0 0 0 0 0 0 0 0 0 0 0 0 0 0 0 0 0 0 0 0 0 0 0 0 0 0 0
0 0 0 0 0 0 0 0 0 0 0 1 4 9 10 6 2 0 0 0 0 0 0 0 0 0 0 0 0 0 0 0 0 0 0 0 0 0 0 0 0 0 0 0 0 1 0 0 0
0 0 0 0 0 0 0 0 0 0 0 2 8 13 12 6 1 0 0 0 0 0 0 0 0 0 0 0 0 0 0 0 0 0 0 0 0 0 0 0 0 0 0 0 0 0 0 0 0
0 0 0 0 0 0 0 0 0 0 0 5 12 15 13 7 2 0 0 0 0 0 0 0 0 0 0 0 0 0 0 0 0 0 0 0 0 0 0 0 0 0 0 0 0 0 0 0 0
0 0 0 0 0 0 0 0 0 1 2 7 13 16 14 9 4 1 1 1 0 0 0 0 0 0 0 0 0 0 0 0 0 0 0 0 0 0 0 0 0 0 0 0 0 0 0 0 0
0 0 0 0 0 0 0 0 1 2 5 9 12 14 14 10 6 3 2 2 1 0 0 0 0 0 0 0 0 0 0 0 0 0 0 0 0 0 0 0 0 0 0 0 0 0 0 0 0
0 0 0 0 0 0 0 0 1 4 8 9 10 11 12 10 7 4 3 2 1 0 0 0 0 0 0 0 0 0 0 0 0 0 0 0 0 0 0 0 0 0 0 0 0 0 0 0 0
0 0 0 0 0 0 0 0 1 4 7 8 8 8 8 8 7 5 3 2 2 1 0 0 0 0 0 0 0 0 0 0 0 0 0 0 0 0 0 0 0 0 0 0 0 0 0 0 0
0 0 0 0 0 0 0 0 1 3 4 5 5 5 5 6 6 4 3 3 3 3 1 0 1 1 1 0 0 0 0 0 0 0 0 0 0 0 0 0 0 0 0 0 0 0 0 0 0
0 0 0 0 0 0 0 0 0 1 2 3 4 4 4 5 4 3 3 4 6 6 4 3 3 3 4 2 1 0 0 0 0 0 0 0 0 0 0 0 0 0 0 0 0 0 0 0 0
0 0 0 0 0 0 0 0 0 0 1 2 3 3 3 3 3 3 4 5 8 9 8 7 6 7 8 7 4 2 1 0 0 0 0 0 0 0 0 0 0 0 0 0 0 0 0 0 0
0 0 0 0 0 0 0 0 0 0 1 2 2 3 4 4 4 5 6 7 9 10 10 9 9 10 11 10 8 7 4 2 1 1 0 0 0 0 0 0 0 0 1 1 1 1 1 1 1
0 0 0 0 0 0 0 0 0 0 0 1 3 4 5 6 7 9 8 8 9 11 11 10 10 11 11 11 11 10 8 6 4 3 1 0 0 0 0 0 1 1 3 3 3 2 2 2 2
0 0 0 0 0 0 0 0 0 0 0 1 3 5 7 9 11 13 12 9 10 11 12 11 10 10 10 11 12 12 11 8 6 4 2 1 1 1 1 1 2 3 5 5 4 4 4 4 4
0 0 0 0 0 0 0 0 0 0 0 0 2 6 9 12 14 16 15 12 10 11 14 13 11 10 10 11 14 15 13 11 9 6 3 3 2 2 2 3 3 4 6 6 5 5 5 5 5
0 0 0 0 0 0 0 0 0 1 2 2 2 6 10 13 15 15 14 12 10 11 15 16 13 11 10 12 16 17 16 14 12 8 4 3 3 3 3 3 3 4 5 6 6 6 6 6 6
0 0 0 0 0 0 0 0 1 3 4 4 3 5 9 13 16 14 12 10 9 11 16 18 16 13 12 13 17 18 16 14 12 8 5 3 3 3 3 3 3 3 4 4 5 6 6 6 6
0 0 0 0 0 0 0 0 2 4 6 6 5 6 8 12 15 14 11 9 10 12 16 18 17 16 16 16 17 17 15 13 11 9 6 4 3 3 3 3 3 3 3 3 4 5 5 4 4
0 0 0 0 0 0 0 0 1 3 6 8 9 8 7 9 12 13 10 9 11 14 17 19 18 17 17 17 16 15 13 12 12 10 8 5 5 5 5 5 5 5 4 4 4 3 2 1 1
0 0 0 0 0 0 0 0 0 2 6 9 10 8 5 5 8 11 11 11 13 16 18 19 18 16 15 14 14 14 13 13 12 12 11 10 9 8 8 8 8 7 6 5 4 3 1 0 0
0 0 0 0 0 0 0 0 1 2 6 9 9 5 2 2 5 11 13 12 13 16 18 18 16 13 12 11 12 14 14 13 13 13 14 14 12 10 10 10 10 9 7 5 4 3 2 1 0